     2              OBSERVATION DATA    G (GPS)             RINEX VERSION / TYPE
ASRINEXO V2.4.4 UX USGS 09-OCT-96 11:03                     PGM / RUN BY / DATE
Crustal Strain Project                                      COMMENT
U.S. Geological Survey, Menlo Park, California 94025        COMMENT
345 Middlefield Road, MS/977                                COMMENT
Contact: kwendt@isdmnl.wr.usgs.gov (Ph: 415-329-4866)       COMMENT
HI's are vertical to base of antenna                        COMMENT
a230                                                        MARKER NAME
NK USGS                                                     OBSERVER / AGENCY
274 ASHTECH Z-XII3 1E86                                     REC # / TYPE / VERS
1058 ASH700228D NONE                                        ANT # / TYPE
 -2472803.0000 -4296398.0000  4003188.0000                  APPROX POSITION XYZ
        1.2865        0.0000        0.0000                  ANTENNA: DELTA H/E/N
     1     1                                                WAVELENGTH FACT L1/2
     5    C1    L1    L2    P1    P2                        # / TYPES OF OBSERV
    30                                                      INTERVAL
  1996     9    17    16     4    0.000000                  TIME OF FIRST OBS
                                                            END OF HEADER
 96  9 17 16  4  0.0000000  0  6 10  6 23 16 17 26
  23008043.299      329235.11649    236719.22649  23008041.3944   23008046.2514
  20449805.591      128378.75149     96475.83049  20449804.9054   20449809.0354
  23651105.621     -329511.70059    -69745.68959  23651102.9624   23651107.9734
  23876796.586      753746.25549    267575.34649  23876796.2884   23876800.6954
  21764462.229     -167739.61449   -127666.24149  21764461.6574   21764465.7674
  23876136.645     -228053.30749   -170299.66249  23876136.6254   23876143.6404
 96  9 17 16  5  0.0000000  0  6 10  6 23 16 17 26
  23050506.735      552376.88449    410595.90549  23050503.7884   23050509.6074
  20455530.790      158464.21449    119919.04049  20455530.5514   20455534.1804
  23622431.500     -480187.70149   -187155.43749  23622429.7624   23622435.5454
  23922481.589      993824.79449    454649.46749  23922480.5814   23922485.5904
  21752991.277     -228020.32849   -174638.20249  21752989.6194   21752994.7834
  23856311.220     -332241.91249   -251485.57649  23856311.8594   23856317.1334
 96  9 17 16  6  0.0000000  0  6 10  6 23 16 17 26
  23092433.923      772711.15749    582284.87549  23092432.4624   23092437.8194
  20460805.208      186181.04449    141516.55549  20460805.0694   20460808.5334
  23593141.543     -634102.54149   -307089.11049  23593139.8894   23593147.3114
  23967595.834     1230900.13349    639383.39049  23967594.9694   23967600.7434
  21740960.740     -291240.21049   -223900.45349  21740959.4874   21740964.6864
  23835905.282     -439477.13749   -335045.49249  23835906.0964   23835910.6854
 96  9 17 16  7  0.0000000  0  6 10  6 23 16 17 26
  23133774.718      989956.66449    751567.01749  23133772.9724   23133778.2794
  20465618.526      211475.52549    161226.52749  20465617.8184   20465621.9124
  23563213.630     -791376.23849   -429639.97649  23563212.3584   23563218.6194
  24012099.709     1464771.83849    821620.98149  24012099.2504   24012105.4024
  21728346.767     -357527.01449   -275552.50249  21728345.6894   21728350.5804
  23814873.821     -549999.80949   -421167.05349  23814874.6354   23814879.2254
 96  9 17 16  8  0.0000000  0  7 10  6 23 16 17 28 26
  23174638.394     1204696.90649    918897.02349  23174636.2434   23174641.8964
  20470081.625      234928.71449    179501.72549  20470081.0084   20470085.0964
  23532753.606     -951448.26749   -554371.31649  23532751.7654   23532758.3074
  24056076.662     1695871.03149   1001698.16249  24056075.8654   24056081.6364
  21715247.478     -426364.13949   -329191.80849  21715246.2884   21715251.1024
  23900909.319     -269681.706 9   -196000.919 9  23900907.816    23900912.198
  23793313.766     -663299.99449   -509452.88749  23793314.1914   23793320.2864
 96  9 17 16  8 30.0000000  0  7 10  6 23 16 17 28 26
  23194873.228     1311032.09149   1001755.59149  23194871.3654   23194877.9144
  20472152.897      245813.22849    187983.15749  20472152.5444   20472156.4184
  23517298.835    -1032662.96349   -617655.44949  23517297.3744   23517303.7054
  24077839.209     1810235.15849   1090813.00249  24077839.3594   24077844.7454
  21708491.430     -461867.35149   -356856.63549  21708490.3754   21708495.4804
  23885926.317     -348413.481 9   -257350.312 9  23885926.497    23885930.633
  23782313.638     -721106.93949   -554497.25149  23782314.0274   23782319.1294
 96  9 17 16  9  0.0000000  0  7 10  6 23 16 17 28 26
  23214997.076     1416785.49049   1084160.81449  23214995.8334   23215001.5874
  20474129.939      256202.44649    196078.64949  20474129.5554   20474133.1294
  23501713.756    -1114561.18149   -681472.20849  23501712.1834   23501718.8544
  24099469.731     1923903.30749   1179385.55549  24099470.3744   24099473.7114
  21701610.773     -498025.93849   -385032.14749  21701609.4484   21701614.8584
  23870782.691     -427997.297 9   -319363.646 9  23870782.871    23870785.061
  23771186.806     -779580.37149   -600060.94649  23771185.8504   23771191.9814
 96  9 17 16  9 30.0000000  0  7 10  6 23 16 17 28 26
  23235008.730     1521946.65049   1166104.54549  23235007.5494   23235013.2094
  20476009.853      266081.39949    203776.52749  20476009.6144   20476013.6374
  23485996.618    -1197155.41449   -745831.30049  23485996.6434   23486001.5774
  24120967.179     2036871.05249   1267412.36249  24120966.8124   24120972.0664
  21694600.382     -534865.46249   -413738.26749  21694599.3114   21694605.0324
  23855474.921     -508440.854 9   -382046.905 9  23855473.909    23855477.127
  23759933.259     -838718.23849   -646142.38349  23759933.8604   23759938.0514
 96  9 17 16 10  0.0000000  0  8 10  6 22 23 16 17 28 26
  23254915.735     1626557.85549   1247619.73849  23254914.1584   23254919.7214
  20477806.462      275521.86749    211132.73449  20477805.9704   20477809.6504
  24496193.568     -117454.49949                  24496194.188    24496196.0544
  23470160.113    -1280377.15749   -810679.37649  23470157.0784   23470165.8354
  24142346.717     2149220.02849   1354956.99049  24142346.3014   24142351.6374
  21687476.320     -572302.86949   -442910.26649  21687474.9544   21687480.6944
  23840017.088     -589671.070 9   -445343.193 9  23840016.220    23840019.102
  23748570.094     -898432.71449   -692673.12749  23748569.5074   23748573.9534
 96  9 17 16 10 30.0000000  0  8 10  6 22 23 16 17 28 26
  23274719.239     1730626.51249   1328712.16149  23274718.4484   23274723.6574
  20479524.603      284550.21849    218167.80949  20479523.7214   20479527.8964
  24485333.173     -224152.45759   -161960.61949  24485326.2014   24485329.9954
  23454208.794    -1364201.24349   -875996.88149  23454207.9704   23454214.3784
  24163612.218     2260970.61949   1442035.34249  24163612.0194   24163615.3314
  21680241.893     -610320.08349   -472534.06349  21680240.5124   21680246.1584
  23824415.260     -671656.735 9   -509228.103 9  23824414.691    23824419.085
  23737106.025     -958676.50049   -739616.32449  23737105.2044   23737111.9914
 96  9 17 16 11  0.0000000  0  8 10  6 22 23 16 17 28 26
  23294422.834     1834169.20049   1409394.75949  23294422.0674   23294427.0564
  20481172.495      293210.76649    224916.28349  20481172.1604   20481176.2184
  24474390.600     -281636.31849   -206753.20749  24474390.8224   24474389.5604
  23438146.604    -1448608.57949   -941768.77449  23438145.7794   23438152.3684
  24184769.574     2372151.93449   1528670.11749  24184768.3734   24184774.6854
  21672900.909     -648897.59149   -502594.46349  21672899.8844   21672905.0304
  23808677.208     -754362.201 9   -573673.910 9  23808676.336    23808681.388
  23725548.186    -1019413.86049   -786944.11049  23725548.1154   23725552.8014
 96  9 17 16 11 30.0000000  0  8 10  6 22 23 16 17 28 26
  23314021.527     1937161.23049   1489648.25849  23314020.4594   23314025.1944
  20482752.092      301511.47449    231384.35449  20482751.5864   20482755.6714
  24463379.634     -339495.33559   -251838.22849  24463376.8974   24463379.2424
  23421973.737    -1533597.43049  -1007993.82649  23421972.8164   23421978.8114
  24205816.770     2482755.82649   1614854.94549  24205815.9624   24205821.2474
  21665454.854     -688027.04749   -533084.94249  21665453.5794   21665458.3694
  23792801.084     -837793.315 9   -638685.107 9  23792800.017    23792803.912
  23713894.276    -1080655.06049   -834664.52149  23713893.4734   23713898.8674
 96  9 17 16 12  0.0000000  0  8 10  6 22 23 16 17 28 26
  23333538.611     2039723.27549   1569566.70049  23333537.5184   23333543.3524
  20484287.088      309577.82049    237669.81349  20484286.4344   20484290.5754
  24452322.813     -397594.99949   -297110.82549  24452323.9384   24452328.9954
  23405719.563    -1619012.59949  -1074551.04949  23405718.7584   23405724.2974
  24226778.915     2592910.76349   1700689.91149  24226778.0214   24226783.1254
  21657929.400     -727573.92449   -563900.68749  21657928.5484   21657933.5614
  23776811.865     -921816.290 9   -704157.554 9  23776810.317    23776815.187
  23702169.999    -1142267.13349   -882673.93349  23702170.4794   23702174.9214
 96  9 17 16 12 30.0000000  0  8 10  6 22 23 16 17 28 26
  23352982.088     2141898.41449   1649183.67049  23352980.4984   23352986.1784
  20485782.388      317435.25849    243792.48349  20485782.1284   20485785.7914
  24441224.532     -455916.01349   -342555.70949  24441226.5514   24441224.7544
  23389390.255    -1704822.95749  -1141416.25249  23389388.8834   23389394.9824
  24247661.447     2702649.41949   1786200.52149  24247659.9744   24247666.8644
  21650327.466     -767522.97049   -595029.81149  21650326.4714   21650331.2024
  23760713.995    -1006408.605 9   -770073.630 9  23760712.931    23760717.640
  23690377.939    -1204234.67149   -930960.30749  23690379.0724   23690383.8804
 96  9 17 16 13  0.0000000  0  8 10  6 22 23 16 17 28 26
  23372380.204     2243836.00649   1728615.53849  23372378.1794   23372384.4784
  20487265.202      325227.25349    249864.15849  20487264.6324   20487268.7914
  24430107.872     -514332.95049   -388075.32749  24430105.6304   24430109.0374
  23373012.537    -1790889.05249  -1208480.71349  23373011.7314   23373016.0464
  24268491.950     2812113.99949   1871497.54449  24268489.8244   24268494.8094
  21642675.051     -807736.12949   -626364.73049  21642673.4294   21642678.7084
  23744533.381    -1091439.380 9   -836331.353 9  23744532.622    23744536.699
  23678541.306    -1266436.29349   -979429.05949  23678540.9874   23678546.9234
 96  9 17 16 13 30.0000000  0  8 10  6 22 23 16 17 28 26
  23391704.184     2345385.35149   1807744.87849  23391702.6514   23391708.5864
  20488705.126      332794.04649    255760.35249  20488704.6554   20488708.6594
  24418943.085     -573001.83449   -433791.43449  24418938.4514   24418946.7624
  23356557.924    -1877360.44149  -1275860.98149  23356556.6924   23356562.3764
  24289238.459     2921139.49549   1956452.43049  24289237.4414   24289243.2494
  21634946.694     -848348.50849   -658010.74449  21634945.3194   21634950.2604
  23728239.875    -1177062.763 9   -903050.876 9  23728239.112    23728242.950
  23666630.720    -1329023.96149  -1028198.66149  23666630.7424   23666635.0074
 96  9 17 16 14  0.0000000  0  8 10  6 22 23 16 17 28 26
  23410978.937     2446674.86349   1886671.74949  23410978.2574   23410983.2844
  20490123.499      340247.70049    261568.38449  20490122.8834   20490127.0304
  24407753.819     -631800.62349   -479608.68049  24407753.6744   24407756.7844
  23340043.407    -1964145.02849  -1343485.32849  23340042.3254   23340048.3624
  24309922.933     3029837.32649   2041151.98949  24309922.1614   24309929.3134
  21627166.175     -889235.01749   -689870.35349  21627166.2144   21627170.4284
  23711856.735    -1263157.445 9   -970137.608 9  23711855.634    23711860.250
  23654670.678    -1391875.05849  -1077173.53149  23654670.9724   23654675.3774
 96  9 17 16 14 30.0000000  0  8 10  6 22 23 16 17 28 26
  23430226.919     2547822.80149   1965488.27249  23430225.7424   23430230.7174
  20491543.581      347710.14449    267383.26349  20491543.3604   20491547.2124
  24396561.381     -690617.56249   -525440.05049  24396558.2844   24396564.7624
  23323488.096    -2051143.84349  -1411276.60249  23323487.0964   23323491.8184
  24330564.385     3138306.79049   2125673.61349  24330564.5214   24330568.9264
  21619357.082     -930272.69249   -721847.76049  21619356.5014   21619360.3704
  23695404.891    -1349612.730 9  -1037505.363 9  23695404.283    23695408.573
  23642680.900    -1454881.73549  -1126269.60849  23642681.7924   23642685.8184
 96  9 17 16 15  0.0000000  0  8 10  6 22 23 16 17 28 26
  23449463.402     2648911.22649   2044258.45549  23449462.8554   23449467.6254
  20492984.379      355281.60049    273283.09549  20492983.6534   20492987.8784
  24385382.739     -749359.83749   -571213.20949  24385381.3924   24385386.6354
  23306912.037    -2138251.30549  -1479152.52949  23306911.5714   23306916.1364
  24351173.687     3246610.74849   2210066.28549  24351173.0344   24351179.0984
  21611537.480     -971365.12749   -753867.83549  21611536.9544   21611540.6454
  23678903.124    -1436329.731 9  -1105077.034 9  23678901.608    23678906.907
  23630680.344    -1517946.52949  -1175410.95349  23630679.1814   23630684.2794
 96  9 17 16 15 30.0000000  0  8 10  6 22 23 16 17 28 26
  23468680.480     2749897.21149   2122948.79749  23468679.8514   23468685.8784
  20494441.710      362939.66249    279250.40549  20494440.9144   20494445.1134
  24374214.877     -808048.15649   -616944.39449  24374212.1444   24374218.8794
  23290311.121    -2225488.78249  -1547129.75549  23290309.3344   23290316.0264
  24371746.016     3354721.91649   2294308.68949  24371746.2014   24371753.5834
  21603701.976    -1012541.01949   -785952.93049  21603701.5794   21603705.3714
  23662348.408    -1523322.996 9  -1172863.944 9  23662348.327    23662352.697
  23618665.647    -1581084.40049  -1224609.25649  23618666.3484   23618672.4374
 96  9 17 16 16  0.0000000  0  8 10  6 22 23 16 17 28 26
  23487879.256     2850785.89349   2201563.33649  23487878.4104   23487884.1304
  20495918.416      370699.30649    285296.86749  20495917.9314   20495921.8384
  24363056.855     -866681.88249   -662633.00649  24363055.2184   24363061.0004
  23273689.382    -2312837.18549  -1615193.41149  23273689.0204   23273692.9774
  24392286.603     3462658.74049   2378415.24349  24392286.2724   24392292.7084
  21595848.006    -1053814.44449   -818114.02349  21595846.7764   21595851.2574
  23645744.360    -1610578.505 9  -1240855.238 9  23645744.532    23645748.903
  23606639.565    -1644281.60049  -1273853.78249  23606639.2444   23606644.6264
 96  9 17 16 16 30.0000000  0  8 10  6 22 23 16 17 28 26
  23507084.751     2951709.91449   2280205.38349  23507082.2464   23507088.8424
  20497440.903      378699.33349    291530.64349  20497440.7274   20497444.4214
  24351934.380     -925130.63049   -708177.51949  24351933.4874   24351936.7844
  23257075.730    -2400143.90149  -1683224.60449  23257074.8224   23257079.2374
  24412818.282     3570553.45949   2462489.00849  24412815.6994   24412824.1734
  21587998.925    -1095062.03249   -850254.99549  21587998.0304   21588002.6244
  23629116.023    -1697963.058 9  -1308947.078 9  23629115.434    23629120.068
  23594626.500    -1707408.80249  -1323043.80149  23594626.5004   23594631.7144
 96  9 17 16 17  0.0000000  0  8 10  6 22 23 16 17 28 26
  23526302.766     3052702.17549   2358900.59949  23526302.0004   23526307.1024
  20499017.264      386982.45849    297985.01849  20499016.7964   20499020.5524
  24340856.355     -983346.12049   -753540.23949  24340853.0684   24340858.9144
  23240477.087    -2487371.67549  -1751194.27249  23240475.4944   23240480.8574
  24433351.221     3678454.74949   2546567.83449  24433350.9134   24433357.0914
  21580162.774    -1136241.33349   -882342.75949  21580161.6354   21580166.1384
  23612472.375    -1785425.984 9  -1377099.971 9  23612471.736    23612476.386
  23582638.408    -1770407.72949  -1372133.86349  23582639.0894   23582642.8444
 96  9 17 16 17 30.0000000  0  8 10  6 22 23 16 17 28 26
  23545521.941     3153699.17549   2437599.54449  23545520.0764   23545526.1094
  20500632.479      395471.30249    304599.70349  20500631.8684   20500635.9204
  24329811.513    -1041386.56249   -798766.55649  24329811.7124   24329817.1114
  23223878.438    -2574597.92249  -1819162.72149  23223877.1544   23223881.7614
  24453875.112     3786308.32349   2630609.50749  24453875.1254   24453880.0534
  21572328.819    -1177408.66349   -914421.18149  21572327.8184   21572332.3134
  23595801.672    -1873032.957 9  -1445365.147 9  23595801.387    23595804.051
  23570662.962    -1833338.56249  -1421170.82549  23570662.0204   23570667.1364
 96  9 17 16 18  0.0010000  0  8 10  6 22 23 16 17 28 26
  23564745.266     3254718.89449   2516316.15449  23564743.6674   23564748.9194
  20502285.389      404157.74149    311368.34649  20502284.8944   20502288.7674
  24318801.623    -1099243.58749   -843849.95249  24318800.0954   24318803.8564
  23207281.572    -2661814.99049  -1887124.07549  23207280.2544   23207285.3464
  24474388.887     3894108.49649   2714609.59949  24474388.1544   24474393.9464
  21564499.875    -1218550.62749   -946479.84149  21564498.2884   21564503.6484
  23579101.705    -1960790.958 9  -1513748.018 9  23579100.758    23579105.593
  23558699.258    -1896209.00949  -1470160.75849  23558698.5324   23558704.3914
 96  9 17 16 18 30.0010000  0  8 10  6 22 23 16 17 28 26
  23583972.705     3355760.43349   2595049.79349  23583971.7864   23583976.3074
  20503979.576      413060.42649    318305.49749  20503979.0514   20503983.0254
  24307834.559    -1156877.84249   -888759.70649  24307834.2864   24307839.8214
  23190691.308    -2748996.39449  -1955057.60649  23190689.7104   23190695.3924
  24494892.169     4001854.60149   2798567.52949  24494891.7394   24494897.2254
  21556683.017    -1259627.67049   -978487.92149  21556682.5794   21556686.9804
  23562377.281    -2048677.483 9  -1582230.985 9  23562376.266    23562380.996
  23546752.728    -1958987.65549  -1519079.19049  23546752.2234   23546757.9484
 96  9 17 16 19  0.0010000  0  8 10  6 22 23 16 17 28 26
  23603197.939     3456787.20349   2673771.91249  23603196.7574   23603202.7914
  20505711.744      422162.91649    325398.34049  20505711.4314   20505715.0534
  24296906.198    -1214307.10349   -933509.75749  24296902.8644   24296909.0304
  23174103.701    -2836163.57549  -2022980.06349  23174101.5334   23174107.0164
  24515382.191     4109531.07649   2882471.22849  24515382.0744   24515387.5294
  21548874.170    -1300664.71049  -1010464.83149  21548872.9264   21548877.7024
  23545624.671    -2136713.845 9  -1650830.722 9  23545624.913    23545627.966
  23534822.977    -2021677.97049  -1567928.75849  23534822.7014   23534828.5154
 96  9 17 16 19 30.0010000  0  8 10  6 22 23 16 17 28 26
  23622419.418     3557798.55049   2752482.01249  23622418.1304   23622423.8174
  20507483.257      431472.05849    332652.21549  20507482.5454   20507486.5094
  24286016.529    -1271532.85649   -978101.25749  24286016.2914   24286019.5404
  23157521.913    -2923300.03649  -2090878.57449  23157520.0424   23157526.9024
  24535858.282     4217133.45049   2966317.18649  24535858.3494   24535863.2704
  21541069.619    -1341677.03549  -1042422.47149  21541068.5494   21541073.2944
  23528843.712    -2224900.490 9  -1719547.602 9  23528841.932    23528846.831
  23522909.980    -2084281.61749  -1616710.78949  23522910.9284   23522914.8654
 96  9 17 16 20  0.0010000  0  8 10  6 22 23 16 17 28 26
  23641634.696     3658775.43349   2831165.24949  23641633.6584   23641639.3804
  20509295.983      440997.82349    340074.87949  20509295.9304   20509299.7754
  24275164.370    -1328561.55049  -1022539.18449  24275161.7054   24275169.8734
  23140944.949    -3010412.77749  -2158758.60349  23140944.3384   23140949.1194
  24556318.776     4324650.62549   3050096.76649  24556317.3254   24556323.3984
  21533264.585    -1382692.77749  -1074382.77649  21533263.0024   21533268.6404
  23512032.295    -2313243.811 9  -1788386.522 9  23512031.339    23512034.703
  23511014.949    -2146790.55949  -1665419.04049  23511014.5634   23511020.1144
 96  9 17 16 20 30.0010000  0  8 10  6 22 23 16 17 28 26
  23660839.372     3759695.49649   2909804.21249  23660838.6324   23660843.3854
  20511151.679      450748.56749    347672.85749  20511151.1964   20511154.6704
  24264347.686    -1385404.24949  -1066832.17049  24264347.5924   24264352.3214
  23124368.314    -3097523.64849  -2226637.18049  23124367.3144   23124372.7464
  24576761.543     4432076.52249   3133805.21749  24576759.8134   24576766.6514
  21525453.360    -1423741.03949  -1106368.43149  21525451.9704   21525456.9254
  23495190.512    -2401746.555 9  -1857349.676 9  23495189.269    23495193.832
  23499138.754    -2209201.49449  -1714050.90349  23499139.3044   23499142.9644
 96  9 17 16 21  0.0010000  0  8 10  6 22 23 16 17 28 26
  23680030.525     3860546.36249   2988389.27149  23680028.9474   23680034.5544
  20513044.844      460697.61649    355425.35849  20513043.6054   20513048.1364
  24253561.598    -1442085.99849  -1110999.79049  24253561.3294   24253565.7954
  23107784.905    -3184670.43349  -2294543.71249  23107782.5554   23107789.0204
  24597182.727     4539391.54849   3217427.29449  24597181.8254   24597188.3694
  21517629.525    -1464855.72449  -1138405.84549  21517628.5264   21517632.9684
  23478314.260    -2490431.661 9  -1926454.942 9  23478313.412    23478317.318
  23487274.687    -2271548.30149  -1762632.81849  23487274.6884   23487279.4774
 96  9 17 16 21 30.0010000  0  8 10  6 22 23 16 17 28 26
  23699209.570     3961332.48549   3066923.87349  23699207.3904   23699214.2234
  20514971.353      470821.99749    363314.47449  20514970.6114   20514974.5314
  24242805.521    -1498609.07949  -1155043.73549  24242804.2964   24242808.4944
  23091192.871    -3271862.53849  -2362485.58349  23091192.4304   23091197.5774
  24617580.993     4646586.71049   3300955.97849  24617581.1734   24617586.4784
  21509793.806    -1506033.07949  -1170492.08749  21509792.4614   21509797.0144
  23461402.140    -2579306.178 9  -1995707.796 9  23461400.560    23461405.021
  23475420.761    -2333841.41349  -1811172.89449  23475421.6744   23475425.4334
 96  9 17 16 22  0.0010000  0  8 10  6 22 23 16 17 28 26
  23718376.403     4062052.41449   3145406.89349  23718374.6514   23718380.1314
  20516928.505      481106.78649    371328.58149  20516927.9564   20516931.5364
  24232080.889    -1554968.12449  -1198959.83649  24232080.9594   24232085.7474
  23074591.158    -3359105.99249  -2430467.49349  23074591.0034   23074594.7584
  24637956.423     4753661.19149   3384390.55349  24637955.8184   24637961.0754
  21501948.869    -1547258.59049  -1202615.84949  21501947.9414   21501951.9374
  23444452.710    -2668373.857 9  -2065111.162 9  23444451.314    23444455.777
  23463576.178    -2396086.77949  -1859675.76249  23463575.1954   23463580.2654
 96  9 17 16 22 30.0010000  0  8 10  6 22 23 16 17 28 26
  23737528.042     4162696.02449   3223830.47949  23737525.9034   23737533.1404
  20518910.125      491519.94949    379442.73149  20518909.6744   20518913.6644
  24221383.648    -1611181.52949  -1242762.52549  24221384.3354   24221385.2434
  23057979.235    -3446402.60049  -2498490.78449  23057977.7044   23057983.1724
  24658307.004     4860602.05749   3467721.09249  24658304.9214   24658312.0934
  21494097.474    -1588518.19449  -1234766.18049  21494096.1974   21494100.7544
  23427464.160    -2757647.733 9  -2134675.188 9  23427464.054    23427468.238
  23451734.726    -2458313.61549  -1908164.20449  23451734.1124   23451737.7264
 96  9 17 16 23  0.0010000  0  8 10  6 22 23 16 17 28 26
  23756665.660     4263264.76249   3302195.71749  23756664.2644   23756669.2514
  20520915.230      502056.22549    387652.80049  20520914.9264   20520918.5114
  24210714.975    -1667245.59049  -1286448.77649  24210712.3534   24210719.7164
  23041360.676    -3533733.32149  -2566540.71049  23041358.9494   23041364.0004
  24678631.256     4967404.58949   3550943.74849  24678628.7214   24678636.1254
  21486243.603    -1629790.70649  -1266926.59349  21486242.1744   21486247.0014
  23410437.327    -2847126.302 9  -2204398.746 9  23410436.202    23410441.092
  23439897.443    -2520518.11849  -1956635.20849  23439897.4974   23439901.7344
 96  9 17 16 23 30.0010000  0  8 10  6 22 23 16 17 28 26
  23775790.631     4363767.69849   3380509.64549  23775789.4334   23775795.5304
  20522949.363      512745.21549    395981.88949  20522948.7484   20522952.4384
  24200078.611    -1723140.62049  -1330003.39349  24200077.7554   24200082.3944
  23024743.923    -3621055.37249  -2634583.84649  23024743.1924   23024746.0864
  24698930.313     5074077.88649   3634065.72449  24698929.0474   24698933.4284
  21478392.233    -1671049.82249  -1299076.48849  21478390.4004   21478396.2164
  23393377.026    -2936780.070 9  -2274258.782 9  23393376.542    23393381.238
  23428070.045    -2582672.20549  -2005066.97949  23428069.0354   23428074.1844
 96  9 17 16 24  0.0010000  0  8 10  6 22 23 16 17 28 26
  23794898.134     4464177.36649   3458750.90649  23794895.8964   23794900.7094
  20525010.299      523575.52549    404421.07949  20525009.7914   20525013.8294
  24189469.579    -1778889.86149  -1373444.33749  24189468.9094   24189472.2684
  23008125.942    -3708384.11849  -2702632.15749  23008125.4264   23008129.4334
  24719200.432     5180596.16349   3717066.95449  24719199.1554   24719204.7604
  21470537.793    -1712325.24749  -1331239.19049  21470536.7974   21470540.6854
  23376279.882    -3026625.980 9  -2344268.575 9  23376279.888    23376283.255
  23416246.769    -2644804.13649  -2053481.45749  23416246.3604   23416249.7964
 96  9 17 16 24 30.0010000  0  8 10  6 22 23 16 17 28 26
  23813981.892     4564462.74949   3536895.33549  23813979.9954   23813985.5444
  20527094.393      534527.20849    412954.83649  20527093.5294   20527097.6854
  24178881.735    -1834531.02149  -1416801.07249  24178879.6104   24178887.2064
  22991501.862    -3795744.98749  -2770705.57949  22991501.8144   22991506.3374
  24739434.197     5286925.45149   3799920.85349  24739432.8374   24739439.1224
  21462671.315    -1753664.03949  -1363451.20949  21462670.1234   21462674.8704
  23359142.000    -3116686.658 9  -2414445.700 9  23359141.263    23359146.845
  23404423.101    -2706938.31149  -2101897.69749  23404422.9654   23404426.9584
 96  9 17 16 25  0.0010000  0  8 10  6 22 23 16 17 28 26
  23833030.471     4664564.55349   3614896.68649  23833028.9874   23833034.0894
  20529191.750      545549.09649    421543.32349  20529191.3274   20529195.2434
  24168306.366    -1890105.88749  -1460106.14349  24168305.5404   24168309.7434
  22974860.606    -3883196.51649  -2838849.58649  22974859.0764   22974863.7584
  24759620.988     5393008.41349   3882582.86749  24759621.6414   24759626.2364
  21454777.914    -1795144.39049  -1395773.57949  21454776.3174   21454781.5454
  23341953.609    -3207012.238 9  -2484829.283 9  23341952.543    23341957.499
  23392590.226    -2769121.73749  -2150352.25749  23392590.3674   23392593.5234
 96  9 17 16 25 30.0010000  0  8 10  6 22 23 16 17 28 26
  23852043.834     4764478.65749   3692751.83149  23852042.0354   23852047.6724
  20531299.562      556625.19449    430174.03849  20531299.1374   20531302.6194
  24157742.600    -1945618.71049  -1503362.85049  24157741.2744   24157745.1564
  22958197.157    -3970762.60749  -2907082.87649  22958195.7124   22958200.7964
  24779760.173     5498842.04249   3965050.56349  24779760.5594   24779765.2974
  21446853.407    -1836787.32349  -1428222.60949  21446851.9934   21446856.5814
  23324713.705    -3297608.953 9  -2555424.101 9  23324712.468    23324717.735
  23380747.016    -2831357.82249  -2198847.92749  23380746.3164   23380750.3004
 96  9 17 16 26  0.0010000  0  8 10  6 22 23 16 17 28 26
  23871018.710     4864192.33249   3770450.75749  23871016.9794   23871022.8444
  20533412.961      567730.83349    438827.77749  20533412.2844   20533415.7434
  24147186.623    -2001089.31949  -1546586.73749  24147185.4014   24147190.4384
  22941506.074    -4058473.18049  -2975428.74349  22941504.7674   22941509.4844
  24799848.620     5604407.80349   4047309.55649  24799847.5234   24799854.4444
  21438893.589    -1878616.86249  -1460817.06449  21438892.2344   21438896.8764
  23307418.120    -3388497.839 9  -2626246.574 9  23307416.931    23307421.735
  23368891.107    -2893660.29549  -2247395.29949  23368890.6044   23368895.8434
 96  9 17 16 26 30.0010000  0  8 10  6 22 23 16 17 28 26
  23889961.305     4963737.16349   3848018.14249  23889960.7444   23889965.9064
  20535543.111      578924.55749    447550.14949  20535542.5804   20535546.3454
  24136647.745    -2056472.04949  -1589742.17049  24136647.3374   24136651.1444
  22924794.839    -4146290.60649  -3043857.92449  22924794.1554   22924798.5494
  24819891.868     5709737.68949   4129384.72649  24819891.2274   24819897.7064
  21430908.347    -1920579.61549  -1493515.30149  21430907.1724   21430911.6314
  23290075.274    -3479634.118 9  -2697261.855 9  23290075.107    23290078.591
  23357033.885    -2955970.24649  -2295948.48249  23357033.6024   23357038.7944
 96  9 17 16 27  0.0010000  0  8 10  6 22 23 16 17 28 26
  23908888.442     5063200.41649   3925521.95949  23908887.9914   23908893.4504
  20537709.287      590307.99249    456420.34749  20537708.6404   20537713.2774
  24126146.758    -2111656.30949  -1632742.81649  24126144.6784   24126150.4134
  22908081.405    -4234120.25949  -3112296.59149  22908079.7964   22908084.3284
  24839907.969     5814920.85549   4211345.57149  24839906.9604   24839914.4244
  21422919.922    -1962559.38349  -1526226.81949  21422919.5614   21422924.2594
  23272704.543    -3570918.240 9  -2768392.296 9  23272703.902    23272709.685
  23345196.732    -3018174.85449  -2344419.59049  23345196.2674   23345201.7504
 96  9 17 16 27 30.0010000  0  8 10  6 22 23 16 17 28 26
  23927791.443     5162537.10949   4002927.13049  23927791.3154   23927796.5914
  20539906.154      601853.23949    465416.63149  20539905.8194   20539910.3154
  24115673.207    -2166694.66749  -1675629.87749  24115671.5484   24115676.6814
  22891358.209    -4322000.85349  -3180774.94449  22891357.0434   22891361.0134
  24859884.101     5919893.94449   4293142.75549  24859883.8414   24859888.6064
  21414922.073    -2004588.81649  -1558977.02149  21414921.0094   21414926.4504
  23255297.672    -3662392.294 9  -2839670.775 9  23255296.753    23255300.802
  23333372.550    -3080311.48149  -2392837.72249  23333372.7824   23333378.3804
 96  9 17 16 28  0.0010000  0  8 10  6 22 23 16 17 28 26
  23946687.096     5261832.48049   4080300.09749  23946685.6444   23946690.9524
  20542156.912      613680.25449    474632.46849  20542156.7814   20542161.0574
  24105245.631    -2221491.50049  -1718328.67149  24105245.2164   24105251.0314
  22874648.055    -4409813.46549  -3249200.33649  22874647.5114   22874653.2654
  24879837.246     6024748.07349   4374847.25249  24879837.8774   24879842.8404
  21406935.055    -2046560.84149  -1591682.49549  21406933.9384   21406939.8364
  23237873.829    -3753955.434 9  -2911018.692 9  23237873.475    23237877.510
  23321580.446    -3142281.07849  -2441125.71449  23321581.4954   23321585.7174
 96  9 17 16 28 30.0010000  0  8 10  6 22 23 16 17 28 26
  23965547.951     5360946.71349   4157531.91349  23965547.3574   23965553.4734
  20544434.444      625647.87249    483957.88549  20544433.2254   20544438.4224
  24094839.170    -2276178.95449  -1760942.27849  24094837.8914   24094842.0644
  22857925.465    -4497691.65149  -3317676.81449  22857924.0984   22857931.6044
  24899743.955     6129355.50349   4456359.46849  24899743.1674   24899750.0814
  21398932.782    -2088612.98249  -1624450.38549  21398931.5784   21398936.9034
  23220407.277    -3845743.408 9  -2982541.747 9  23220406.787    23220411.426
  23309795.563    -3204212.09649  -2489383.62949  23309794.0454   23309800.4204
 96  9 17 16 29  0.0010000  0  8 10  6 22 23 16 17 28 26
  23984415.747     5460096.73549   4234791.62649  23984414.4354   23984419.8584
  20546774.529      637945.58749    493540.50349  20546774.4844   20546778.6164
  24084492.572    -2330550.92649  -1803310.06849  24084490.7344   24084497.9454
  22841230.110    -4585425.93549  -3386041.17549  22841229.7964   22841234.9964
  24919644.600     6233932.95849   4537848.29949  24919642.8504   24919650.7634
  21390949.880    -2130563.84549  -1657139.37149  21390949.0344   21390954.0324
  23202935.953    -3937554.877 9  -3054083.144 9  23202935.152    23202939.537
  23298055.253    -3265907.52249  -2537457.96249  23298054.7424   23298060.4644
 96  9 17 16 29 30.0010000  0  8 10  6 22 23 16 17 28 26
  24003277.869     5559217.94949   4312028.87749  24003277.2874   24003282.5474
  20549164.426      650504.00049    503326.26449  20549163.7704   20549168.3364
  24074192.060    -2384680.48449  -1845488.90149  24074191.0644   24074196.7214
  22824549.253    -4673083.81049  -3454345.98949  22824548.8944   22824553.9184
  24939528.892     6338426.23649   4619271.61149  24939527.8444   24939535.4354
  21382970.878    -2172493.24649  -1689811.62349  21382969.8484   21382975.6654
  23185446.989    -4029457.961 9  -3125695.880 9  23185446.639    23185451.452
  23286344.620    -3327448.11649  -2585411.65049  23286343.4704   23286350.2674
 96  9 17 16 30  0.0010000  0  8 10  6 22 23 16 17 28 26
  24022116.989     5658216.57049   4389170.59749  24022116.0054   24022122.2894
  20551583.818      663217.97849    513233.25149  20551583.4254   20551588.1104
  24063921.348    -2438653.70749  -1887545.97949  24063919.4254   24063924.5824
  22807864.660    -4760762.17349  -3522666.78649  22807863.5254   22807870.0724
  24959384.620     6442770.23149   4700578.56049  24959383.6984   24959390.7784
  21374977.813    -2214497.29949  -1722542.05249  21374977.1714   21374982.6804
  23167923.665    -4121544.242 9  -3197451.427 9  23167923.260    23167928.066
  23274645.480    -3388925.80349  -2633316.34649  23274645.9884   23274651.5004
 96  9 17 16 30 30.0010000  0  8 10  6 22 23 16 17 28 26
  24040931.483     5757087.98649   4466213.20749  24040930.3804   24040936.5834
  20554027.692      676060.48049    523240.37749  20554027.1834   20554031.8364
  24053680.071    -2492471.59849  -1929481.97949  24053679.4744   24053684.5914
  22791171.344    -4848485.71149  -3591022.76949  22791171.2004   22791176.3404
  24979209.602     6546953.17549   4781760.02749  24979209.1534   24979216.1334
  21366967.838    -2256590.22049  -1755341.71449  21366966.5974   21366972.1804
  23150363.424    -4213824.278 9  -3269357.919 9  23150363.397    23150367.020
  23262957.169    -3450348.57049  -2681178.21749  23262957.3204   23262963.0784
 96  9 17 16 31  0.0010000  0  8 10  6 22 23 16 17 28 26
  24059783.030     5856152.49649   4543406.26249  24059782.2894   24059788.1544
  20556557.563      689354.64049    533599.44849  20556556.8024   20556561.4144
  24043532.239    -2545799.81949  -1971036.43549  24043530.6004   24043535.6274
  22774531.591    -4935928.63649  -3659160.07649  22774529.6914   22774536.6144
  24999061.491     6651274.32949   4863049.17349  24999060.8104   24999068.7524
  21359004.449    -2298437.61049  -1787950.07749  21359003.7494   21359009.1694
  23132828.690    -4305970.556 9  -3341160.207 9  23132828.056    23132832.584
  23251339.424    -3511400.55249  -2728751.16149  23251339.6724   23251343.6474
 96  9 17 16 31 30.0010000  0  8 10  6 22 23 16 17 28 26
  24078634.674     5955218.38849   4620600.41849  24078633.4794   24078638.8704
  20559138.078      702915.26549    544166.15849  20559137.3554   20559141.7464
  24033442.067    -2598823.54749  -2012353.59649  24033440.8454   24033445.4954
  22757910.009    -5023276.23249  -3727223.09249  22757909.3174   22757915.1134
  25018900.156     6755525.07749   4944283.45049  25018899.5464   25018906.0624
  21351057.540    -2340199.07549  -1820491.47149  21351056.6114   21351061.1484
  23115285.159    -4398160.831 9  -3412996.734 9  23115283.632    23115289.341
  23239758.895    -3572257.06249  -2776171.79649  23239758.8404   23239763.1354
 96  9 17 16 32  0.0010000  0  7 10  6 22 23 17 28 26
  24097508.911     6054402.23449   4697886.45149  24097507.5434   24097514.4594
  20561791.227      716857.85349    555030.49549  20561790.6694   20561795.0664
  24023433.288    -2651419.84449  -2053337.70949  24023431.9144   24023437.7404
  22741332.295    -5110392.92249  -3795106.21549  22741330.8544   22741336.5704
  21343150.474    -2381751.38349  -1852869.87649  21343149.4654   21343154.7024
  23097756.953    -4490271.316 9  -3484771.149 9  23097756.596    23097760.215
  23228242.107    -3632778.44349  -2823331.29849  23228242.4324   23228247.4304
 96  9 17 16 32 30.0010000  0  7 10  6 22 23 17 28 26
  24116392.165     6153634.08449   4775209.94049  24116390.0914   24116396.7834
  20564507.150      731129.85149    566151.51649  20564506.8484   20564511.1934
  24013492.944    -2703656.84549  -2094041.88449  24013490.6764   24013498.0244
  22724788.249    -5197332.20849  -3862851.11249  22724787.6474   22724792.8284
  21335271.444    -2423155.65549  -1885132.94749  21335270.5304   21335275.7984
  23080232.796    -4582361.386 9  -3556529.603 9  23080232.557    23080236.478
  23216777.912    -3693022.13549  -2870274.40649  23216777.0504   23216782.9194
 96  9 17 16 33  0.0010000  0  7 10  6 22 23 17 28 26
  24135266.134     6252816.95049   4852495.25449  24135264.1544   24135269.3464
  20567274.570      745672.35949    577483.33849  20567274.0524   20567278.3254
  24003604.962    -2755616.89349  -2134530.18849  24003603.6414   24003608.9814
  22708266.743    -5284153.01849  -3930503.66349  22708267.0444   22708270.9114
  21327405.675    -2464491.02149  -1917342.30049  21327404.6054   21327409.0434
  23062699.151    -4674502.371 9  -3628327.740 9  23062697.966    23062702.366
  23205351.884    -3753066.20849  -2917061.96449  23205351.8694   23205357.0684
 96  9 17 16 33 30.0010000  0  7 10  6 22 23 17 28 26
  24154114.777     6351866.20149   4929676.49349  24154113.6954   24154118.9074
  20570083.052      760430.93349    588983.51449  20570082.2684   20570086.6464
  23993754.778    -2807380.52749  -2174865.47349  23993753.3304   23993757.8494
  22691757.707    -5370909.57149  -3998106.14849  22691757.1734   22691762.7594
  21319537.667    -2505837.80549  -1949560.56549  21319536.5524   21319541.8264
  23045143.070    -4766761.766 9  -3700218.212 9  23045142.450    23045145.421
  23193953.320    -3812965.82749  -2963736.97649  23193952.3514   23193957.3214
 96  9 17 16 34  0.0010000  0  7 10  6 22 23 17 28 26
  24172974.160     6450974.52049   5006903.73649  24172973.5194   24172978.4494
  20572970.973      775607.52749    600809.41849  20572970.1694   20572974.6814
  23983980.406    -2858744.93049  -2214889.70649  23983979.2274   23983984.2614
  22675299.401    -5457398.74849  -4065500.29449  22675298.0884   22675304.0834
  21311702.302    -2547013.05349  -1981645.16449  21311700.8174   21311706.0784
  23027602.056    -4858940.055 9  -3772045.391 9  23027601.173    23027605.403
  23182619.272    -3872526.19449  -3010147.62449  23182618.1274   23182623.2214
 96  9 17 16 34 30.0010000  0  7 10  6 22 23 17 28 26
  24191824.071     6550031.07049   5084090.61549  24191822.4904   24191827.3244
  20575917.120      791089.82849    612873.53749  20575916.2304   20575921.2864
  23974261.234    -2909820.06749  -2254688.51849  23974259.5354   23974264.8804
  22658867.732    -5543747.54249  -4132785.03749  22658865.8044   22658872.1774
  21303879.521    -2588122.10149  -2013678.19049  21303878.2724   21303883.6804
  23010055.885    -4951146.534 9  -3843894.586 9  23010055.220    23010058.985
  23171326.612    -3931869.67749  -3056389.27749  23171325.8754   23171331.0754
 96  9 17 16 35  0.0010000  0  7 10  6 22 23 17 28 26
  24210653.094     6648977.30949   5161191.53649  24210652.0944   24210657.9284
  20578907.685      806805.54049    625119.54049  20578907.3794   20578911.6014
  23964586.590    -2960660.81149  -2294304.67849  23964585.4434   23964589.5134
  22642450.407    -5630021.49149  -4200011.48949  22642449.7984   22642455.1094
  21296058.074    -2629224.66949  -2045706.15749  21296056.9574   21296062.0554
  22992491.903    -5043444.536 9  -3915815.098 9  22992491.100    22992496.110
  23160062.606    -3991061.02049  -3102512.37149  23160061.7434   23160066.3974
 96  9 17 16 35 30.0010000  0  7 10  6 22 23 17 28 26
  24229462.015     6747818.51349   5238210.62049  24229460.3244   24229466.5054
  20581936.652      822721.88949    637521.87749  20581936.2424   20581940.2764
  23954953.569    -3011283.32649  -2333750.76949  23954953.3514   23954955.1584
  22626041.337    -5716250.65249  -4267203.03149  22626040.3584   22626045.3374
  21288234.512    -2670337.99949  -2077742.50849  21288233.3034   21288238.0904
  22974907.499    -5135851.082 9  -3987820.187 9  22974906.983    22974912.580
  23148826.790    -4050104.95049  -3148520.62449  23148826.1214   23148831.8644
 96  9 17 16 36  0.0010000  0  7 10  6 22 23 17 28 26
  24248248.800     6846543.52849   5315139.16849  24248247.2084   24248252.1144
  20584997.478      838806.17549    650055.08349  20584996.5234   20585000.8864
  23945358.145    -3061706.89549  -2373041.84049  23945356.6054   23945362.7004
  22609633.557    -5802474.11449  -4334390.11049  22609632.2974   22609638.3134
  21280404.473    -2711484.95849  -2109805.05649  21280403.2934   21280407.9824
  22957298.332    -5228388.895 9  -4059927.564 9  22957297.923    22957301.652
  23137613.490    -4109030.78849  -3194436.81349  23137613.3144   23137619.2484
 96  9 17 16 36 30.0010000  0  7 10  6 22 23 17 28 26
  24267009.471     6945131.49749   5391960.92149  24267006.0014   24267015.0504
  20588089.834      855056.74349    662717.86049  20588089.0934   20588093.5944
  23935798.767    -3111940.99949  -2412185.29749  23935796.1934   23935801.5664
  22593224.929    -5888702.94549  -4401581.39949  22593223.8174   22593228.9744
  21272566.481    -2752673.91749  -2141900.35549  21272565.2504   21272570.1184
  22939661.651    -5321071.953 9  -4132148.117 9  22939660.503    22939665.339
  23126421.821    -4167843.60349  -3240264.97449  23126421.3724   23126426.8274
 96  9 17 16 37  0.0010000  0  7 10  6 22 23 17 28 26
  24285742.209     7043572.70249   5468668.33249  24285742.1914   24285747.9484
  20591216.320      871486.26549    675520.05649  20591215.9284   20591220.2124
  23926277.317    -3161977.47149  -2451174.76049  23926275.8044   23926281.7454
  22576816.506    -5974929.81149  -4468771.12049  22576814.4374   22576820.1524
  21264717.117    -2793922.69249  -2174042.24949  21264715.7244   21264720.9264
  22921996.122    -5413903.994 9  -4204484.757 9  22921995.443    22921999.930
  23115252.469    -4226540.04649  -3286002.42849  23115252.1244   23115256.6484
 96  9 17 16 37 30.0010000  0  7 10  6 22 23 17 28 26
  24304425.182     7141749.55849   5545169.73249  24304424.4474   24304427.8854
  20594355.211      887980.88149    688372.99249  20594354.9054   20594358.8324
  23916772.864    -3211924.23449  -2490094.30049  23916771.1844   23916776.8404
  22560386.136    -6061271.49649  -4536050.32749  22560385.0604   22560390.9134
  21256832.588    -2835356.41049  -2206328.26049  21256831.3624   21256836.0344
  22904281.160    -5506995.664 9  -4277023.725 9  22904280.227    22904285.514
  23104083.953    -4285231.20849  -3331735.78349  23104083.2064   23104088.8094
 96  9 17 16 38  0.0010000  0  7 10  6 22 23 17 28 26
  24323042.696     7239586.47449   5621406.29949  24323040.5694   24323047.9454
  20597494.739      904478.67149    701228.39949  20597494.0024   20597498.2934
  23907275.172    -3261834.33649  -2528985.30749  23907274.0594   23907278.3624
  22543925.283    -6147773.90649  -4603454.81049  22543924.0564   22543929.8984
  21248902.732    -2877027.24949  -2238799.04149  21248901.6414   21248906.6244
  22886506.666    -5600401.456 9  -4349807.433 9  22886506.641    22886510.876
  23092903.953    -4343982.74649  -3377516.18049  23092903.4064   23092908.2704
 96  9 17 16 38 30.0010000  0  7 10  6 22 23 17 28 26
  24341602.750     7337121.46849   5697407.53149  24341601.5004   24341607.3934
  20600642.818      921021.97849    714119.26049  20600642.2124   20600646.4874
  23897793.380    -3311661.58649  -2567811.71949  23897791.7734   23897797.7304
  22527442.465    -6234391.07049  -4670948.70049  22527440.5374   22527446.5124
  21240938.035    -2918881.75149  -2271412.95149  21240936.5764   21240941.9934
  22868681.094    -5694075.401 9  -4422800.104 9  22868680.832    22868685.389
  23081720.148    -4402754.39349  -3423312.25449  23081720.1284   23081725.8264
 96  9 17 16 39  0.0010000  0  7 10  6 22 23 17 28 26
  24360110.705     7434379.03549   5773192.58749  24360109.5474   24360114.8994
  20603799.607      937610.70249    727045.52149  20603799.0574   20603803.0364
  23888329.166    -3361396.98749  -2606566.60449  23888329.0644   23888333.7244
  22510941.472    -6321104.29949  -4738517.44049  22510940.5304   22510945.7154
  21232943.855    -2960890.94849  -2304147.38849  21232942.6704   21232947.9984
  22850809.769    -5787989.915 9  -4495980.232 9  22850809.154    22850813.896
  23070537.072    -4461522.24949  -3469105.35949  23070536.8504   23070541.7194
 96  9 17 16 39 30.0010000  0  7 10  6 22 23 17 28 26
  24378570.143     7531385.23049   5848781.76049  24378567.7394   24378575.0184
  20606966.749      954254.15749    740014.43149  20606966.2144   20606970.2374
  23878884.293    -3411030.71449  -2645242.17949  23878884.1034   23878887.9704
  22494427.526    -6407885.56649  -4806139.17949  22494425.9534   22494431.6154
  21224928.235    -3003012.97849  -2336969.74949  21224927.2694   21224932.2164
  22832899.094    -5882111.069 9  -4569321.378 9  22832899.433    22832902.366
  23059360.438    -4520254.98149  -3514871.09849  23059359.9574   23059364.4554
 96  9 17 16 40  0.0010000  0  7 10  6 22 23 17 28 26
  24396990.012     7628181.57049   5924207.41949  24396986.8374   24396994.7834
  20610156.722      971017.55749    753076.80249  20610156.3964   20610160.2934
  23869465.806    -3460525.24049  -2683809.37349  23869464.0244   23869469.7474
  22477910.424    -6494683.27049  -4873773.73449  22477909.2174   22477914.7004
  21216904.424    -3045178.34249  -2369825.87749  21216903.6834   21216908.3884
  22814958.835    -5976388.218 9  -4642784.067 9  22814958.533    22814963.179
  23048201.433    -4578896.56049  -3560565.80649  23048200.6034   23048204.9854
 96  9 17 16 40 30.0010000  0  7 10  6 22 23 17 28 26
  24415375.785     7724799.09749   5999493.68849  24415374.1884   24415382.4064
  20613378.200      987946.12049    766267.87749  20613377.3964   20613381.3944
  23860078.318    -3509857.01049  -2722249.75149  23860078.1824   23860081.7414
  22461393.343    -6581480.84249  -4941408.19849  22461391.2524   22461397.2524
  21208876.014    -3087368.25449  -2402701.13449  21208874.7924   21208879.8744
  22796994.196    -6070793.779 9  -4716346.844 9  22796992.600    22796997.891
  23037066.894    -4637408.98649  -3606159.88749  23037065.7414   23037071.1654
 96  9 17 16 41  0.0010000  0  7 10  6 22 23 17 28 26
  24433732.567     7821267.33949   6074663.68849  24433730.7804   24433737.5244
  20616638.741     1005079.81049    779618.78749  20616638.0584   20616641.8604
  23850729.232    -3558987.10449  -2760532.91749  23850727.5354   23850730.0204
  22444884.546    -6668234.24449  -5009008.22349  22444883.5104   22444888.4554
  21200846.074    -3129566.15249  -2435582.61849  21200844.8804   21200849.8554
  22779011.645    -6165292.707 9  -4789982.356 9  22779010.329    22779015.587
  23025965.611    -4695745.71149  -3651617.03649  23025965.0564   23025969.8884
 96  9 17 16 41 30.0010000  0  7 10  6 22 23 17 28 26
  24452061.733     7917586.66749   6149717.64049  24452060.1214   24452067.2584
  20619944.095     1022449.06449    793153.25249  20619943.4504   20619947.3404
  23841422.051    -3607895.82849  -2798643.59549  23841420.2684   23841425.3504
  22428386.270    -6754933.40449  -5076566.00549  22428385.4824   22428390.4044
  21192813.155    -3171779.37449  -2468476.04649  21192811.7924   21192817.1334
  22761012.190    -6259880.921 9  -4863687.441 9  22761011.959    22761014.487
  23014898.950    -4753902.10449  -3696933.67049  23014897.3184   23014904.3004
 96  9 17 16 42  0.0010000  0  7 10  6 22 23 17 28 26
  24470359.844     8013743.46649   6224644.95749  24470358.9434   24470365.4854
  20623295.433     1040060.84549    806876.69949  20623294.8904   20623299.0344
  23832158.699    -3656574.32949  -2836574.88849  23832157.1014   23832162.7744
  22411898.284    -6841578.85549  -5144081.92949  22411898.0364   22411902.4234
  21184774.512    -3214022.49849  -2501392.76349  21184773.5464   21184779.0014
  22742994.268    -6354565.634 9  -4937467.741 9  22742993.833    22742997.702
  23003865.365    -4811881.95049  -3742112.74749  23003864.5664   23003871.3694
 96  9 17 16 42 30.0010000  0  7 10  6 22 23 17 28 26
  24488630.965     8109757.40849   6299460.93449  24488629.9144   24488635.2344
  20626695.000     1057925.15549    820796.93149  20626694.4774   20626698.4934
  23822944.938    -3704993.20649  -2874303.92449  23822942.2604   23822948.7274
  22395426.526    -6928138.92249  -5211531.32149  22395425.5204   22395431.3034
  21176730.563    -3256294.03349  -2534331.63049  21176729.2154   21176734.2844
  22724962.368    -6449323.914 9  -5011305.332 9  22724961.377    22724965.495
  22992870.638    -4869660.67449  -3787135.10149  22992870.3974   22992874.8704
 96  9 17 16 43  0.0010000  0  7 10  6 22 23 17 28 26
  24506875.128     8205632.08749   6374168.45949  24506872.8254   24506879.6554
  20630144.665     1076053.24849    834922.70649  20630143.9194   20630147.9994
  23813786.236    -3753123.30349  -2911807.88849  23813784.8904   23813789.7854
  22378976.440    -7014584.99549  -5278891.89549  22378974.5884   22378981.3994
  21168684.829    -3298574.37049  -2567277.34449  21168683.8054   21168689.2174
  22706920.749    -6544134.829 9  -5085183.967 9  22706919.357    22706923.352
  22981917.346    -4927219.71549  -3831986.26849  22981917.0004   22981922.4814
 96  9 17 16 43 30.0010000  0  7 10  6 22 23 17 28 26
  24525095.644     8301381.58849   6448778.42449  24525093.7914   24525100.2504
  20633645.801     1094452.49849    849259.77549  20633644.8654   20633649.3094
  23804684.808    -3800951.66649  -2949076.70649  23804683.4314   23804688.3144
  22362549.944    -7100906.17449  -5346155.13349  22362548.5404   22362553.5704
  21160642.640    -3340836.84849  -2600209.14249  21160641.4834   21160646.4194
  22688872.146    -6638980.136 9  -5159089.393 9  22688871.101    22688875.047
  22971008.066    -4984549.08349  -3876658.48849  22971007.7024   22971012.6894
 96  9 17 16 44  0.0010000  0  7 10  6 22 23 17 28 26
  24543306.569     8397082.77549   6523350.71049  24543304.8344   24543311.6684
  20637210.109     1113183.11849    863855.05149  20637209.7574   20637213.0404
  23795653.925    -3848409.49949  -2986056.87749  23795652.9324   23795656.4244
  22346162.509    -7187022.71249  -5413258.91249  22346161.4644   22346166.8714
  21152618.646    -3383003.18849  -2633066.03849  21152617.4784   21152622.4224
  22670832.220    -6733780.894 9  -5232960.123 9  22670831.030    22670834.952
  22960157.008    -5041571.11149  -3921091.20449  22960157.0444   22960160.9224
 96  9 17 16 44 30.0000000  0  7 10  6 22 23 17 28 26
  24561511.271     8492749.95049   6597896.51849  24561510.0604   24561517.4134
  20640838.234     1132248.20449    878710.95149  20640837.5164   20640841.2364
  23786695.867    -3895485.20549  -3022739.21349  23786694.6844   23786699.4664
  22329814.889    -7272929.54649  -5480199.28349  22329814.1114   22329819.5724
  21144614.975    -3425062.37949  -2665839.43849  21144614.0984   21144618.9694
  22652804.055    -6828519.164 9  -5306782.144 9  22652803.041    22652807.681
  22949365.654    -5098280.46249  -3965280.28649  22949365.4454   22949370.7174
 96  9 17 16 45  0.0000000  0  7 10  6 22 23 17 28 26
  24579676.308     8588205.52249   6672277.45349  24579674.7254   24579679.0594
  20644493.577     1151457.18549    893678.97549  20644492.8254   20644496.7084
  23777773.769    -3942371.43849  -3059273.92849  23777771.6914   23777775.6614
  22313469.741    -7358825.19949  -5547130.95749  22313468.6474   22313474.1774
  21136598.063    -3467191.08949  -2698666.99849  21136597.2584   21136602.7054
  22634751.593    -6923385.093 9  -5380703.628 9  22634750.139    22634754.600
  22938595.754    -5154876.87249  -4009381.35349  22938595.6414   22938600.3444
 96  9 17 16 45 30.0000000  0  7 10  6 22 23 17 28 26
  24597819.682     8683549.79849   6746571.64249  24597818.7344   24597824.5514
  20648193.158     1170898.48549    908828.03249  20648192.4744   20648196.6554
  23768902.216    -3988990.80149  -3095600.70649  23768898.5844   23768905.2254
  22297144.724    -7444613.53249  -5613978.96249  22297144.7384   22297149.2404
  21128587.663    -3509286.31449  -2731468.47649  21128586.9544   21128591.5064
  22616693.312    -7018281.788 9  -5454649.105 9  22616692.230    22616695.923
  22927866.116    -5211261.83449  -4053317.67449  22927865.6794   22927870.4154
 96  9 17 16 46  0.0000000  0  7 10  6 22 23 17 28 26
  24615955.340     8778853.23049   6820833.99549  24615954.3794   24615962.0374
  20651950.709     1190644.46149    924214.49549  20651949.9534   20651954.0304
  23760096.188    -4035266.37449  -3131659.61849  23760094.5794   23760100.7974
  22280855.332    -7530216.29449  -5680682.41449  22280853.7464   22280859.5534
  21120598.310    -3551272.18649  -2764184.74049  21120597.2754   21120602.2864
  22598643.925    -7113131.994 9  -5528558.343 9  22598643.165    22598647.047
  22917193.558    -5267346.29549  -4097019.83949  22917193.7274   22917198.8284
 96  9 17 16 46 30.0000000  0  7 10  6 22 23 17 28 26
  24634088.131     8874142.06149   6895084.95749  24634087.6564   24634094.0964
  20655769.993     1210714.81949    939853.72849  20655769.0994   20655773.5234
  23751362.337    -4081163.80349  -3167423.86849  23751362.0144   23751365.2744
  22264604.576    -7615614.18949  -5747226.21249  22264602.8364   22264608.5484
  21112635.387    -3593117.95649  -2796791.82849  21112634.3074   21112639.2684
  22580609.107    -7207905.611 9  -5602407.914 9  22580609.000    22580612.345
  22906585.375    -5323091.96449  -4140458.00149  22906585.0614   22906591.0704
 96  9 17 16 47  0.0000000  0  7 10  6 22 23 17 28 26
  24652216.143     8969403.67649   6969314.69749  24652216.0764   24652220.8594
  20659649.377     1231100.92449    955738.98649  20659648.3834   20659652.7894
  23742698.582    -4126693.50249  -3202901.55649  23742696.8134   23742701.2444
  22248394.409    -7700798.84749  -5813603.84849  22248392.7584   22248398.6224
  21104700.195    -3634818.32949  -2829285.63249  21104699.3114   21104704.2604
  22562588.410    -7302605.484 9  -5676200.012 9  22562587.756    22562590.490
  22896043.960    -5378487.37849  -4183623.25149  22896044.1184   22896048.1494
 96  9 17 16 47 30.0000000  0  7 10  6 22 23 17 28 26
  24670341.027     9064649.45149   7043532.14249  24670339.0404   24670347.2004
  20663590.125     1251810.45449    971876.26949  20663589.1254   20663593.7084
  23734108.377    -4171835.66949  -3238077.22649  23734107.6694   23734109.9674
  22232227.208    -7785757.51749  -5879805.38649  22232226.0004   22232231.1574
  21096793.486    -3676368.43649  -2861662.33949  21096792.3454   21096797.2074
  22544583.916    -7397219.855 9  -5749925.494 9  22544582.970    22544587.139
  22885573.047    -5433511.96949  -4226499.55049  22885572.7884   22885577.7524
 96  9 17 16 48  0.0000000  0  7 10  6 22 23 17 28 26
  24688457.745     9159853.49749   7117717.05649  24688455.3784   24688461.5724
  20667590.664     1272833.97549    988258.22149  20667589.8254   20667594.1034
  23725590.322    -4216598.57549  -3272957.41249  23725589.3364   23725593.2844
  22216098.950    -7870512.62449  -5945848.30849  22216097.1964   22216102.7634
  21088909.458    -3717799.99949  -2893946.67949  21088908.5524   21088912.7384
  22526592.386    -7491765.416 9  -5823597.353 9  22526591.555    22526594.958
  22875166.958    -5488197.15949  -4269111.38449  22875167.1114   22875170.7364
 96  9 17 16 48 30.0000000  0  7 10  6 22 23 17 28 26
  24706562.025     9254992.09549   7191850.93849  24706561.6134   24706566.9524
  20671650.867     1294170.02649   1004883.69549  20671649.8854   20671654.2314
  23717138.800    -4261010.55749  -3307564.16749  23717137.8574   23717142.8724
  22200003.936    -7955091.46549  -6011753.87049  22200003.7974   22200007.8484
  21081040.756    -3759150.47149  -2926167.83249  21081039.3904   21081043.8584
  22508608.986    -7586267.781 9  -5897235.554 9  22508607.755    22508611.765
  22864817.028    -5542586.70049  -4311492.83549  22864817.0474   22864822.0304
 96  9 17 16 49  0.0000000  0  7 10  6 22 23 17 28 26
  24724654.540     9350071.94449   7265939.06549  24724654.3584   24724661.8684
  20675776.927     1315852.63049   1021779.21649  20675776.3184   20675780.4954
  23708755.679    -4305063.85849  -3341891.39049  23708753.5914   23708756.4134
  22183945.759    -8039478.17949  -6077509.75449  22183944.8754   22183950.1884
  21073188.517    -3800413.75449  -2958321.02949  21073187.1064   21073191.8984
  22490636.518    -7680713.698 9  -5970829.759 9  22490636.097    22490639.269
  22854523.696    -5596679.37449  -4353642.97049  22854522.7734   22854528.0854
 96  9 17 16 49 30.0000000  0  7 10  6 22 23 17 28 26
  24742740.545     9445112.38849   7339996.49549  24742737.3294   24742747.7854
  20679975.969     1337919.11549   1038973.86349  20679975.3614   20679979.7484
  23700445.273    -4348735.85849  -3375921.47949  23700444.6944   23700450.1694
  22167925.776    -8123663.72349  -6143108.84749  22167924.2354   22167930.6674
  21065354.834    -3841580.66149  -2990399.14549  21065353.7694   21065358.3054
  22472678.941    -7775081.747 9  -6044363.306 9  22472678.588    22472682.251
  22844289.727    -5650459.37049  -4395549.45149  22844289.2684   22844294.7954
 96  9 17 16 50  0.0000000  0  7 10  6 22 23 17 28 26
  24760819.715     9540119.06749   7414027.65149  24760815.2944   24760822.1994
  20684255.273     1360406.87349   1056496.77949  20684254.8684   20684258.8354
  23692208.201    -4392021.23849  -3409650.35049  23692207.7164   23692213.1724
  22151947.025    -8207631.88449  -6208538.57349  22151945.5374   22151950.4934
  21057543.261    -3882630.34849  -3022385.91449  21057541.9574   21057546.7604
  22454740.348    -7869350.237 9  -6117819.258 9  22454740.087    22454743.215
  22834120.670    -5703897.98149  -4437189.94049  22834119.7384   22834125.0564
 96  9 17 16 50 30.0000000  0  7 10  6 22 23 17 28 26
  24778892.768     9635091.45849   7488032.07149  24778893.1394   24778896.8044
  20688612.156     1383300.95149   1074336.31049  20688611.2124   20688615.4124
  23684045.023    -4434919.64449  -3443077.68549  23684044.8774   23684048.2634
  22136011.286    -8291374.27649  -6273792.38549  22136010.5194   22136015.1074
  21049757.315    -3923545.69149  -3054268.00249  21049755.9874   21049760.6864
  22436821.122    -7963516.260 9  -6191195.389 9  22436820.412    22436824.430
  22824021.136    -5756971.44049  -4478545.87849  22824020.2404   22824025.8024
 96  9 17 16 51  0.0000000  0  7 10  6 22 23 17 28 26
  24796954.883     9730007.76249   7561992.71849  24796953.7164   24796959.6114
  20693037.878     1406558.70449   1092459.21449  20693036.7494   20693041.3314
  23675953.453    -4477442.02349  -3476211.95949  23675951.2604   23675956.6884
  22120115.736    -8374906.93949  -6338882.75049  22120114.8934   22120120.1304
  21041997.868    -3964321.63849  -3086041.47549  21041996.6694   21042001.6094
  22418918.931    -8057592.704 9  -6264501.681 9  22418918.875    22418922.112
  22813991.445    -5809677.88349  -4519615.82549  22813991.5824   22813995.5424
 96  9 17 16 51 30.0000000  0  7 10  6 22 23 17 28 26
  24815005.926     9824867.92049   7635909.71449  24815005.4794   24815011.7534
  20697531.988     1430175.84349   1110862.15349  20697531.0274   20697535.4304
  23667936.679    -4519570.44049  -3509039.32449  23667934.4504   23667939.4854
  22104263.311    -8458211.48449  -6403795.35449  22104261.9884   22104267.7704
  21034267.985    -4004942.69249  -3117694.25349  21034266.7004   21034271.9594
  22401036.384    -8151567.440 9  -6337728.748 9  22401035.536    22401039.773
  22804036.086    -5861994.90149  -4560382.33149  22804035.2954   22804040.0874
 96  9 17 16 52  0.0000000  0  7 10  6 22 23 17 28 26
  24833047.369     9919673.13549   7709783.83049  24833045.5804   24833051.2824
  20702093.482     1454146.79049   1129540.79449  20702092.4604   20702096.9544
  23659998.096    -4561286.95749  -3541545.69249  23659997.0854   23660002.2354
  22088457.318    -8541273.28949  -6468518.82649  22088456.0004   22088461.2384
  21026569.322    -4045399.32049  -3149218.90149  21026568.0604   21026572.5664
  22383173.979    -8245434.286 9  -6410871.734 9  22383173.242    22383176.897
  22794157.110    -5913908.94449  -4600834.81749  22794157.3134   22794161.5064
 96  9 17 16 52 30.0000000  0  7 10  6 22 23 17 28 26
  24851079.322    10014431.64949   7783621.56449  24851078.3964   24851084.3744
  20706720.871     1478465.13749   1148490.13749  20706719.8164   20706724.6464
  23652143.806    -4602561.23049  -3573707.41749  23652142.7024   23652148.7574
  22072699.129    -8624083.37449  -6533046.16149  22072697.8594   22072703.3134
  21018902.124    -4085691.16449  -3180615.15149  21018900.8384   21018905.8154
  22365334.186    -8339183.164 9  -6483922.801 9  22365332.832    22365337.452
  22784355.749    -5965415.19449  -4640969.55949  22784354.5504   22784359.0644
 96  9 17 16 53  0.0000000  0  7 10  6 22 23 17 28 26
  24869100.681    10109131.54549   7857413.62449  24869099.5214   24869105.5494
  20711416.054     1503138.16349   1167715.85249  20711415.2264   20711420.3274
  23644374.210    -4643391.38749  -3605523.12349  23644372.5614   23644378.2084
  22056986.809    -8706651.86149  -6597385.23049  22056985.6474   22056990.8064
  21011261.212    -4125843.99949  -3211903.07349  21011260.1474   21011264.9124
  22347516.017    -8432818.019 9  -6556885.020 9  22347515.117    22347519.214
  22774629.944    -6016523.54149  -4680794.24249  22774630.0624   22774634.4294
 96  9 17 16 53 30.0000000  0  7 10  6 22 23 17 28 26
  24887110.941    10203775.19749   7931161.85649  24887109.2534   24887115.6224
  20716179.352     1528169.05349   1187220.41349  20716178.8084   20716183.4134
  23636688.158    -4683781.19349  -3636995.72949  23636685.6134   23636690.7344
  22041321.855    -8788971.49749  -6661530.38849  22041320.7114   22041325.7964
  21003643.438    -4165875.73749  -3243096.64149  21003642.2114   21003646.7624
  22329719.939    -8526336.489 9  -6629756.537 9  22329718.927    22329723.081
  22764980.365    -6067233.18949  -4720308.25349  22764979.6234   22764984.2774
 96  9 17 16 54  0.0000000  0  7 10  6 22 23 17 28 26
  24905113.285    10298376.54949   8004877.10949  24905110.8614   24905116.7344
  20721010.645     1553557.38349   1207003.49849  20721010.2334   20721014.4044
  23629086.315    -4723729.55049  -3668124.31649  23629085.0954   23629089.7064
  22025703.972    -8871043.58449  -6725482.65049  22025702.6334   22025707.2964
  20996049.455    -4205782.00349  -3274192.43949  20996048.5284   20996053.2004
  22311947.365    -8619731.810 9  -6702532.105 9  22311946.571    22311950.494
  22755405.983    -6117546.82749  -4759513.66749  22755406.1704   22755409.8694
 96  9 17 16 54 30.0000000  0  7 10  6 22 23 17 28 26
  24923110.430    10392954.89649   8078574.46549  24923108.3914   24923115.3044
  20725911.911     1579313.38849   1227073.09749  20725910.9704   20725915.7324
  23621568.477    -4763236.37049  -3698908.83949  23621568.2794   23621570.9184
  22010136.476    -8952851.41749  -6789228.99449  22010135.7004   22010139.7104
  20988482.145    -4245548.35549  -3305179.20349  20988480.8374   20988485.8914
  22294202.547    -8712981.722 9  -6775194.348 9  22294201.525    22294205.759
  22745908.173    -6167459.16049  -4798406.37749  22745907.6364   22745912.5454
 96  9 17 16 55  0.0000000  0  7 10  6 22 23 17 28 26
  24941104.679    10487515.36049   8152257.88949  24941102.8944   24941109.7564
  20730884.288     1605443.58049   1247434.27949  20730883.6284   20730888.2604
  23614132.172    -4802314.37349  -3729359.23049  23614131.5974   23614136.2654
  21994622.229    -9034379.10049  -6852757.05449  21994621.0514   21994625.8374
  20980943.321    -4285165.33649  -3336049.58949  20980942.2564   20980946.8974
  22276487.221    -8806076.566 9  -6847735.785 9  22276486.579    22276490.580
  22736486.884    -6216968.37149  -4836984.95449  22736486.5084   22736491.0974
 96  9 17 16 55 30.0000000  0  6  6 22 23 17 28 26
  20735926.177     1631938.46949   1268079.62749  20735925.4184   20735930.0934
  23606774.019    -4840982.09449  -3759489.90449  23606773.2214   23606777.3584
  21979161.766    -9115624.25849  -6916064.95349  21979160.8444   21979165.9524
  20973435.583    -4324618.69049  -3366792.47049  20973434.6434   20973439.6124
  22258802.007    -8899013.899 9  -6920154.489 9  22258800.953    22258804.851
  22727140.511    -6266083.95149  -4875256.81649  22727139.8784   22727145.0574
 96  9 17 16 56  0.0000000  0  6  6 22 23 17 28 26
  20741038.839     1658805.81749   1289015.20849  20741038.5584   20741042.4774
  23599492.699    -4879245.56649  -3789305.61549  23599490.5434   23599496.4464
  21963753.671    -9196594.96949  -6979159.01149  21963753.1304   21963757.0954
  20965957.814    -4363915.28349  -3397413.19749  20965956.5904   20965961.6274
  22241146.113    -8991797.086 9  -6992453.071 9  22241144.736    22241148.180
  22717866.312    -6314819.43849  -4913232.52549  22717865.4994   22717870.6594
 96  9 17 16 56 30.0000000  0  6  6 22 23 17 28 26
  20746224.717     1686056.79749   1310249.73049  20746224.3984   20746228.2404
  23592287.772    -4917107.42849  -3818808.35349  23592286.0204   23592290.8944
  21948397.473    -9277293.08749  -7042040.64349  21948396.5014   21948401.5194
  20958509.251    -4403057.46349  -3427913.60649  20958508.0374   20958512.7204
  22223519.390    -9084425.180 9  -7064630.804 9  22223518.588    22223522.959
  22708664.710    -6363173.35949  -4950910.88149  22708664.1494   22708670.1274
 96  9 17 16 57  0.0000000  0  6  6 22 23 17 28 26
  20751483.601     1713692.32249   1331783.89449  20751482.8174   20751487.1434
  23585159.042    -4954569.35449  -3847999.46349  23585158.2754   23585162.5414
  21933090.157    -9357733.74049  -7104721.65649  21933089.3684   21933093.5944
  20951089.380    -4442048.88849  -3458296.54149  20951088.1144   20951093.7534
  22205919.457    -9176913.433 9  -7136699.564 9  22205918.522    22205922.622
  22699534.716    -6411152.04449  -4988296.85949  22699534.5694   22699538.0014
 96  9 17 16 57 30.0000000  0  6  6 22 23 17 28 26
  20756818.356     1741727.52749   1353629.49949  20756817.8644   20756822.1544
  23578108.450    -4991620.50949  -3876870.50549  23578108.2354   23578110.8414
  21917830.302    -9437924.74049  -7167208.14549  21917828.8234   21917833.8344
  20943700.318    -4480878.17349  -3488553.12449  20943699.4294   20943703.6914
  22188347.145    -9269257.320 9  -7208655.833 9  22188346.577    22188350.038
  22690477.695    -6458746.71549  -5025383.59549  22690477.4194   22690481.7734
 96  9 17 16 58  0.0000000  0  6  6 22 23 17 28 26
  20762234.230     1770187.81049   1375806.32749  20762233.8254   20762238.1434
  23571144.149    -5028218.56749  -3905388.45849  23571142.9474   23571148.3764
  21902620.305    -9517853.17349  -7229490.02649  21902619.0924   21902623.9764
  20936343.962    -4519536.97449  -3518676.86649  20936342.4624   20936347.7774
  22170805.689    -9361438.696 9  -7280485.466 9  22170804.851    22170808.425
  22681499.924    -6505926.06249  -5062146.70749  22681499.2954   22681504.1164
 96  9 17 16 58 30.0000000  0  6  6 22 23 17 28 26
  20767729.621     1799066.32049   1398309.04949  20767728.9604   20767733.5414
  23564265.634    -5064365.43849  -3933554.88049  23564264.7494   23564268.9814
  21887461.127    -9597515.32149  -7291564.39949  21887460.3274   21887465.0104
  20929021.922    -4558014.62349  -3548659.43349  20929020.5714   20929025.5144
  22153295.355    -9453456.333 9  -7352187.524 9  22153293.764    22153298.067
  22672603.319    -6552675.76949  -5098575.03549  22672603.1034   22672607.9164
 96  9 17 16 59  0.0000000  0  6  6 22 23 17 28 26
  20773300.086     1828339.59049   1421119.36949  20773300.0344   20773303.7644
  23557471.064    -5100071.41349  -3961377.71849  23557470.8224   23557474.5184
  21872351.930    -9676915.23749  -7353434.44049  21872350.7874   21872355.3564
  20921730.940    -4596328.21349  -3578514.18449  20921729.6184   20921734.7894
  22135814.808    -9545316.440 9  -7423766.823 9  22135814.125    22135817.299
  22663788.952    -6598995.24649  -5134668.11349  22663788.6064   22663793.8304
 96  9 17 16 59 30.0000000  0  6  6 22 23 17 28 26
  20778940.053     1857976.90049   1444213.35849  20778939.6994   20778943.3724
  23550757.659    -5135350.52249  -3988867.94649  23550756.2214   23550761.1674
  21857292.007    -9756056.02049  -7415102.57349  21857290.5634   21857296.2504
  20914466.241    -4634504.32749  -3608261.80249  20914465.4674   20914470.3094
  22118362.247    -9637029.404 9  -7495231.468 9  22118361.467    22118365.743
  22655054.980    -6644892.22949  -5170431.98149  22655054.8124   22655059.8454
 96  9 17 17  0  0.0000000  0  6  6 22 23 17 28 26
  20784650.545     1887985.28449   1467596.50149  20784650.0264   20784653.9764
  23544130.799    -5170174.07349  -4016003.15049  23544128.2294   23544134.5684
  21842288.543    -9834899.79449  -7476539.24349  21842287.1194   21842291.8424
  20907230.441    -4672529.00749  -3637891.42649  20907229.3164   20907234.2754
  22100942.467    -9728570.805 9  -7566562.417 9  22100942.476    22100945.639
  22646406.824    -6690338.97849  -5205845.03849  22646407.2094   22646411.5974
 96  9 17 17  0 30.0000000  0  6  6 22 23 17 28 26
  20790429.419     1918353.49249   1491260.02949  20790429.2454   20790432.9584
  23537589.677    -5204548.01749  -4042788.04849  23537588.7664   23537593.0814
  21827343.275    -9913437.71749  -7537737.59949  21827341.8964   21827346.9474
  20900026.198    -4710387.81149  -3667391.78849  20900024.9144   20900030.2294
  22083557.039    -9819932.190 9  -7637753.092 9  22083556.432    22083560.277
  22637843.718    -6735338.06049  -5240909.24849  22637844.0874   22637848.5294
 96  9 17 17  1  0.0000000  0  6  6 22 23 17 28 26
  20796279.226     1949093.55649   1515213.30749  20796278.5864   20796282.6144
  23531140.133    -5238440.18049  -4069197.55349  23531138.7624   23531143.0244
  21812458.837    -9991655.96349  -7598686.84949  21812457.4104   21812462.1024
  20892855.069    -4748072.50749  -3696756.49049  20892853.4894   20892858.8264
  22066209.780    -9911093.212 9  -7708787.655 9  22066208.072    22066212.087
  22629368.787    -6779874.09349  -5275612.62249  22629368.8644   22629373.5644
 96  9 17 17  1 30.0000000  0  6  6 22 23 17 28 26
  20802201.966     1980218.13549   1539466.20849  20802201.3464   20802205.4824
  23524781.876    -5271853.29349  -4095233.75349  23524781.2434   23524786.2974
  21797636.523   -10069546.79549  -7659380.98049  21797635.0414   21797640.0104
  20885716.926    -4785582.24349  -3725984.85749  20885715.6704   20885721.1434
  22048900.672   -10002053.324 9  -7779665.662 9  22048899.554    22048904.016
  22620981.191    -6823951.67849  -5309958.78249  22620981.2414   22620985.7624
 96  9 17 17  2  0.0000000  0  6  6 22 23 17 28 26
  20808194.918     2011711.19549   1564006.24849  20808194.4374   20808198.9094
  23518510.585    -5304809.54649  -4120913.92149  23518509.5554   23518513.8844
  21782869.825   -10147146.44349  -7719848.21149  21782868.9744   21782873.4594
  20878609.206    -4822933.21849  -3755089.52449  20878608.3404   20878613.6134
  22031626.778   -10092827.841 9  -7850399.049 9  22031626.592    22031629.332
  22612678.366    -6867584.02049  -5343958.00249  22612677.8894   22612682.0334
 96  9 17 17  2 30.0000000  0  6  6 22 23 17 28 26
  20814257.670     2043570.62749   1588831.75549  20814256.8704   20814261.4414
  23512319.952    -5337341.23349  -4146263.30449  23512318.5714   23512323.9704
  21768152.302   -10224486.63549  -7780113.26449  21768150.8434   21768156.3194
  20871528.307    -4860143.92849  -3784084.88849  20871527.2424   20871532.5564
  22014385.191   -10183433.700 9  -7921000.993 9  22014383.609    22014388.237
  22604455.662    -6910794.20849  -5377628.27049  22604454.8824   22604459.5394
 96  9 17 17  3  0.0000000  0  6  6 22 23 17 28 26
  20820391.352     2075803.15149   1613948.00549  20820390.6244   20820394.6704
  23506204.176    -5369479.42249  -4171306.01249  23506202.7444   23506208.4674
  21753482.609   -10301575.90949  -7840182.78749  21753481.6684   21753486.3644
  20864469.938    -4897236.75749  -3812988.38849  20864468.8394   20864473.5384
  21997172.627   -10273885.123 9  -7991482.626 9  21997171.445    21997175.661
  22596309.812    -6953600.85349  -5410984.09149  22596310.1204   22596314.6964
 96  9 17 17  3 30.0000000  0  6  6 22 23 17 28 26
  20826594.042     2108398.48349   1639346.95749  20826593.5394   20826597.5744
  23500157.740    -5401252.93549  -4196064.62449  23500157.0404   23500162.0684
  21738857.163   -10378433.71049  -7900071.95049  21738856.0234   21738861.2034
  20857433.613    -4934212.81549  -3841800.89749  20857432.6504   20857437.3574
  21979987.090   -10364195.457 9  -8061854.288 9  21979986.502    21979989.808
  22588236.295    -6996027.89949  -5444044.11149  22588236.2594   22588240.9454
 96  9 17 17  4  0.0000000  0  6  6 22 23 17 28 26
  20832863.859     2141346.13249   1665020.43649  20832863.3694   20832867.0314
  23494181.049    -5432660.77849  -4220538.28249  23494179.2684   23494183.7534
  21724271.117   -10455083.27049  -7959798.84749  21724269.7714   21724274.6794
  20850419.734    -4971071.16249  -3870521.68249  20850418.4964   20850423.8084
  21962827.276   -10454370.730 9  -8132120.724 9  21962826.322    21962830.746
  22580232.732    -7038086.92649  -5476817.37049  22580232.5804   22580236.7434
 96  9 17 17  4 30.0000000  0  6  6 22 23 17 28 26
  20839200.447     2174644.67649   1690967.34049  20839199.4524   20839203.8734
  23488273.055    -5463708.28749  -4244731.13749  23488271.4684   23488276.3054
  21709725.543   -10531520.60349  -8019360.38749  21709724.7404   21709729.3744
  20843425.369    -5007826.85449  -3899162.48549  20843424.4284   20843429.1174
  21945691.620   -10544419.621 9  -8202288.679 9  21945690.694    21945694.649
  22572295.698    -7079797.12849  -5509318.81749  22572295.3354   22572300.1324
 96  9 17 17  5  0.0000000  0  6  6 22 23 17 28 26
  20845611.232     2208334.33949   1717219.00749  20845610.9344   20845615.3024
  23482448.386    -5494317.28349  -4268582.31449  23482447.3704   23482452.4184
  21695234.131   -10607673.05249  -8078699.92849  21695233.1334   21695238.2594
  20836463.555    -5044411.75349  -3927670.19849  20836462.3474   20836467.6564
  21928592.098   -10634277.054 9  -8272307.445 9  21928591.162    21928596.257
  22564437.731    -7121091.20249  -5541496.00949  22564437.1154   22564442.4594
 96  9 17 17  5 30.0000000  0  6  6 22 23 17 28 26
  20852106.752     2242468.15049   1743816.76549  20852106.0574   20852110.6204
  23476726.896    -5524384.73649  -4292011.49649  23476725.9514   23476730.7774
  21680809.708   -10683474.20449  -8137765.73249  21680808.5294   21680814.2594
  20829545.697    -5080764.88349  -3955997.31449  20829544.4564   20829549.6224
  21911543.422   -10723868.705 9  -8342119.115 9  21911543.314    21911547.455
  22556676.091    -7161879.39049  -5573278.99949  22556675.1894   22556680.3164
 96  9 17 17  6  0.0000000  0  6  6 22 23 17 28 26
  20858679.243     2277006.32249   1770729.60749  20858678.5574   20858682.8964
  23471102.469    -5553940.58749  -4315041.99049  23471102.8644   23471106.1724
  21666445.470   -10758958.78649  -8196584.86149  21666444.5434   21666448.8274
  20822660.288    -5116947.58849  -3984191.62949  20822659.4534   20822664.5304
  21894537.980   -10813233.420 9  -8411753.951 9  21894537.587    21894541.834
  22549006.434    -7202183.63649  -5604684.89349  22549005.6884   22549010.8674
 96  9 17 17  6 30.0000000  0  6  6 22 23 17 28 26
  20865332.506     2311969.65049   1797973.74849  20865331.4624   20865335.6714
  23465578.154    -5582970.37149  -4337662.61549  23465577.8684   23465582.2504
  21652146.010   -10834103.03249  -8255138.79949  21652145.3124   21652150.2964
  20815811.169    -5152940.86149  -4012238.34549  20815810.1844   20815815.1574
  21877580.034   -10902348.527 9  -8481194.274 9  21877579.407    21877583.376
  22541433.668    -7241978.66849  -5635693.98649  22541432.8114   22541437.7654
 96  9 17 17  7  0.0000000  0  6  6 22 23 17 28 26
  20872071.938     2347386.49549   1825571.27649  20872071.0664   20872075.5064
  23460158.498    -5611449.76049  -4359854.34249  23460157.8614   23460162.5804
  21637917.318   -10908875.00749  -8313402.65549  21637915.9034   21637921.2074
  20809007.084    -5188695.83749  -4040099.36049  20809006.1254   20809011.1454
  21860676.989   -10991174.709 9  -8550409.466 9  21860676.149    21860679.760
  22533966.752    -7281217.32849  -5666269.55549  22533966.7794   22533970.6724
 96  9 17 17  7 30.0000000  0  6  6 22 23 17 28 26
  20878901.646     2383276.43949   1853537.45649  20878900.9684   20878905.1244
  23454842.675    -5639385.86649  -4381622.77049  23454842.7804   23454845.1914
  21623759.292   -10983275.64749  -8371377.15849  21623758.3244   21623763.2224
  20802247.666    -5224216.70749  -4067777.97549  20802246.7644   20802251.7434
  21843829.989   -11079705.878 9  -8619394.785 9  21843829.581    21843833.001
  22526606.685    -7319894.62749  -5696407.69649  22526606.2154   22526611.2264
 96  9 17 17  8  0.0000000  0  6  6 22 23 17 28 26
  20885826.496     2419667.44749   1881894.06249  20885826.1434   20885830.2044
  23449629.764    -5666780.18349  -4402968.96349  23449628.9104   23449632.6554
  21609678.619   -11057270.20349  -8429035.24049  21609677.7614   21609681.8254
  20795542.303    -5259453.82849  -4095235.46349  20795541.1264   20795546.3754
  21827044.755   -11167912.971 9  -8688127.583 9  21827044.382    21827047.492
  22519355.744    -7357998.31249  -5726098.87849  22519355.1954   22519359.5224
 96  9 17 17  8 30.0000000  0  6  6 22 23 17 28 26
  20892838.234     2456514.77549   1910606.24549  20892837.3304   20892842.5674
  23444510.424    -5693683.26549  -4423932.40249  23444509.9244   23444514.2574
  21595669.431   -11130889.05449  -8486400.55949  21595668.4604   21595673.2984
  20788886.974    -5294427.90949  -4122487.99849  20788885.9444   20788890.8384
  21810314.763   -11255829.700 9  -8756634.121 9  21810314.044    21810317.154
  22512204.959    -7395575.35249  -5755379.67349  22512204.2754   22512209.3934
 96  9 17 17  9  0.0000000  0  6  6 22 23 17 28 26
  20899929.045     2493777.21749   1939641.88549  20899928.6504   20899933.0154
  23439478.550    -5720126.19249  -4444537.32649  23439476.5884   23439481.5174
  21581729.477   -11204144.10249  -8543482.40049  21581728.2904   21581732.9864
  20782275.192    -5329173.12249  -4149562.18549  20782274.0814   20782279.2384
  21793634.338   -11343486.286 9  -8824937.947 9  21793633.442    21793637.251
  22505149.133    -7432653.48649  -5784271.72149  22505148.9604   22505153.0694
 96  9 17 17  9 30.0000000  0  6  6 22 23 17 28 26
  20907098.442     2531452.55849   1968999.26249  20907097.3784   20907102.5634
  23434534.824    -5746105.21149  -4464780.67249  23434533.0404   23434537.8464
  21567859.510   -11277031.26649  -8600277.57849  21567858.3024   21567862.8924
  20775706.256    -5363693.30449  -4176461.03049  20775705.3284   20775709.8784
  21777002.926   -11430884.946 9  -8893040.793 9  21777001.885    21777006.029
  22498188.296    -7469233.30249  -5812775.46249  22498188.0494   22498193.0544
 96  9 17 17 10  0.0000000  0  6  6 22 23 17 28 26
  20914343.557     2569526.76349   1998667.44849  20914343.0024   20914347.8494
  23429678.095    -5771626.10749  -4484667.10149  23429675.5634   23429680.0934
  21554056.688   -11349565.53449  -8656797.76149  21554055.2584   21554059.7804
  20769180.492    -5397986.29949  -4203182.83849  20769179.5964   20769184.5774
  21760419.843   -11518029.928 9  -8960945.967 9  21760418.955    21760422.441
  22491322.355    -7505314.26849  -5840890.49349  22491321.4524   22491326.5744
 96  9 17 17 10 30.0000000  0  7 21  6 22 23 17 28 26
  24520532.579                                    24520540.003    24520567.1684
  20921672.216     2608038.77749   2028676.79249  20921671.7284   20921676.2074
  23424917.043    -5796644.86149  -4504162.24049  23424916.6284   23424920.7584
  21540325.737   -11421721.88149  -8713023.47349  21540323.9244   21540329.8994
  20762701.811    -5432032.60649  -4229712.42949  20762700.7514   20762705.7164
  21743892.116   -11604884.393 9  -9028624.755 9  21743891.217    21743894.701
  22484561.175    -7540845.16049  -5868576.89949  22484560.1434   22484565.3644
 96  9 17 17 11  0.0000000  0  7 21  6 22 23 17 28 26
  24499663.347                                    24499646.747    24499647.4444
  20929083.353     2646984.60649   2059024.16749  20929082.9874   20929087.1364
  23420251.016    -5821166.59449  -4523270.08649  23420251.8274   23420255.0854
  21526665.180   -11493508.86549  -8768961.37049  21526664.4504   21526668.5064
  20756266.967    -5465847.86949  -4256061.98949  20756266.0664   20756270.7264
  21727418.925   -11691451.135 9  -9096079.356 9  21727418.131    21727422.289
  22477904.002    -7575827.61349  -5895835.93649  22477904.0914   22477908.9984
 96  9 17 17 11 30.0000000  0  7 21  6 22 23 17 28 26
  24478773.139                                    24478765.393    24478754.7584
  20936581.734     2686387.90449   2089728.00249  20936581.0374   20936585.4674
  23415682.565    -5845175.31049  -4541978.17949  23415681.3714   23415684.7894
  21513072.183   -11564940.33249  -8824622.23549  21513070.7514   21513076.1344
  20749877.920    -5499422.49849  -4282224.03449  20749876.8894   20749881.6844
  21711005.145   -11777706.953 9  -9163291.685 9  21711004.015    21711007.909
  22471353.449    -7610251.55849  -5922659.79749  22471352.8164   22471357.5494
 96  9 17 17 12  0.0000000  0  7 21  6 22 23 17 28 26
  24457908.923                                    24457911.770    24457882.2604
  20944168.549     2726256.87849   2120794.70249  20944168.2444   20944172.5824
  23411211.911    -5868669.07249  -4560284.99249  23411210.8664   23411216.2514
  21499546.171   -11636019.92149  -8880008.91849  21499545.2554   21499550.0104
  20743533.066    -5532765.10149  -4308205.28349  20743532.2014   20743536.8544
  21694650.562   -11863651.046 9  -9230261.110 9  21694649.916    21694653.499
  22464905.497    -7644135.94249  -5949063.20749  22464905.5694   22464910.6584
 96  9 17 17 12 30.0000000  0  7 21  6 22 23 17 28 26
  24437068.566                                    24437059.975    24437071.8484
  20951834.688     2766542.23849   2152185.87649  20951834.0874   20951838.8354
  23406827.808    -5891706.84449  -4578236.50749  23406826.6414   23406830.7374
  21486080.605   -11706782.64649  -8935148.67849  21486079.7174   21486083.9934
  20737220.181    -5565939.87149  -4334055.75949  20737219.0524   20737223.8164
  21678344.535   -11949339.894 9  -9297031.628 9  21678343.545    21678347.177
  22458548.741    -7677541.19049  -5975093.25349  22458549.1304   22458552.8594
 96  9 17 17 13  0.0000000  0  7 21  6 22 23 17 28 26
  24416244.611                                    24416239.119    24416251.5914
  20959575.493     2807220.46149   2183883.16549  20959574.6084   20959579.4144
  23402526.486    -5914309.13949  -4595848.70749  23402523.6904   23402529.3304
  21472670.385   -11777253.84449  -8990061.29149  21472669.7004   21472673.0364
  20730935.303    -5598966.58649  -4359790.85749  20730934.7434   20730939.2134
  21662082.644   -12034796.398 9  -9363621.113 9  21662081.363    21662085.601
  22452276.459    -7710502.67349  -6000777.50649  22452276.2134   22452281.5374
 96  9 17 17 13 30.0000000  0  7 21  6 22 23 17 28 26
  24395433.816                                    24395430.345    24395442.2774
  20967393.587     2848304.20849   2215896.45149  20967393.3764   20967397.0504
  23398311.523    -5936457.75649  -4613107.33449  23398309.4174   23398316.0154
  21459317.859   -11847421.78949  -9044737.59849  21459316.5244   21459320.7044
  20724681.586    -5631831.06249  -4385399.53649  20724680.7124   20724685.1214
  21645866.112   -12120014.438 9  -9430024.773 9  21645865.439    21645869.203
  22446090.086    -7743011.84949  -6026109.32449  22446089.9954   22446093.9894
 96  9 17 17 14  0.0000000  0  7 21  6 22 23 17 28 26
  24374631.644                                    24374627.267    24374771.0184
  20975286.907     2889783.61549   2248218.04149  20975286.3714   20975290.4124
  23394183.836    -5958149.98049  -4630010.40949  23394181.6354   23394187.6514
  21446027.671   -11917261.92949  -9099158.46349  21446026.6954   21446030.8214
  20718459.802    -5664527.22149  -4410877.06749  20718458.7294   20718463.4004
  21629694.825   -12204994.461 9  -9496242.967 9  21629693.974    21629697.937
  22439993.009    -7775052.60349  -6051076.13349  22439992.3074   22439997.5994
 96  9 17 17 14 30.0000000  0  7 21  6 22 23 17 28 26
  24353833.253                                    24353830.694    24353842.8024
  20983247.349     2931616.15049   2280814.80249  20983247.2404   20983251.1374
  23390139.339    -5979404.76549  -4646572.58249  23390137.3754   23390142.7174
  21432795.399   -11986797.59249  -9153342.08649  21432793.5564   21432798.3894
  20712264.955    -5697081.15949  -4436243.77149  20712263.9084   20712268.6074
  21613565.857   -12289752.350 9  -9562288.066 9  21613565.140    21613569.097
  22433983.508    -7806632.81249  -6075684.07149  22433982.9374   22433987.4434
 96  9 17 17 15  0.0000000  0  7 21  6 22 23 17 28 26
  24333038.212                                    24333035.560    24333048.2844
  20991269.275     2973770.91449   2313662.64249  20991268.6374   20991273.1354
  23386177.194    -6000226.33849  -4662797.17249  23386175.0484   23386182.3064
  21419616.032   -12056055.17249  -9207309.01149  21419614.9194   21419619.9294
  20706095.184    -5729503.73049  -4461508.11249  20706093.7604   20706098.5764
  21597477.721   -12374296.068 9  -9628166.279 9  21597476.988    21597481.115
  22428057.547    -7837773.59349  -6099949.61749  22428057.7794   22428061.2564
 96  9 17 17 15 30.0000000  0  7 21  6 22 23 17 28 26
  24312243.137                                    24312241.326    24312341.1224
  20999349.735     3016234.11849   2346750.83749  20999349.0034   20999353.5124
  23382296.232    -6020618.98649  -4678687.57449  23382295.0744   23382301.5504
  21406491.312   -12125026.11549  -9261052.59049  21406489.9154   21406494.7544
  20699949.108    -5761801.14549  -4486674.92549  20699948.2544   20699953.0924
  21581431.152   -12458621.288 9  -9693874.236 9  21581430.057    21581433.692
  22422216.257    -7868469.86649  -6123868.78149  22422216.0234   22422219.9254
 96  9 17 17 16  0.0000000  0  7 21  6 22 23 17 28 26
  24291459.610                                    24291457.524    24291462.7594
  21007491.759     3059021.33449   2380091.49949  21007491.1864   21007495.8634
  23378503.156    -6040551.45649  -4694219.36749  23378501.5304   23378507.0224
  21393423.028   -12193699.41349  -9314564.23449  21393422.4424   21393426.8854
  20693831.621    -5793949.05949  -4511725.25949  20693830.2694   20693835.1174
  21565432.249   -12542696.013 9  -9759387.003 9  21565431.063    21565435.087
  22416463.067    -7898702.74049  -6147426.85449  22416462.5264   22416467.5424
 96  9 17 17 16 30.0000000  0  7 21  6 22 23 17 28 26
  24270687.072                                    24270685.264    24270691.5494
  21015700.110     3102155.65849   2413702.64649  21015699.6544   21015704.6664
  23374798.889    -6060017.64249  -4709387.81049  23374797.5944   23374802.7414
  21380411.409   -12262076.39549  -9367844.98249  21380409.8904   21380414.4154
  20687744.704    -5825935.29749  -4536649.60449  20687743.9734   20687748.6494
  21549483.487   -12626506.875 9  -9824694.168 9  21549482.614    21549486.590
  22410797.840    -7928473.15849  -6170624.57249  22410797.5884   22410802.1554
 96  9 17 17 17  0.0000000  0  7 21  6 22 23 17 28 26
  24249929.486    -1745744.03949   -285768.71059  24249926.8254   24249933.5274
  21023981.111     3145672.04249   2447611.49349  21023980.4014   21023985.0984
  23371186.804    -6078999.35249  -4724178.76449  23371184.4064   23371190.3164
  21367458.683   -12330142.57449  -9420883.55049  21367457.7474   21367462.2454
  20681693.821    -5857732.60049  -4561426.71949  20681692.8424   20681697.5074
  21533588.522   -12710035.448 9  -9889781.362 9  21533587.498    21533591.777
  22405226.590    -7957750.73149  -6193438.26049  22405226.3654   22405231.1774
 96  9 17 17 17 30.0000000  0  7 21  6 22 23 17 28 26
  24229190.341    -1854726.73349   -370690.31449  24229188.5924   24229195.7944
  21032340.625     3189601.81649   2481842.47049  21032340.1744   21032344.5184
  23367668.028    -6097491.02049  -4738587.84449  23367666.7614   23367670.6894
  21354568.463   -12397881.45949  -9473667.08849  21354567.9004   21354572.5154
  20675681.540    -5889328.01149  -4586046.53149  20675680.6244   20675685.3234
  21517749.871   -12793267.655 9  -9954637.617 9  21517749.072    21517753.155
  22399755.589    -7986502.94249  -6215842.55849  22399755.2424   22399759.2814
 96  9 17 17 18  0.0000000  0  7 21  6 22 23 17 28 26
  24208474.151    -1963590.56949   -455519.26049  24208472.2134   24208478.8444
  21040783.794     3233970.94449   2516415.79149  21040783.0194   21040787.2684
  23364242.393    -6115492.93849  -4752615.33749  23364241.1524   23364245.9574
  21341741.174   -12465289.74949  -9526193.01249  21341740.3514   21341744.7004
  20669711.073    -5920703.28749  -4610494.78849  20669710.1974   20669714.7424
  21501969.244   -12876195.804 9 -10019256.947 9  21501968.327    21501972.301
  22394386.108    -8014719.90749  -6237829.79649  22394385.6894   22394389.9004
 96  9 17 17 18 30.0000000  0  7 21  6 22 23 17 28 26
  24187781.386    -2072329.17149   -540250.58549  24187779.2794   24187786.8494
  21049312.524     3278789.72349   2551339.50249  21049311.9654   21049316.1564
  23360906.783    -6133020.89249  -4766273.49749  23360906.5014   23360911.1094
  21328981.877   -12532340.05949  -9578439.99549  21328980.7344   21328986.0914
  20663783.723    -5951851.67949  -4634766.26849  20663782.7914   20663787.4374
  21486248.226   -12958811.039 9 -10083632.447 9  21486247.001    21486251.632
  22389121.902    -8042383.35149  -6259385.71549  22389121.4244   22389125.7934
 96  9 17 17 19  0.0000000  0  7 21  6 22 23 17 28 26
  24167120.174    -2180904.64249   -624854.88249  24167118.6924   24167126.4354
  21057930.263     3324076.32949   2586627.74449  21057929.8294   21057933.8824
  23357665.533    -6150053.90749  -4779545.98349  23357664.0064   23357670.7334
  21316298.920   -12598989.57549  -9630374.68249  21316297.8644   21316302.0194
  20657904.626    -5982747.06149  -4658840.59149  20657903.5614   20657908.1294
  21470591.942   -13041084.542 9 -10147741.676 9  21470591.479    21470595.541
  22383969.054    -8069461.32549  -6280485.42149  22383968.4114   22383973.3444
 96  9 17 17 19 30.0000000  0  7 21  6 22 23 17 28 26
  24146495.335    -2289288.73949   -709310.05149  24146495.0994   24146500.2994
  21066636.471     3369827.10149   2622277.67849  21066636.1914   21066640.3134
  23354518.414    -6166592.74749  -4792433.38949  23354518.0144   23354521.5464
  21303696.534   -12665215.61849  -9681979.37649  21303695.2794   21303699.9464
  20652076.615    -6013374.16049  -4682705.87349  20652075.4464   20652080.0254
  21455003.787   -13123001.379 9 -10211572.968 9  21455003.290    21455006.705
  22378926.402    -8095960.66449  -6301134.23749  22378925.7224   22378930.4054
 96  9 17 17 20  0.0000000  0  7 21  6 22 23 17 28 26
  24125899.056    -2397522.96149   -793648.43649  24125897.6794   24125905.6154
  21075423.356     3416002.57249   2658258.52949  21075422.5994   21075427.0564
  23351463.134    -6182650.00549  -4804945.53449  23351461.3004   23351468.9134
  21291172.881   -12731027.68149  -9733261.48949  21291171.8084   21291175.7504
  20646295.075    -6043756.16549  -4706380.15649  20646294.1584   20646298.5924
  21439480.106   -13204578.793 9 -10275139.771 9  21439479.437    21439483.120
  22373988.854    -8121907.98749  -6321352.92749  22373988.4404   22373992.8294
 96  9 17 17 20 30.0000000  0  7 21  6 22 23 17 28 26
  24105326.959    -2505630.37949   -877887.95649  24105326.7004   24105332.8994
  21084287.444     3462583.31249   2694555.17749  21084286.4124   21084291.0614
  23348500.219    -6198220.55449  -4817078.43849  23348497.7614   23348503.8764
  21278729.605   -12796417.41249  -9784214.52149  21278728.6534   21278733.5124
  20640558.293    -6073903.41949  -4729871.53049  20640556.9704   20640561.9564
  21424021.002   -13285816.581 9 -10338441.931 9  21424020.249    21424024.420
  22369155.847    -8147304.76949  -6341142.61149  22369155.3364   22369159.5734
 96  9 17 17 21  0.0000000  0  7 21  6 22 23 17 28 26
  24084776.233    -2613625.39649   -962039.90449  24084774.8174   24084781.3364
  21093224.831     3509549.74049   2731152.38249  21093224.1554   21093228.8824
  23345630.412    -6213300.43949  -4828828.97649  23345630.9064   23345634.2024
  21266363.051   -12861403.78349  -9834853.23649  21266361.7044   21266367.2534
  20634862.572    -6103834.32549  -4753194.30949  20634861.6034   20634866.2114
  21408623.546   -13366730.395 9 -10401491.656 9  21408622.609    21408626.688
  22364424.319    -8172168.78549  -6360517.16349  22364423.5324   22364428.8784
 96  9 17 17 21 30.0000000  0  7 21  6 22 23 17 28 26
  24064251.951    -2721482.18649  -1046084.10249  24064251.5354   24064256.3334
  21102243.560     3556943.57249   2768082.61249  21102243.1114   21102247.9904
  23342863.127    -6227842.05049  -4840160.11349  23342863.8524   23342866.7154
  21254077.552   -12925964.59249  -9885160.34949  21254076.1794   21254081.2514
  20629212.643    -6133524.62049  -4776329.60549  20629211.3244   20629216.0464
  21393294.014   -13447287.022 9 -10464263.048 9  21393293.051    21393296.993
  22359800.041    -8196468.98449  -6379452.38749  22359798.9034   22359804.4954
 96  9 17 17 22  0.0000000  0  7 21  6 22 23 17 28 26
  24043757.637    -2829179.65849  -1130004.13749  24043754.8754   24043763.3434
  21111351.960     3604808.12949   2805379.65549  21111351.3464   21111355.7954
  23340205.735    -6241806.62949  -4851041.62049  23340205.0824   23340208.0304
  21241877.129   -12990078.28149  -9935119.05949  21241876.1554   21241880.8924
  20623611.241    -6162960.03049  -4799266.29349  20623610.0024   20623615.0864
  21378037.708   -13527459.663 9 -10526735.226 9  21378036.883    21378041.369
  22355288.853    -8220175.82349  -6397925.24349  22355288.6764   22355292.8594
 96  9 17 17 22 30.0000000  0  7 21  6 22 23 17 28 26
  24023295.368    -2936708.73549  -1213792.96749  24023294.9694   24023299.9574
  21120549.589     3653143.04749   2843043.19549  21120549.0084   21120553.3794
  23337655.282    -6255209.37149  -4861485.30349  23337653.4294   23337660.9044
  21229755.007   -13053780.56849  -9984757.18949  21229753.6874   21229758.8214
  20618054.998    -6192157.65649  -4822017.69249  20618053.9784   20618058.5734
  21362851.787   -13607261.725 9 -10588918.654 9  21362851.346    21362855.507
  22350885.993    -8243313.49749  -6415954.59849  22350885.2044   22350889.8754
 96  9 17 17 23  0.0000000  0  7 21  6 22 23 17 28 26
  24002863.149    -3044080.61349  -1297459.31049  24002862.5844   24002869.1074
  21129832.426     3701923.58749   2881053.97749  21129831.9024   21129836.1424
  23335206.846    -6268076.71349  -4871511.83249  23335204.6344   23335210.8914
  21217701.785   -13117120.74949 -10034113.16249  21217700.7714   21217705.9454
  20612541.428    -6221132.25949  -4844595.31249  20612540.3454   20612545.0494
  21347731.864   -13686717.747 9 -10650832.432 9  21347731.283    21347735.687
  22346586.774    -8265905.64049  -6433558.85149  22346586.4804   22346591.4304
 96  9 17 17 23 30.0000000  0  7 21  6 22 23 17 28 26
  23982464.300    -3151276.92749  -1380988.84649  23982461.5874   23982471.4614
  21139202.718     3751164.71749   2919423.66249  21139201.9154   21139207.0824
  23332862.007    -6280398.79549  -4881113.47749  23332860.7074   23332865.7564
  21205717.800   -13180097.09949 -10083185.62849  21205716.7484   21205721.3974
  20607074.779    -6249859.54149  -4866980.20749  20607073.9604   20607078.4264
  21332681.437   -13765808.719 9 -10712461.752 9  21332681.252    21332684.944
  22342394.902    -8287934.91349  -6450724.51949  22342394.8724   22342399.3914
 96  9 17 17 24  0.0000000  0  7 21  6 22 23 17 28 26
  23962094.863    -3258318.76349  -1464398.00549  23962095.5464   23962099.2464
  21148652.587     3800825.09249   2958120.02949  21148651.6734   21148656.5084
  23330613.673    -6292213.11649  -4890319.45449  23330612.8334   23330617.6634
  21193797.895   -13242736.56149 -10131995.58749  21193796.7904   21193801.7184
  20601652.584    -6278353.61949  -4889183.38349  20601651.7634   20601656.0564
  21317697.050   -13844552.935 9 -10773820.877 9  21317696.336    21317700.320
  22338307.209    -8309415.74749  -6467462.83449  22338306.4524   22338311.2694
 96  9 17 17 24 30.0000000  0  7 21  6 22 23 17 28 26
  23941749.329    -3365234.50149  -1547708.92549  23941749.3524   23941753.9884
  21158174.871     3850864.45349   2997111.71149  21158174.6114   21158178.9574
  23328455.016    -6303557.46849  -4899159.21749  23328453.4884   23328459.6774
  21181936.410   -13305068.71349 -10180566.09149  21181934.9624   21181940.1074
  20596274.807    -6306614.44649  -4911204.80649  20596273.9664   20596278.2584
  21302775.046   -13922968.998 9 -10834924.302 9  21302774.106    21302778.366
  22334322.778    -8330354.25549  -6483778.56549  22334322.0014   22334326.8344
 96  9 17 17 25  0.0000000  0  7 21  6 22 23 17 28 26
  23921424.644    -3472042.46349  -1630935.92749  23921425.2524   23921428.6464
  21167765.548     3901263.89549   3036383.97949  21167765.0914   21167770.0244
  23326381.375    -6314453.30649  -4907649.47049  23326380.0934   23326384.9794
  21170133.855   -13367091.28349 -10228895.35649  21170132.9124   21170137.6554
  20590940.432    -6334646.59549  -4933048.03949  20590939.3094   20590943.9444
  21287913.696   -14001066.003 9 -10895779.116 9  21287912.855    21287917.011
  22330441.364    -8350751.26349  -6499672.34649  22330441.1874   22330445.8344
 96  9 17 17 25 30.0000000  0  7 21  6 22 23 17 28 26
  23901121.671    -3578737.33549  -1714074.77349  23901121.7484   23901126.0494
  21177426.470     3952033.00749   3075944.29549  21177426.3834   21177430.3184
  23324392.686    -6324904.65249  -4915793.40149  23324392.4094   23324395.3704
  21158394.842   -13428780.20649 -10276964.63849  21158394.0594   21158398.6714
  20585647.593    -6362460.98649  -4954721.60149  20585646.5634   20585651.2114
  21273115.535   -14078831.205 9 -10956375.374 9  21273114.829    21273118.634
  22326664.160    -8370600.99249  -6515139.66449  22326663.7424   22326668.5884
 96  9 17 17 26  0.0000000  0  7 21  6 22 23 17 28 26
  23880847.287    -3685281.26349  -1797095.99949  23880843.6964   23880853.0544
  21187164.798     4003207.48149   3115820.49849  21187165.0214   21187168.8104
  23322494.133    -6334882.02649  -4923567.97849  23322493.8834   23322498.3544
  21146729.394   -13490082.93149 -10324732.98049  21146728.5044   21146732.4434
  20580403.813    -6390017.27149  -4976194.03049  20580402.6544   20580407.2774
  21258388.904   -14156220.404 9 -11016678.646 9  21258388.244    21258391.955
  22322996.947    -8389872.01649  -6530156.03849  22322996.1714   22323000.5164
 96  9 17 17 26 30.0000000  0  7 21  6 22 23 17 28 26
  23860608.750    -3791633.98249  -1879968.16349  23860606.5364   23860616.1064
  21196986.718     4054821.66649   3156039.30449  21196986.8214   21196990.5174
  23320693.065    -6344348.14549  -4930944.22049  23320691.5914   23320695.4684
  21135145.225   -13550958.50049 -10372168.47549  21135144.1944   21135148.4014
  20575214.586    -6417286.73049  -4997442.96849  20575213.3064   20575218.2494
  21243740.145   -14233199.988 9 -11076662.737 9  21243739.395    21243743.386
  22319444.740    -8408538.52449  -6544701.37549  22319444.2304   22319448.6324
 96  9 17 17 27  0.0000000  0  7 21  6 22 23 17 28 26
  23840399.059    -3897831.92249  -1962719.75649  23840399.5954   23840404.7984
  21206886.348     4106843.79749   3196576.00449  21206885.6094   21206890.3854
  23318983.631    -6353331.83149  -4937944.50349  23318982.1754   23318987.7074
  21123636.483   -13611437.57149 -10419295.00849  21123634.9224   21123639.8324
  20570067.784    -6444333.16349  -5018518.10949  20570066.8294   20570071.4094
  21229162.015   -14309808.686 9 -11136357.828 9  21229160.968    21229164.911
  22315998.421    -8426649.63349  -6558813.91849  22315997.8164   22316001.8904
 96  9 17 17 27 30.0000000  0  7 21  6 22 23 17 28 26
  23820219.595    -4003875.64449  -2045351.22149  23820217.8064   23820223.3074
  21216862.085     4159267.55649   3237425.64949  21216861.5024   21216866.4254
  23317365.563    -6361835.04749  -4944570.39449  23317364.1654   23317369.4804
  21112202.690   -13671522.14949 -10466114.15949  21112201.4374   21112206.5974
  20564963.029    -6471159.19549  -5039421.51549  20564961.6034   20564966.8864
  21214654.311   -14386046.953 9 -11195764.268 9  21214653.531    21214657.177
  22312655.376    -8444217.48449  -6572503.15749  22312654.7714   22312658.7294
 96  9 17 17 28  0.0000000  0  7 21  6 22 23 17 28 26
  23800073.606    -4109743.30349  -2127845.44249  23800072.4734   23800079.0414
  21226920.555     4212125.02649   3278613.26449  21226920.3494   21226924.7064
  23315847.205    -6369813.99949  -4950787.77049  23315845.3564   23315851.4934
  21100848.743   -13731186.91249 -10512606.17049  21100847.7574   21100852.5524
  20559904.969    -6497739.47749  -5060133.42749  20559903.9254   20559908.4884
  21200221.942   -14461889.650 9 -11254862.470 9  21200221.102    21200224.815
  22309420.160    -8461219.03749  -6585751.12449  22309420.0104   22309423.7984
 96  9 17 17 28 30.0000000  0  7 21  6 22 23 17 28 26
  23779967.518    -4215402.70049  -2210177.39349  23779966.1124   23779972.7874
  21237068.967     4265454.88849   3320168.97649  21237068.5334   21237073.1634
  23314435.915    -6377229.94149  -4956566.39749  23314434.0834   23314442.4164
  21089579.414   -13790407.80449 -10558752.31349  21089578.0494   21089583.2794
  20554895.887    -6524062.24749  -5080644.67349  20554894.6334   20554899.4434
  21185870.235   -14537308.688 9 -11313630.554 9  21185869.468    21185873.201
  22306299.246    -8477619.37949  -6598530.60349  22306298.7514   22306302.9054
 96  9 17 17 29  0.0000000  0  7 21  6 22 23 17 28 26
  23759895.420    -4320883.40649  -2292370.17549  23759894.9774   23759900.7934
  21247305.525     4319248.36049   3362085.94749  21247305.6964   21247309.8684
  23313126.045    -6384113.87549  -4961930.52949  23313122.5814   23313129.5424
  21078388.804   -13849214.46349 -10604575.66949  21078387.8164   21078392.6794
  20549931.871    -6550148.53149  -5100971.65749  20549930.8494   20549935.6124
  21171595.028   -14612325.152 9 -11372084.943 9  21171594.520    21171597.803
  22303286.707    -8493449.91949  -6610866.09349  22303286.0764   22303290.9324
 96  9 17 17 29 30.0000000  0  7 21  6 22 23 17 28 26
  23739859.767    -4426172.45849  -2374413.54949  23739859.5774   23739864.6174
  21257631.250     4373510.21949   3404367.89449  21257630.9684   21257635.2774
  23311918.088    -6390460.75049  -4966876.18149  23311917.1464   23311921.8244
  21067278.653   -13907598.18749 -10650069.47149  21067277.6574   21067283.0234
  20545016.374    -6575979.63849  -5121099.79049  20545015.5724   20545019.9124
  21157398.278   -14686929.195 9 -11430217.948 9  21157397.369    21157401.460
  22300382.840    -8508709.29949  -6622756.51949  22300382.5864   22300386.3804
 96  9 17 17 30  0.0000000  0  7 21  6 22 23 17 28 26
  23719872.484    -4531206.52149  -2456258.27549  23719871.5454   23719876.3164
  21268058.677     4428306.51849   3447066.28549  21268057.9304   21268062.9104
  23310825.201    -6396203.90749  -4971351.34049  23310824.4024   23310829.5864
  21056261.913   -13965491.77049 -10695181.35749  21056260.6744   21056265.4814
  20540161.343    -6601493.40449  -5140980.64649  20540160.3434   20540164.6684
  21143292.513   -14761055.383 9 -11487978.602 9  21143291.924    21143295.900
  22297602.618    -8523318.99849  -6634140.70049  22297602.1614   22297606.4224
 96  9 17 17 30 30.0000000  0  7 21  6 22 23 17 28 26
  23699927.728    -4636016.79549  -2537928.65049  23699927.3124   23699931.9944
  21278577.527     4483583.77049   3490139.44749  21278576.8984   21278582.0714
  23309837.445    -6401395.18849  -4975396.50849  23309836.7664   23309841.8254
  21045331.288   -14022932.79249 -10739940.59149  21045330.4514   21045334.9684
  20535363.040    -6626708.42049  -5160628.70949  20535361.8354   20535366.5334
  21129271.186   -14834738.100 9 -11545393.704 9  21129270.450    21129274.411
  22294940.276    -8537309.26749  -6645042.21149  22294939.5254   22294944.2684
 96  9 17 17 31  0.0000000  0  7 21  6 22 23 17 28 26
  23680005.176    -4740710.19049  -2619507.90249  23680003.7654   23680008.7834
  21289165.915     4539225.56549   3533496.66949  21289165.3584   21289170.8754
  23308932.753    -6406149.86749  -4979101.47449  23308931.3034   23308934.3644
  21034467.210   -14080024.37349 -10784427.52349  21034465.7324   21034470.7724
  20530605.160    -6651711.41849  -5180111.57349  20530604.0994   20530608.5584
  21115314.519   -14908081.193 9 -11602544.158 9  21115313.673    21115317.711
  22292376.271    -8550782.93949  -6655541.17849  22292375.6094   22292380.2824
 96  9 17 17 31 30.0000000  0  7 21  6 22 23 17 28 26
  23660101.261    -4845305.69549  -2701010.84849  23660099.9744   23660105.8514
  21299816.897     4595196.98149   3577110.72749  21299816.5044   21299820.9454
  23308110.862    -6410468.96249  -4982467.04349  23308109.2724   23308114.9844
  21023667.469   -14136777.32849 -10828650.61049  21023666.0394   21023671.5494
  20525883.888    -6676522.11949  -5199444.59849  20525882.4574   20525887.4364
  21101419.670   -14981098.627 9 -11659440.852 9  21101418.952    21101422.874
  22289910.907    -8563738.63649  -6665636.52449  22289910.4164   22289915.0924
 96  9 17 17 32  0.0000000  0  7 21  6 22 23 17 28 26
  23640228.481    -4949737.85349  -2782386.51549  23640227.0014   23640233.1194
  21310544.659     4651571.08649   3621038.58749  21310544.2774   21310548.1954
  23307386.586    -6414274.39449  -4985432.33149  23307385.3934   23307389.8054
  21012944.462   -14193126.92549 -10872559.37349  21012943.4224   21012948.2384
  20521212.809    -6701068.72949  -5218571.82649  20521211.9614   20521215.8694
  21087601.793   -15053712.217 9 -11716022.859 9  21087600.858    21087605.039
  22287559.961    -8576092.80749  -6675263.13549  22287559.7134   22287564.7604
 96  9 17 17 32 30.0000000  0  7 21  6 22 23 17 28 26
  23620393.469    -5053971.34349  -2863607.37049  23620392.3134   23620397.3214
  21321357.618     4708393.18149   3665315.53049  21321356.9824   21321361.4564
  23306767.001    -6417530.62549  -4987969.65849  23306766.2024   23306771.7254
  21002302.552   -14249050.13749 -10916135.88849  21002301.4494   21002306.4184
  20516600.779    -6725304.69249  -5237456.99049  20516599.6844   20516604.7814
  21073868.283   -15125881.721 9 -11772258.839 9  21073867.515    21073871.479
  22285329.737    -8587813.37549  -6684396.05149  22285329.4074   22285334.2634
 96  9 17 17 33  0.0000000  0  7 21  6 22 23 17 28 26
  23600588.123    -5158048.08949  -2944706.08949  23600588.4134   23600591.6214
  21332251.426     4765640.41449   3709923.73649  21332251.1104   21332255.8234
  23306247.545    -6420259.25849  -4990095.86449  23306247.0514   23306253.1544
  20991735.099   -14304582.60049 -10959407.94149  20991733.7354   20991738.8684
  20512039.287    -6749275.99049  -5256135.92849  20512038.2214   20512042.9264
  21060213.270   -15197639.329 9 -11828173.847 9  21060212.418    21060216.720
  22283211.958    -8598942.04149  -6693067.73349  22283211.3444   22283216.1314
 96  9 17 17 33 30.0000000  0  7 21  6 22 23 17 28 26
  23580810.957    -5261977.52049  -3025690.03149  23580809.3654   23580815.3234
  21343224.630     4823304.62049   3754856.85449  21343224.1134   21343229.0614
  23305827.928    -6422465.06749  -4991814.74149  23305827.0724   23305831.5014
  20981240.500   -14359732.38349 -11002381.79649  20981239.5604   20981244.2714
  20507524.788    -6772999.73549  -5274621.97449  20507524.1864   20507528.4424
  21046636.453   -15268986.307 9 -11883768.893 9  21046635.358    21046639.860
  22281205.800    -8609485.32649  -6701283.28449  22281205.1934   22281209.3534
 96  9 17 17 34  0.0000000  0  7 21  6 22 23 17 28 26
  23561066.259    -5365736.66449  -3106541.32549  23561064.5244   23561070.9524
  21354278.509     4881393.15749   3800120.63349  21354278.1814   21354283.2604
  23305503.998    -6424167.81249  -4993141.57449  23305501.9174   23305509.0724
  20970818.678   -14414499.45449 -11045057.43249  20970817.8754   20970822.2324
  20503059.344    -6796466.15549  -5292907.49749  20503058.0284   20503062.9404
  21033139.049   -15339915.216 9 -11939038.160 9  21033138.161    21033142.413
  22279311.774    -8619438.42949  -6709038.93849  22279311.6144   22279315.6894
 96  9 17 17 34 30.0000000  0  7 21  6 22 23 17 28 26
  23541369.366    -5469243.48849  -3187195.95949  23541368.1904   23541374.0824
  21365423.871     4939962.01249   3845758.67549  21365423.6254   21365428.2694
  23305285.659    -6425315.26449  -4994035.69549  23305284.5674   23305290.0924
  20960484.657   -14468805.27749 -11087373.65149  20960483.5194   20960488.2274
  20498653.930    -6819616.50249  -5310946.73749  20498653.0584   20498657.3524
  21019733.865   -15410360.181 9 -11993930.330 9  21019733.122    21019737.031
  22277542.563    -8628735.48749  -6716283.39049  22277542.2384   22277546.6664
 96  9 17 17 35  0.0000000  0  7 21  6 22 23 17 28 26
  23521745.632    -5572367.72449  -3267552.46149  23521744.6454   23521749.5404
  21376679.451     4999110.76649   3891848.59049  21376678.6434   21376683.1394
  23305194.328    -6425795.19049  -4994409.66349  23305192.1414   23305199.2064
  20950263.292   -14522519.06749 -11129228.55449  20950262.0054   20950266.6904
  20494327.599    -6842351.95449  -5328662.67849  20494326.1534   20494331.0924
  21006443.737   -15480200.274 9 -12048351.175 9  21006443.082    21006446.557
  22275920.107    -8637261.79549  -6722927.27049  22275919.7924   22275923.9734
 96  9 17 17 35 30.0000000  0  7 21  6 22 23 17 28 26
  23502178.861    -5675193.03149  -3347676.00449  23502176.8024   23502184.1564
  21388025.434     5058734.49049   3938308.60649  21388024.6494   21388029.3254
  23305206.723    -6425729.47849  -4994358.50249  23305206.6814   23305211.2334
  20940136.025   -14575738.06849 -11170697.89849  20940135.0764   20940139.5904
  20490061.325    -6864770.65549  -5346131.80749  20490060.3464   20490064.7264
  20993250.549   -15549531.310 9 -12102375.364 9  20993249.935    20993253.356
  22274425.992    -8645113.78649  -6729045.70349  22274425.4164   22274430.0284
 96  9 17 17 36  0.0000000  0  7 21  6 22 23 17 28 26
  23482644.452    -5777847.12749  -3427666.09849  23482642.6554   23482648.0104
  21399438.046     5118707.93749   3985041.14149  21399437.7484   21399441.7114
  23305298.032    -6425250.12549  -4993984.97749  23305296.9494   23305302.2574
  20930077.119   -14628597.94249 -11211887.40749  20930076.0804   20930080.5634
  20485830.209    -6887004.77249  -5363457.09449  20485829.3154   20485833.9914
  20980128.510   -15618488.632 9 -12156108.338 9  20980127.450    20980131.215
  22273033.264    -8652432.93649  -6734748.93549  22273033.2104   22273036.9714
 96  9 17 17 36 30.0000000  0  7 21  6 22 23 17 28 26
  23463148.886    -5880295.90049  -3507496.26749  23463147.4214   23463152.3884
  21410926.161     5179077.81049   4032082.57649  21410925.1354   21410930.1894
  23305479.060    -6424299.32549  -4993244.11249  23305478.0534   23305482.1604
  20920093.723   -14681061.26849 -11252767.91649  20920092.4514   20920097.2244
  20481641.754    -6909015.55049  -5380608.35949  20481640.7954   20481645.4334
  20967085.539   -15687028.894 9 -12209516.331 9  20967084.979    20967088.261
  22271745.468    -8659200.43849  -6740022.31449  22271745.0024   22271749.7514
 96  9 17 17 37  0.0000000  0  7 21  6 22 23 17 28 26
  23443691.625    -5982542.80949  -3587169.12649  23443690.0214   23443696.6934
  21422493.516     5239864.62349   4079448.89949  21422493.0174   21422497.7974
  23305752.292    -6422863.45049  -4992125.25949  23305750.8344   23305756.8314
  20910185.967   -14733126.78849 -11293338.46149  20910184.6404   20910189.2604
  20477499.338    -6930784.72149  -5397571.35449  20477498.3234   20477502.8934
  20954124.917   -15755137.643 9 -12262588.076 9  20954123.872    20954128.263
  22270562.483    -8665417.02349  -6744866.40549  22270561.6914   22270565.9474
 96  9 17 17 37 30.0000000  0  7 21  6 22 23 17 28 26
  23424267.771    -6084613.85349  -3666704.94449  23424266.3184   23424273.0714
  21434136.646     5301049.76249   4127125.60349  21434136.5064   21434141.2714
  23306114.161    -6420961.98649  -4990643.63949  23306113.7034   23306117.4394
  20900350.294   -14784812.71449 -11333613.19449  20900349.6194   20900353.9124
  20473400.761    -6952322.41249  -5414353.97149  20473399.8304   20473404.3564
  20941243.107   -15822831.639 9 -12315336.643 9  20941242.450    20941246.301
  22269480.354    -8671103.00649  -6749297.04849  22269480.1904   22269484.5214
 96  9 17 17 38  0.0000000  0  7 21  6 22 23 17 28 26
  23404871.045    -6186543.14049  -3746130.30149  23404869.8664   23404877.8024
  21445849.685     5362601.42449   4175087.90049  21445849.2774   21445854.1314
  23306561.052    -6418614.38149  -4988814.36049  23306559.6454   23306564.4034
  20890581.555   -14836147.99449 -11373614.70949  20890580.3424   20890585.5504
  20469341.809    -6973652.39049  -5430974.74149  20469340.7304   20469345.4544
  20928434.673   -15890140.182 9 -12367784.854 9  20928433.997    20928437.949
  22268493.482    -8676288.85449  -6753337.96849  22268493.3934   22268497.5644
 96  9 17 17 38 30.0000000  0  7 21  6 22 23 17 28 26
  23385492.702    -6288376.77849  -3825481.14449  23385491.8814   23385498.1024
  21457621.986     5424464.78349   4223293.08649  21457621.3784   21457625.4094
  23307084.209    -6415865.62849  -4986672.46849  23307082.5724   23307089.0304
  20880873.891   -14887162.18149 -11413366.01949  20880872.8834   20880877.4404
  20465315.829    -6994809.03349  -5447460.44049  20465314.6374   20465319.5334
  20915693.033   -15957098.272 9 -12419959.989 9  20915692.457    20915696.239
  22267594.692    -8681011.98849  -6757018.33149  22267594.1354   22267598.7354
 96  9 17 17 39  0.0000000  0  7 21  6 22 23 17 28 26
  23366131.313    -6390121.74949  -3904762.86249  23366130.8644   23366137.4644
  21469454.128     5486643.09949   4271743.69549  21469453.6474   21469457.4674
  23307683.684    -6412714.86349  -4984217.35949  23307682.9374   23307688.4134
  20871231.066   -14937835.60949 -11452851.80049  20871230.3284   20871234.7694
  20461323.834    -7015787.03949  -5463806.94049  20461322.7814   20461327.4624
  20903019.107   -16023700.064 9 -12471857.485 9  20903018.521    20903022.670
  22266788.008    -8685251.28349  -6760321.67849  22266787.2744   22266792.1524
 96  9 17 17 39 30.0000000  0  7 21  6 22 23 17 28 26
  23346795.800    -6491731.38049  -3983939.10949  23346794.9104   23346800.6894
  21481352.075     5549167.36649   4320463.87949  21481351.8404   21481355.6994
  23308366.920    -6409124.70849  -4981419.85049  23308367.4234   23308372.7234
  20861659.789   -14988132.98949 -11492044.55349  20861659.0044   20861663.4714
  20457374.976    -7036538.39549  -5479976.83449  20457374.0654   20457378.8034
  20890419.832   -16089909.768 9 -12523449.462 9  20890418.934    20890423.633
  22266082.914    -8688957.23949  -6763209.43849  22266082.0124   22266085.9604
 96  9 17 17 40  0.0000000  0  7 21  6 22 23 17 28 26
  23327486.768    -6593202.00949  -4063007.13549  23327486.4474   23327491.9794
  21493316.874     5612042.51849   4369457.47949  21493316.5574   21493320.7234
  23309137.434    -6405074.94849  -4978264.19149  23309136.5114   23309142.5624
  20852158.723   -15038061.77149 -11530950.09049  20852157.3824   20852162.3084
  20453472.756    -7057044.36349  -5495955.51449  20453471.6364   20453476.2134
  20877897.015   -16155717.422 9 -12574728.149 9  20877896.573    20877900.530
  22265480.324    -8692123.88849  -6765676.95949  22265480.2694   22265484.0304
 96  9 17 17 40 30.0000000  0  7 21  6 22 23 17 28 26
  23308203.613    -6694535.69249  -4141968.45849  23308202.5374   23308207.8214
  21505348.196     5675267.43449   4418723.62149  21505346.6884   21505352.6264
  23309996.262    -6400562.90549  -4974748.29249  23309995.0264   23310000.9594
  20842725.627   -15087632.79049 -11569576.86249  20842724.7424   20842729.3934
  20449615.596    -7077313.78949  -5511749.87049  20449614.8064   20449619.0794
  20865451.552   -16221119.396 9 -12625690.738 9  20865450.839    20865454.556
  22264983.402    -8694735.18549  -6767711.74149  22264982.8834   22264987.6454
 96  9 17 17 41  0.0000000  0  7 21  6 22 23 17 28 26
  23288963.881    -6795640.87449  -4220751.69849  23288962.4574   23288968.8304
  21517459.795     5738915.96849   4468319.83849  21517459.4734   21517464.3694
  23310957.278    -6395512.79049  -4970813.15649  23310954.3624   23310959.7514
  20833372.701   -15136782.64949 -11607875.44049  20833371.5774   20833376.5744
  20445817.836    -7097271.62249  -5527301.43549  20445816.8564   20445821.4884
  20853097.559   -16286040.170 9 -12676278.348 9  20853096.752    20853100.794
  22264608.442    -8696706.44249  -6769247.79649  22264608.0534   22264612.1764
 96  9 17 17 41 30.0000000  0  7 21  6 22 23 17 28 26
  23269784.992    -6896425.80549  -4299285.38849  23269782.9344   23269788.7744
  21529663.569     5803047.33249   4518292.30549  21529662.6754   21529667.7174
  23312033.622    -6389856.18449  -4966405.40549  23312030.9774   23312036.8034
  20824112.297   -15185446.36549 -11645795.21549  20824111.2884   20824115.9984
  20442093.388    -7116844.06649  -5542552.70749  20442092.3244   20442096.8784
  20840850.039   -16350401.439 9 -12726429.991 9  20840849.630    20840853.472
  22264369.555    -8697961.28049  -6770225.59449  22264369.2684   22264373.3204
 96  9 17 17 42  0.0000000  0  7 21  6 22 23 17 28 26
  23250660.209    -6996927.58649  -4377598.43549  23250659.5034   23250664.5114
  21541951.235     5867619.31549   4568608.11349  21541950.8384   21541954.9124
  23313218.547    -6383628.92349  -4961553.06149  23313216.6864   23313221.6914
  20814937.759   -15233659.18349 -11683363.63949  20814936.2894   20814941.5724
  20438429.553    -7136097.79149  -5557555.61149  20438428.7404   20438433.2354
  20828702.587   -16414237.273 9 -12776172.202 9  20828702.010    20828705.816
  22264259.797    -8698537.58449  -6770674.66349  22264259.9944   22264264.3984
 96  9 17 17 42 30.0000000  0  7 21  6 22 23 17 28 26
  23231578.769    -7097202.32549  -4455734.57849  23231578.9134   23231583.2594
  21554312.253     5932576.32949   4619223.95249  21554311.9404   21554316.2444
  23314496.968    -6376910.95749  -4956318.27549  23314495.1514   23314501.4494
  20805840.682   -15281464.60649 -11720614.62049  20805839.4774   20805844.4724
  20434812.569    -7155105.12349  -5572366.51549  20434811.5344   20434816.3664
  20816643.585   -16477607.896 9 -12825551.911 9  20816642.828    20816646.709
  22264269.535    -8698487.17249  -6770635.38949  22264268.7774   22264273.3904
 96  9 17 17 43  0.0000000  0  7 21  6 22 23 17 28 26
  23212537.432    -7197266.07649  -4533706.30049  23212536.5154   23212541.5894
  21566740.128     5997885.05849   4670113.82749  21566739.2374   21566744.1784
  23315863.165    -6369731.50749  -4950723.93749  23315862.7744   23315866.7224
  20796819.295   -15328872.09249 -11757555.50949  20796818.1824   20796822.8164
  20431238.597    -7173886.74649  -5587001.56049  20431237.5594   20431242.0334
  20804668.721   -16540536.429 9 -12874587.134 9  20804667.768    20804671.676
  22264387.773    -8697865.13749  -6770150.69449  22264387.5254   22264391.2104
 96  9 17 17 43 30.0000000  0  7 21  6 22 23 17 28 26
  23193543.312    -7297081.29949  -4611484.38049  23193543.0144   23193546.1804
  21579243.444     6063590.70649   4721313.01249  21579243.2814   21579247.4854
  23317326.449    -6362043.05449  -4944732.95849  23317325.4914   23317329.9824
  20787882.315   -15375835.87649 -11794150.66049  20787881.1294   20787886.0034
  20427715.473    -7192401.15249  -5601428.38049  20427714.4884   20427719.1204
  20792787.344   -16602972.960 9 -12923238.986 9  20792786.423    20792790.422
  22264622.115    -8696633.77249  -6769191.19249  22264621.9634   22264626.2664
 96  9 17 17 44  0.0000000  0  7 21  6 22 23 17 28 26
  23174593.668    -7396661.34449  -4689079.17249  23174592.2044   23174597.7134
  21591822.981     6129696.51449   4772824.00949  21591822.4824   21591827.5314
  23318885.596    -6353850.10749  -4938348.87649  23318885.6114   23318888.1854
  20779028.868   -15422360.94049 -11830403.94749  20779027.7184   20779033.0914
  20424243.485    -7210646.47449  -5615645.51849  20424242.4114   20424246.9204
  20780999.113   -16664920.117 9 -12971509.502 9  20780998.494    20781001.997
  22264971.808    -8694796.21849  -6767759.35149  22264971.7314   22264975.8114
 96  9 17 17 44 30.0000000  0  7 21  6 22 23 17 28 26
  23155684.253    -7496029.50549  -4766508.85949  23155683.3644   23155689.1684
  21604475.882     6196187.47149   4824635.11349  21604476.3324   21604480.5164
  23320533.644    -6345189.55249  -4931600.36649  23320532.3414   23320537.5184
  20770256.050   -15468462.85349 -11866327.50749  20770255.1624   20770260.2174
  20420821.805    -7228627.68549  -5629656.85449  20420820.7004   20420825.4064
  20769299.607   -16726402.200 9 -13019417.620 9  20769298.704    20769302.606
  22265429.832    -8692389.13949  -6765883.70249  22265429.4544   22265433.9234
 96  9 17 17 45  0.0000000  0  7 21  6 22 23 17 28 26
  23136824.427    -7595138.05449  -4843736.24249  23136822.9114   23136828.3214
  21617209.486     6263103.14049   4876777.17149  21617208.8784   21617213.7614
  23322278.880    -6336017.95449  -4924453.66749  23322276.7144   23322279.3504
  20761569.916   -15514108.85649 -11901895.81549  20761568.8254   20761573.6334
  20417457.956    -7246305.41249  -5643431.70249  20417456.9394   20417461.0904
  20757696.420   -16787377.009 9 -13066930.461 9  20757695.596    20757700.015
  22266002.505    -8689380.15549  -6763539.04349  22266002.7474   22266006.0354
 96  9 17 17 45 30.0000000  0  7 21  6 22 23 17 28 26
  23118030.006    -7693903.42749  -4920696.24349  23118029.1614   23118034.6864
  21630043.733     6330547.06849   4929330.85649  21630043.0534   21630046.9494
  23324140.060    -6326235.95349  -4916831.40149  23324138.4254   23324142.5784
  20752987.609   -15559208.98749 -11937038.77549  20752986.4264   20752991.3914
  20414169.570    -7263585.86549  -5656896.98849  20414168.6054   20414173.0214
  20746208.452   -16847746.658 9 -13113971.741 9  20746207.729    20746212.207
  22266711.876    -8685652.48449  -6760634.37249  22266711.2474   22266716.3244
 96  9 17 17 46  0.0000000  0  7 21  6 22 23 17 28 26
  23099290.601    -7792379.32349  -4997430.59549  23099288.2954   23099296.1164
  21642970.871     6398479.86149   4982265.46849  21642970.8534   21642974.6394
  23326106.534    -6315902.50249  -4908779.38949  23326105.9934   23326112.0614
  20744500.755   -15603807.49549 -11971790.87349  20744499.7524   20744504.3144
  20410946.261    -7280524.57049  -5670095.98549  20410944.9074   20410949.9594
  20734825.879   -16907562.367 9 -13160581.395 9  20734825.089    20734829.469
  22267547.428    -8681261.63849  -6757212.93249  22267547.2484   22267551.5584
 96  9 17 17 46 30.0000000  0  8 21  6 22  3 23 17 28 26
  23080596.206    -7890617.99049  -5073980.16749  23080595.8464   23080601.5284
  21655979.836     6466841.26949   5035534.06949  21655979.2684   21655983.7554
  23328167.058    -6305076.56049  -4900343.62249  23328165.2074   23328172.4294
  24112965.895                                    24112971.857    24112951.9624
  20736098.735   -15647960.29649 -12006195.64549  20736097.8284   20736102.6014
  20407776.939    -7297178.91249  -5683073.40049  20407776.2504   20407780.2434
  20723537.860   -16966881.008 9 -13206803.707 9  20723537.184    20723541.090
  22268494.782    -8676283.20049  -6753333.63849  22268494.1724   22268498.3584
 96  9 17 17 46 59.9990000  0  8 21  6 22  3 23 17 28 26
  23061942.375    -7988646.13549  -5150365.70149  23061941.7704   23061947.3104
  21669061.718     6535586.79449   5089101.99249  21669061.4614   21669066.4194
  23330318.091    -6293773.09649  -4891535.72449  23330315.7684   23330325.0074
  24090546.577                                    24090551.188    24090548.2004
  20727773.430   -15691710.21849 -12040286.49849  20727772.2324   20727777.3494
  20404658.657    -7313565.89549  -5695842.48549  20404657.5704   20404662.2574
  20712340.919   -17025721.387 9 -13252653.354 9  20712340.055    20712344.130
  22269549.360    -8670741.63949  -6749015.53949  22269549.0224   22269553.5224
 96  9 17 17 47 29.9990000  0  8 21  6 22  3 23 17 28 26
  23043323.839    -8086487.90449  -5226605.99949  23043322.3504   23043328.6294
  21682217.191     6604719.29149   5142971.42949  21682216.2944   21682221.7804
  23332557.673    -6282003.04949  -4882364.28649  23332554.7084   23332560.1844
  24068142.799                                    24068150.336    24068156.1064
  20719521.656   -15735073.16849 -12074075.80149  20719520.5944   20719525.8584
  20401591.732    -7329682.75349  -5708401.08249  20401591.0224   20401594.9964
  20701234.186   -17084087.589 9 -13298133.508 9  20701233.164    20701237.217
  22270709.944    -8664642.05449  -6744262.61649  22270710.0284   22270714.2244
 96  9 17 17 47 59.9990000  0  8 21  6 22  3 23 17 28 26
  23024744.765    -8184121.42249  -5302684.02549  23024743.7924   23024749.4364
  21695448.625     6674251.16249   5197152.07249  21695447.5744   21695453.2354
  23334886.776    -6269764.22049  -4872827.54949  23334885.8054   23334890.5804
  24045767.342                                    24045773.827    24045766.3844
  20711346.420   -15778034.28149 -12107551.99249  20711345.5244   20711350.3454
  20398581.164    -7345503.51849  -5720728.95749  20398580.3874   20398584.7704
  20690221.805   -17141957.706 9 -13343227.104 9  20690220.918    20690225.180
  22271978.926    -8657973.68249  -6739066.48249  22271978.4504   22271983.4104
 96  9 17 17 48 29.9990000  0  8 21  6 22  3 23 17 28 26
  23006200.475    -8281571.77649  -5378619.31949  23006199.4104   23006205.8564
  21708745.887     6744130.47149   5251603.44649  21708744.8094   21708750.7224
  23337298.444    -6257090.54249  -4862951.99149  23337296.6164   23337300.0004
  24023414.135     -275732.40359                  24023413.267    24023418.3434
  20703240.277   -15820632.40949 -12140745.32949  20703239.4964   20703243.8644
  20395621.749    -7361055.90449  -5732847.71649  20395620.7764   20395624.8384
  20679298.617   -17199359.843 9 -13387956.043 9  20679298.070    20679302.041
  22273351.899    -8650758.43249  -6733444.22649  22273351.6204   22273356.2674
 96  9 17 17 48 59.9990000  0  8 21  6 22  3 23 17 28 26
  22987694.178    -8378822.21349  -5454398.87549  22987692.6224   22987698.2034
  21722112.244     6814371.55949   5306336.74349  21722112.1654   21722116.6964
  23339796.023    -6243966.96849  -4852725.88249  23339795.5364   23339799.8884
  24001087.089     -864230.39759   -367155.81449  24001085.9844   24001090.8474
  20695204.764   -15862859.83149 -12173649.80749  20695203.7694   20695208.1084
  20392714.102    -7376335.56049  -5744753.94049  20392713.3584   20392717.6844
  20668468.336   -17256273.284 9 -13432304.167 9  20668467.558    20668471.886
  22274836.222    -8642958.20449  -6727366.13249  22274836.3124   22274840.0924
 96  9 17 17 49 29.9990000  0  8 21  6 22  3 23 17 28 26
  22969230.375    -8475850.49449  -5530005.29149  22969229.6334   22969235.2034
  21735551.983     6884995.63249   5361368.45249  21735551.9214   21735556.7324
  23342380.716    -6230384.88849  -4842142.49149  23342381.7854   23342383.8284
  23978790.294     -981401.68549   -458458.09149  23978790.4794   23978793.8874
  20687246.733   -15904679.65249 -12206236.66949  20687245.7784   20687250.2344
  20389858.457    -7391342.13449  -5756447.37949  20389857.2664   20389861.7144
  20657734.332   -17312680.767 9 -13476258.044 9  20657733.848    20657738.066
  22276437.085    -8634545.40749  -6720810.72149  22276436.9044   22276441.1904
 96  9 17 17 49 59.9990000  0  8 21  6 22  3 23 17 28 26
  22950823.048    -8572581.40049  -5605379.96749  22950821.0874   22950828.0084
  21749073.129     6956048.59549   5416734.35749  21749072.8304   21749077.8154
  23345064.196    -6216282.59449  -4831153.70749  23345062.7694   23345069.0224
  23956534.910    -1098357.07049   -549592.13049  23956535.1164   23956540.5614
  20679378.964   -15946024.77549 -12238453.64049  20679377.6354   20679382.9374
  20387063.951    -7406027.76649  -5767890.73049  20387062.6904   20387067.2844
  20647106.934   -17368528.602 9 -13519775.835 9  20647106.266    20647110.290
  22278165.029    -8625465.05049  -6713735.11949  22278164.8774   22278168.9874
 96  9 17 17 50 29.9990000  0  8 21  6 22  3 23 17 28 26
  22932481.225    -8668966.96549  -5680485.57949  22932479.1254   22932486.3974
  21762680.914     7027558.96449   5472456.67549  21762680.3204   21762685.4234
  23347854.745    -6201617.79849  -4819726.60449  23347852.3984   23347858.8324
  23934326.385    -1215063.30449   -640532.03949  23934325.1414   23934333.5604
  20671606.219   -15986869.79949 -12270280.92349  20671605.0364   20671610.1514
  20384335.185    -7420367.43549  -5779064.50549  20384333.8594   20384338.5574
  20636592.180   -17423784.220 9 -13562832.161 9  20636591.555    20636595.385
  22280024.747    -8615692.40949  -6706120.07649  22280024.6404   22280028.7314
 96  9 17 17 50 59.9990000  0  8 21  6 22  3 23 17 28 26
  22914191.169    -8765080.92249  -5755379.57849  22914191.2164   22914195.3844
  21776366.544     7099477.49549   5528497.04649  21776365.8764   21776370.0654
  23350739.276    -6186458.77049  -4807914.38349  23350739.7894   23350742.1554
  23912152.288    -1331588.90649   -731331.18649  23912151.4424   23912158.3834
  20663916.914   -16027277.20549 -12301767.20949  20663916.0794   20663921.3714
  20381660.599    -7434422.28149  -5790016.34449  20381659.4714   20381664.1444
  20626177.742   -17478512.416 9 -13605477.510 9  20626177.365    20626180.680
  22282001.573    -8605304.36349  -6698025.49949  22282001.6514   22282005.0604
 96  9 17 17 51 29.9990000  0  8 21  6 22  3 23 17 28 26
  22895939.865    -8860992.72449  -5830116.00449  22895940.0914   22895944.1604
  21790116.022     7171731.98249   5584799.21249  21790115.1974   21790119.5584
  23353705.403    -6170872.22749  -4795769.09849  23353704.3474   23353707.0684
  23889999.088    -1448005.08049   -822045.06449  23889999.0584   23890003.3544
  20656301.451   -16067297.23149 -12332951.64749  20656300.6014   20656305.1244
  20379029.196    -7448249.96949  -5800791.16549  20379028.1624   20379032.8204
  20615851.441   -17532777.845 9 -13647762.258 9  20615850.773    20615854.574
  22284080.535    -8594380.35049  -6689513.26949  22284079.8734   22284084.2674
 96  9 17 17 51 59.9990000  0  8 21  6 22  3 23 17 28 26
  22877723.449    -8956721.63649  -5904709.90849  22877723.0824   22877727.6734
  21803925.241     7244299.46949   5641345.27249  21803925.4664   21803929.0514
  23356750.394    -6154871.80349  -4783301.26349  23356747.8404   23356754.1754
  23867865.350    -1564319.74849   -912679.84149  23867864.6314   23867867.7334
  20648753.962   -16106959.40449 -12363857.22749  20648753.0864   20648757.5434
  20376438.868    -7461862.86849  -5811398.62449  20376438.0754   20376442.5174
  20605610.199   -17586595.947 9 -13689698.447 9  20605609.623    20605613.651
  22286255.565    -8582950.47549  -6680606.88649  22286254.6874   22286259.6704
 96  9 17 17 52 29.9990000  0  8 21  6 22  3 23 17 28 26
  22859538.875    -9052281.80749  -5979172.32149  22859537.5214   22859543.7124
  21817795.815     7317189.01049   5698142.28749  21817795.0654   21817799.7344
  23359874.186    -6138456.23649  -4770510.00449  23359875.6954   23359874.8894
  23845750.143    -1680534.50149  -1003236.75449  23845749.7214   23845753.3334
  20641274.900   -16146262.43249 -12394482.95349  20641274.0134   20641278.6424
  20373890.812    -7475253.66849  -5821833.01349  20373889.8704   20373894.1854
  20595455.802   -17639957.926 9 -13731279.209 9  20595454.813    20595459.212
  22288527.809    -8571009.41449  -6671302.17149  22288527.5334   22288531.9174
 96  9 17 17 52 59.9990000  0  8 21  6 22  3 23 17 28 26
  22841387.983    -9147664.80249  -6053496.71549  22841387.4574   22841391.2174
  21831729.569     7390412.09949   5755199.18549  21831729.4484   21831734.0364
  23363078.720    -6121614.99049  -4757387.03949  23363076.9984   23363082.3724
  23823657.265    -1796634.33749  -1093704.12749  23823657.0254   23823661.5004
  20633871.398   -16185168.44249 -12424799.32849  20633871.0884   20633875.1924
  20371387.339    -7488409.60849  -5832084.40249  20371386.1534   20371390.6184
  20585391.612   -17692845.652 9 -13772490.420 9  20585390.511    20585394.909
  22290901.306    -8558536.00049  -6661582.63649  22290900.6914   22290905.8894
 96  9 17 17 53 29.9990000  0  8 21  6 22  3 23 17 28 26
  22823275.828    -9242844.41049  -6127662.60549  22823274.7464   22823280.5694
  21845726.568     7463966.20449   5812514.02749  21845726.0094   21845731.3194
  23366368.886    -6104323.78749  -4743913.39549  23366368.8994   23366372.8764
  23801589.334    -1912603.19149  -1184069.43549  23801589.0034   23801593.7644
  20626545.979   -16223664.46349 -12454796.21649  20626545.1804   20626549.5844
  20368930.353    -7501320.70949  -5842145.01049  20368929.0544   20368933.7884
  20575420.223   -17745245.476 9 -13813321.449 9  20575419.384    20575423.664
  22293379.992    -8545510.29549  -6651432.74049  22293379.3454   22293383.9914
 96  9 17 17 53 59.9990000  0  8 21  6 22  3 23 17 28 26
  22805205.073    -9337807.15549  -6201659.56449  22805204.2764   22805210.7734
  21859790.091     7537870.26949   5870101.56049  21859789.4834   21859794.8764
  23369744.443    -6086584.80549  -4730090.80849  23369743.8734   23369750.6734
  23779547.305    -2028435.64549  -1274328.45449  23779546.9424   23779550.3834
  20619297.041   -16261758.18249 -12484479.63549  20619295.4194   20619300.1544
  20366522.303    -7513974.90849  -5852005.43249  20366521.3614   20366525.7714
  20565542.760   -17797151.845 9 -13853767.977 9  20565542.002    20565545.934
  22295965.476    -8531923.90249  -6640845.94249  22295965.2644   22295969.8044
 96  9 17 17 54 29.9990000  0  8 21  6 22  3 23 17 28 26
  22787175.376    -9432553.57849  -6275487.92049  22787174.5174   22787179.4754
  21873919.469     7612120.61949   5927958.94149  21873919.1214   21873924.0844
  23373203.649    -6068407.52449  -4715926.75049  23373203.1184   23373208.8214
  23757532.066    -2144126.31449  -1364476.99449  23757529.9744   23757535.7664
  20612123.603   -16299453.98049 -12513852.97049  20612122.5844   20612127.2034
  20364162.762    -7526374.64749  -5861667.56549  20364161.4844   20364166.1834
  20555758.732   -17848566.988 9 -13893831.715 9  20555757.825    20555761.965
  22298657.749    -8517776.81949  -6629822.22949  22298657.3114   22298661.4174
 96  9 17 17 54 59.9990000  0  8 21  6 22  3 23 17 28 26
  22769191.879    -9527058.49749  -6349128.07549  22769191.5274   22769195.6154
  21888114.816     7686717.37249   5986086.25849  21888113.7244   21888119.0144
  23376748.240    -6049780.99049  -4701412.60349  23376748.8244   23376751.6154
  23735549.062    -2259645.46549  -1454491.90049  23735547.9924   23735553.3724
  20605028.984   -16336736.62949 -12542904.37949  20605028.2964   20605032.3194
  20361855.541    -7538498.84549  -5871114.99249  20361854.3424   20361858.9984
  20546070.970   -17899476.357 9 -13933501.360 9  20546070.122    20546074.227
  22301460.416    -8503048.35549  -6618345.51649  22301459.6214   22301464.7664
 96  9 17 17 55 29.9990000  0  8 21  6 22  3 23 17 28 26
  22751261.814    -9621281.37449  -6422548.44449  22751260.7004   22751265.2994
  21902384.214     7761704.11149   6044517.43649  21902382.7964   21902388.6004
  23380386.506    -6030661.13649  -4686514.07449  23380385.8764   23380388.9894
  23713610.146    -2374934.33449  -1544327.35449  23713610.2294   23713615.2254
  20598017.964   -16373579.58149 -12571613.16349  20598017.4094   20598021.4804
  20359611.103    -7550292.96049  -5880305.21349  20359610.3054   20359614.7804
  20536488.688   -17949831.445 9 -13972739.082 9  20536487.765    20536491.956
  22304382.758    -8487690.52349  -6606378.36849  22304382.7774   22304387.1014
 96  9 17 17 55 59.9990000  0  8 21  6 22  3 23 17 28 26
  22733383.342    -9715231.37449  -6495756.17949  22733381.0184   22733386.2134
  21916727.161     7837076.61249   6103249.22149  21916726.8464   21916731.3504
  23384115.482    -6011065.91949  -4671245.06449  23384115.5644   23384120.6424
  23691717.510    -2489981.92549  -1633974.80649  23691717.1654   23691722.2834
  20591088.955   -16409992.04249 -12599986.50849  20591087.5574   20591092.2744
  20357429.710    -7561756.57649  -5889237.90249  20357428.4164   20357433.3484
  20527012.029   -17999631.323 9 -14011544.186 9  20527010.906    20527015.256
  22307424.543    -8471705.90349  -6593922.83849  22307423.8124   22307428.5914
 96  9 17 17 56 29.9990000  0  8 21  6 22  3 23 17 28 26
  22715554.916    -9808919.52149  -6568759.93749  22715553.7994   22715559.4524
  21931140.659     7912818.76849   6162269.04049  21931140.3274   21931145.4484
  23387935.214    -5990990.89549  -4655602.15149  23387935.2794   23387940.9814
  23669871.747    -2604782.81349  -1723430.04049  23669871.1694   23669873.8654
  20584240.994   -16445978.25049 -12628027.71249  20584240.1474   20584244.5944
  20355310.663    -7572891.81249  -5897914.72049  20355309.6924   20355314.1484
  20517641.313   -18048874.013 9 -14049915.109 9  20517640.533    20517644.646
  22310584.916    -8455098.40749  -6580981.93349  22310584.2844   22310588.6454
 96  9 17 17 56 59.9990000  0  8 21  6 22  3 23 17 28 26
  22697774.727    -9902355.10749  -6641566.83249  22697773.3784   22697779.9764
  21945621.947     7988918.13749   6221567.21549  21945621.5624   21945626.3724
  23391844.269    -5970452.19449  -4639597.98249  23391839.2674   23391843.1744
  23648068.312    -2719361.22549  -1812711.93049  23648067.4744   23648070.0574
  20577471.822   -16481550.57449 -12655746.41249  20577470.9534   20577475.7944
  20353251.202    -7583714.20449  -5906347.74749  20353250.0884   20353255.0274
  20508375.091   -18097568.573 9 -14087858.922 9  20508374.458    20508378.577
  22313861.236    -8437880.63049  -6567565.49749  22313860.5664   22313865.4694
 96  9 17 17 57 29.9990000  0  8 21  6 22  3 23 17 28 26
  22680042.367    -9995539.85449  -6714178.32549  22680042.2134   22680047.2804
  21960170.642     8065371.77949   6281141.43649  21960169.7714   21960175.0714
  23395840.397    -5949452.91349  -4623234.98849  23395845.1234   23395844.9044
  23626303.534    -2833734.92949  -1901834.26449  23626302.5414   23626306.7714
  20570779.619   -16516718.71849 -12683150.14949  20570778.5064   20570783.4454
  20351249.337    -7594234.52949  -5914545.40549  20351248.2544   20351252.7264
  20499212.631   -18145717.655 9 -14125377.684 9  20499212.171    20499216.117
  22317249.468    -8420075.50049  -6553691.38449  22317249.6604   22317253.8394
 96  9 17 17 57 59.9990000  0  8 21  6 22  3 23 17 28 26
  22662362.826   -10088446.64949  -6786573.18149  22662362.8834   22662367.8534
  21974788.791     8142191.14849   6341000.66149  21974788.2214   21974792.9224
  23399923.804    -5927990.56249                  23399921.6714   23399923.3834
  23604578.137    -2947901.10249  -1990794.87949  23604575.9524   23604581.2234
  20564167.434   -16551465.84449 -12710225.83349  20564166.5844   20564170.9354
  20349307.148    -7604440.74549  -5922498.30049  20349305.9294   20349310.8564
  20490155.884   -18193311.301 9 -14162463.638 9  20490155.201    20490159.402
  22320748.339    -8401689.61249  -6539364.72149  22320748.2084   22320752.7624
 96  9 17 17 58 29.9990000  0  7 21  6  3 23 17 28 26
  22644738.404   -10181063.75449  -6858742.35449  22644737.6944   22644743.0554
  21989478.434     8219386.12249   6401152.56149  21989478.2314   21989483.3334
  23582892.177    -3061859.45949  -2079593.53949  23582891.8744   23582898.2664
  20557639.617   -16585770.06349 -12736956.39149  20557638.6034   20557642.8734
  20347424.736    -7614332.41049  -5930206.09449  20347423.6824   20347428.3994
  20481206.615   -18240340.098 9 -14199109.456 9  20481205.886    20481210.254
  22324357.066    -8382726.13249  -6524587.98249  22324357.2594   22324361.3204
 96  9 17 17 58 59.9990000  0  7 21  6  3 23 17 28 26
  22627173.032   -10273370.66249  -6930669.77649  22627171.8654   22627176.9774
  22004242.421     8296971.46149   6461608.62849  22004242.2904   22004248.0464
  23561248.943    -3175596.79349  -2168220.02749  23561248.0874   23561252.8894
  20551201.448   -16619603.02049 -12763319.73749  20551200.2604   20551204.2754
  20345603.145    -7623905.00949  -5937665.27049  20345601.9334   20345606.8584
  20472366.896   -18286792.852 9 -14235306.403 9  20472366.206    20472370.464
  22328077.201    -8363177.30549  -6509355.14349  22328076.6344   22328081.3484
 96  9 17 17 59 29.9990000  0  7 21  6  3 23 17 28 26
  22609674.824   -10365322.77549  -7002320.73749  22609674.3884   22609678.8094
  22019091.461     8375002.99449   6522412.37849  22019091.0104   22019096.2844
  23539660.765    -3289044.39149  -2256620.74349  23539660.3024   23539665.1034
  20544862.515   -16652913.68549 -12789276.09349  20544861.5384   20544865.9924
  20343853.378    -7633099.33649  -5944829.68349  20343852.4944   20343857.1934
  20463646.480   -18332618.782 9 -14271014.923 9  20463645.723    20463649.835
  22331918.742    -8342989.86249  -6493624.67549  22331918.4154   22331922.9244
 96  9 17 17 59 59.9990000  0  7 21  6  3 23 17 28 26
  22592252.106   -10456879.82849  -7073663.86049  22592251.6204   22592256.7754
  22034036.192     8453537.62449   6583608.15149  22034035.7244   22034040.3814
  23518138.411    -3402145.75249  -2344751.67249  23518138.0224   23518142.0584
  20538631.900   -16685656.12849 -12814789.68549  20538630.8324   20538635.5914
  20342184.120    -7641871.78549  -5951665.36049  20342182.9804   20342187.6964
  20455054.401   -18377770.598 9 -14306198.152 9  20455053.671    20455057.880
  22335892.451    -8322108.17949  -6477353.24849  22335892.2544   22335896.8584
 96  9 17 18  0 29.9990000  0  7 21  6  3 23 17 28 26
  22574905.940   -10548035.10649  -7144693.92649  22574905.2384   22574910.4804
  22049082.095     8532604.03649   6645218.30449  22049081.5884   22049086.2064
  23496687.911    -3514868.91949  -2432587.87149  23496687.4824   23496690.0554
  20532514.801   -16717802.02249 -12839838.42849  20532513.8064   20532518.1104
  20340598.519    -7650204.30249  -5958158.23449  20340597.4674   20340601.8214
  20446597.364   -18422212.563 9 -14340828.255 9  20446596.945    20446600.477
  22340008.059    -8300480.44549  -6460500.48649  22340007.6554   22340012.5664
 96  9 17 18  0 59.9990000  0  7 21  6  3 23 17 28 26
  22557631.975   -10638809.15449  -7215426.90649  22557630.8374   22557636.9514
  22064224.737     8612178.03049   6707223.98049  22064223.8964   22064229.2704
  23475304.532    -3627240.33249  -2520149.98249  23475302.5364   23475308.3684
  20526504.670   -16749385.54849 -12864448.96649  20526503.6574   20526508.0854
  20339094.295    -7658109.13449  -5964317.85549  20339093.5894   20339098.0024
  20438271.950   -18465962.982 9 -14374919.498 9  20438271.709    20438275.500
  22344263.742    -8278116.20649  -6443073.82449  22344263.2384   22344268.2844
 96  9 17 18  1 29.9990000  0  7 21  6  3 23 17 28 26
  22540415.812   -10729280.10049  -7285923.71349  22540415.4954   22540420.8244
  22079446.214     8692167.74749   6769553.59349  22079445.4384   22079450.5134
  23453971.541    -3739344.12449  -2607503.55849  23453968.4364   23453975.2894
  20520581.466   -16780512.43549 -12888703.69049  20520580.4784   20520584.8684
  20337655.499    -7665670.13849  -5970209.54849  20337654.4654   20337658.9064
  20430063.526   -18509099.176 9 -14408532.120 9  20430062.882    20430066.573
  22348643.906    -8255098.06249  -6425137.61549  22348643.3264   22348648.2924
 96  9 17 18  1 59.9990000  0  7 21  6  3 23 17 28 26
  22523245.486   -10819511.23849  -7356233.68849  22523245.4524   22523250.4244
  22094732.034     8772494.33349   6832145.70049  22094731.4364   22094737.0264
  23432676.261    -3851250.86549  -2694703.58649  23432674.8674   23432680.8214
  20514733.394   -16811243.88449 -12912650.26949  20514732.3064   20514736.6074
  20336268.540    -7672958.94149  -5975889.14549  20336267.8654   20336272.5254
  20421960.896   -18551679.155 9 -14441711.336 9  20421960.271    20421964.115
  22353136.644    -8231488.75349  -6406740.76449  22353135.8964   22353141.1204
 96  9 17 18  2 29.9990000  0  7 21  6  3 23 17 28 26
  22506111.268   -10909552.27349  -7426395.47249  22506110.5444   22506115.6504
  22110069.277     8853093.10649   6894949.89049  22110069.0884   22110073.6124
  23411408.725    -3963012.36349  -2781790.42249  23411406.0914   23411411.9694
  20508949.854   -16841636.23749 -12936332.62349  20508949.1004   20508953.3404
  20334922.382    -7680032.70349  -5981401.17049  20334921.1374   20334925.8254
  20413954.496   -18593753.220 9 -14474496.327 9  20413953.624    20413957.743
  22357733.186    -8207334.06249  -6387918.94849  22357732.8844   22357737.7684
 96  9 17 18  2 59.9990000  0  7 21  6  3 23 17 28 26
  22489015.576   -10999390.72849  -7496399.43649  22489014.6694   22489019.8374
  22125456.059     8933951.18649   6957956.13949  22125456.0564   22125460.3274
  23390171.027    -4074616.03749  -2868754.26849  23390170.5624   23390174.3724
  20503228.993   -16871699.45949 -12959758.50849  20503228.2504   20503232.4534
  20333619.388    -7686880.27849  -5986736.94649  20333618.5694   20333622.8594
  20406043.230   -18635326.679 9 -14506891.227 9  20406042.191    20406046.389
  22362429.934    -8182652.67449  -6368686.71949  22362429.7624   22362434.3094
 96  9 17 18  3 29.9990000  0  7 21  6  3 23 17 28 26
  22471954.041   -11089050.52649  -7566264.18649  22471952.5214   22471958.3044
  22140887.693     9015043.46649   7021144.89049  22140887.1834   22140890.8674
  23368963.561    -4186062.88149  -2955595.94549  23368962.1344   23368967.7124
  20497568.273   -16901446.95149 -12982938.37949  20497567.2394   20497571.7874
  20332355.387    -7693522.69149  -5991912.85749  20332354.4044   20332358.7704
  20398223.671   -18676418.750 9 -14538911.016 9  20398223.034    20398227.009
  22367221.758    -8157471.57249  -6349065.09749  22367221.1954   22367226.1364
 96  9 17 18  3 59.9990000  0  7 21  6  3 23 17 28 26
  22454928.255   -11178521.28649  -7635981.64149  22454927.0374   22454931.8184
  22156369.707     9096402.27049   7084541.33749  22156369.6344   22156372.8734
  23347791.636    -4297320.25949  -3042290.00849  23347790.8514   23347796.0004
  20491974.677   -16930841.77349 -13005843.43949  20491973.8924   20491978.1614
  20331135.617    -7699932.11149  -5996907.22049  20331134.3994   20331139.3594
  20390499.461   -18717009.682 9 -14570540.325 9  20390498.582    20390502.744
  22372111.902    -8131773.22749  -6329040.43849  22372110.9904   22372116.1114
 96  9 17 18  4 29.9990000  0  7 21  6  3 23 17 28 26
  22437946.328   -11267760.73949  -7705518.85649  22437945.5934   22437950.7104
  22171909.390     9178063.77349   7148173.65549  22171909.0474   22171913.1574
  23326664.290    -4408346.21949  -3128803.70949  23326663.3974   23326669.2134
  20486454.263   -16959851.58549 -13028448.48749  20486452.9744   20486457.9114
  20329968.367    -7706065.91749  -6001686.81249  20329967.5164   20329972.4324
  20382876.082   -18757070.924 9 -14601756.871 9  20382875.699    20382879.544
  22377102.940    -8105546.54449  -6308604.07549  22377102.9844   22377106.8124
 96  9 17 18  4 59.9990000  0  7 21  6  3 23 17 28 26
  22421020.160   -11356708.40949  -7774828.70549  22421019.8514   22421025.4664
  22187516.360     9260078.79949   7212081.40549  22187515.6734   22187520.2594
  23305592.652    -4519076.58149  -3215087.09249  23305591.6754   23305595.8114
  20481020.629   -16988405.36249 -13050698.18249  20481019.5054   20481023.9994
  20328866.773    -7711855.20749  -6006197.95649  20328865.9594   20328870.3484
  20375364.160   -18796546.847 9 -14632517.345 9  20375363.499    20375367.534
  22382202.052    -8078750.44349  -6287724.00249  22382201.2544   22382205.1734
 96  9 17 18  5 29.9990000  0  7 21  6  3 23 17 28 26
  22404144.115   -11445393.04549  -7843933.59849  22404143.2744   22404148.4824
  22203187.945     9342434.48049   7276254.61249  22203186.8144   22203192.9754
  23284570.790    -4629546.75849  -3301167.73549  23284570.5874   23284575.1644
  20475670.911   -17016518.24849 -13072604.32949  20475670.0694   20475674.6784
  20327824.659    -7717332.41649  -6010465.91949  20327823.4614   20327828.5124
  20367958.772   -18835462.679 9 -14662841.370 9  20367958.056    20367961.964
  22387405.504    -8051405.32949  -6266416.13849  22387404.6024   22387408.9504
 96  9 17 18  5 59.9990000  0  7 21  6  3 23 17 28 26
  22387326.860   -11533768.54449  -7912797.62849  22387326.5064   22387330.8994
  22218930.919     9425164.19149   7340719.27949  22218930.9244   22218935.7784
  23263607.087    -4739712.12249  -3387010.85549  23263606.7604   23263612.2524
  20470412.792   -17044150.39149 -13094135.86549  20470412.0694   20470416.1764
  20326851.082    -7722448.45749  -6014452.45349  20326850.3644   20326854.5304
  20360668.140   -18873775.236 9 -14692695.309 9  20360667.433    20360671.449
  22392722.471    -8023464.53249  -6244644.11249  22392722.0214   22392725.9934
 96  9 17 18  6 29.9990000  0  7 21  6  3 23 17 28 26
  22370562.058   -11621868.68249  -7981447.05049  22370561.0634   22370567.6974
  22234732.641     9508201.91449   7405423.97649  22234731.5464   22234736.3214
  23242692.831    -4849618.01149  -3472651.80549  23242693.1784   23242696.3224
  20465237.695   -17071345.63749 -13115326.97449  20465236.9914   20465241.0044
  20325939.967    -7727236.48449  -6018183.39449  20325938.7854   20325943.7154
  20353485.009   -18911522.569 9 -14722108.822 9  20353484.286    20353488.283
  22398147.484    -7994955.60649  -6222429.38249  22398147.5154   22398151.8834
 96  9 17 18  6 59.9990000  0  7 21  6  3 23 17 28 26
  22353842.972   -11709728.42849  -8049909.15649  22353842.6274   22353847.5704
  22250587.838     9591521.92249   7470348.62749  22250586.5794   22250592.2344
  23221821.563    -4959297.85149  -3558116.59249  23221820.6684   23221826.5874
  20460138.410   -17098142.69249 -13136207.77849  20460137.3424   20460141.9284
  20325085.678    -7731725.34049  -6021681.20949  20325084.9174   20325089.0234
  20346404.939   -18948728.666 9 -14751100.589 9  20346404.058    20346408.157
  22403678.080    -7965892.51549  -6199782.83249  22403677.3674   22403681.8314
 96  9 17 18  7 29.9990000  0  8 21  6 22  3 23 17 28 26
  22337167.730   -11797357.49949  -8118191.54149  22337166.2224   22337170.8244
  22266495.107     9675114.93049   7535485.97249  22266493.8974   22266498.2104
  23494709.374                                    23494706.003    23494780.0264
  23200991.740    -5068759.28549  -3643411.20849  23200990.5784   23200994.8784
  20455109.345   -17124570.32649 -13156800.73349  20455108.2034   20455113.1474
  20324285.139    -7735932.01649  -6024959.13749  20324284.3214   20324289.4094
  20339427.228   -18985396.850 9 -14779673.206 9  20339426.808    20339430.579
  22409311.654    -7936288.28849  -6176714.61349  22409311.2774   22409316.0814
 96  9 17 18  7 59.9990000  0  7 21  6  3 23 17 28 26
  22320544.542   -11884712.90549  -8186260.65749  22320544.0194   22320548.8444
  22282458.085     9759002.05949   7600852.50949  22282457.4864   22282462.3374
  23180210.090    -5177968.00749  -3728508.90849  23180209.3554   23180214.0284
  20450155.209   -17150604.46049 -13177087.06549  20450153.8034   20450158.8344
  20323543.229    -7739831.11149  -6027997.40049  20323542.2744   20323546.7194
  20332559.124   -19021489.354 9 -14807797.250 9  20332558.353    20332562.305
  22415052.325    -7906120.50049  -6153207.27749  22415052.9324   22415056.7404
 96  9 17 18  8 29.9990000  0  7 21  6  3 23 17 28 26
  22303987.339   -11971722.20549  -8254060.09449  22303986.5414   22303992.0074
  22298494.687     9843275.03749   7666519.71149  22298494.8834   22298499.8444
  23159486.755    -5286869.03149  -3813366.81149  23159485.5424   23159490.3764
  20445287.731   -17176182.87249 -13197018.30549  20445286.6434   20445291.0674
  20322869.622    -7743370.65949  -6030755.50249  20322868.7314   20322873.4024
  20325813.672   -19056937.130 9 -14835418.898 9  20325813.172    20325816.663
  22420912.263    -7875326.37449  -6129211.86049  22420911.8964   22420915.8134
 96  9 17 18  8 59.9990000  0  7 21  6  3 23 17 28 26
  22287501.618   -12058354.12249  -8321565.47449  22287500.9544   22287505.3344
  22314613.413     9927978.24749   7732522.16649  22314613.8844   22314618.0154
  23138827.907    -5395430.82049  -3897960.41149  23138827.8034   23138831.5824
  20440510.898   -17201285.00549 -13216578.40049  20440509.5404   20440514.4014
  20322264.820    -7746549.02949  -6033232.15249  20322264.0494   20322268.9004
  20319195.762   -19091714.835 9 -14862518.412 9  20319194.894    20319199.182
  22426891.968    -7843902.09449  -6104725.41749  22426891.9164   22426895.4654
 96  9 17 18  9 29.9990000  0  7 21  6  3 23 17 28 26
  22271075.843   -12144671.20449  -8388825.49549  22271074.4564   22271080.4184
  22330799.968    10013037.89149   7798802.36649  22330799.2294   22330804.9874
  23118222.287    -5503714.38049  -3982337.19449  23118221.3284   23118227.4294
  20435812.009   -17225977.92049 -13235819.63549  20435811.1924   20435815.7594
  20321712.254    -7749453.15449  -6035495.11649  20321711.5024   20321716.1554
  20312691.897   -19125892.420 9 -14889150.304 9  20312691.376    20312695.085
  22432977.839    -7811920.59249  -6079804.77549  22432977.4934   22432982.4724
 96  9 17 18  9 59.9990000  0  7 21  6  3 23 17 28 26
  22254701.458   -12230719.25649  -8455875.89349  22254700.6014   22254704.6494
  22347046.233    10098412.09749   7865327.67749  22347045.6124   22347051.3674
  23097659.348    -5611773.49549  -4066539.09549  23097657.9644   23097662.8324
  20431183.393   -17250301.94949 -13254773.42449  20431182.3974   20431187.0464
  20321204.238    -7752123.09649  -6037575.59549  20321203.3844   20321207.9704
  20306292.222   -19159523.255 9 -14915356.150 9  20306291.377    20306295.554
  22439161.076    -7779427.86849  -6054485.77649  22439160.5924   22439165.6914
 96  9 17 18 10 29.9990000  0  7 21  6  3 23 17 28 26
  22238381.281   -12316482.10949  -8522704.08949  22238381.1594   22238386.5564
  22363358.270    10184132.75449   7932122.94049  22363358.5194   22363363.2804
  23077145.733    -5719572.24649  -4150538.06149  23077144.6954   23077150.5514
  20426628.961   -17274235.42449 -13273422.88949  20426627.8304   20426632.9124
  20320748.444    -7754518.24549  -6039441.95349  20320747.5794   20320752.3034
  20300001.950   -19192578.640 9 -14941113.599 9  20300001.401    20300005.119
  22445447.019    -7746394.90649  -6028745.79749  22445447.0304   22445451.6974
 96  9 17 18 10 59.9990000  0  7 21  6  3 23 17 28 26
  22222118.949   -12401941.74749  -8589295.99049  22222117.9884   22222123.0994
  22379736.594    10270201.50349   7999189.49349  22379736.3014   22379742.0754
  23056685.795    -5827089.23749  -4234317.52549  23056684.4594   23056690.0444
  20422153.584   -17297753.13349 -13291748.37549  20422152.7084   20422157.3294
  20320351.921    -7756602.26249  -6041065.87249  20320350.5344   20320355.4914
  20293826.217   -19225032.294 9 -14966402.165 9  20293825.467    20293829.425
  22451839.767    -7712801.04249  -6002568.78249  22451839.8954   22451844.5844
 96  9 17 18 11 29.9990000  0  7 21  6  3 23 17 28 26
  22205908.696   -12487126.16049  -8655673.41149  22205907.6104   22205913.6284
  22396175.508    10356588.54449   8066504.00849  22396175.2114   22396180.6814
  23036274.625    -5934350.02449  -4317897.29749  23036275.3084   23036279.5374
  20417752.804   -17320879.35249 -13309768.80849  20417751.6654   20417756.6504
  20320016.098    -7758367.07549  -6042441.05849  20320015.3364   20320019.9064
  20287761.959   -19256900.162 9 -14991234.277 9  20287761.205    20287764.899
  22458337.983    -7678651.72749  -5975958.95149  22458337.9264   22458342.3574
 96  9 17 18 11 59.9990000  0  7 21  6  3 23 17 28 26
  22189749.852   -12572041.53749  -8721841.23949  22189748.5874   22189754.4674
  22412673.888    10443287.71549   8134061.72049  22412672.9994   22412678.7194
  23015914.237    -6041344.10449  -4401269.33549  23015913.4054   23015919.9604
  20413428.112   -17343605.33349 -13327477.36849  20413427.0984   20413431.9784
  20319746.871    -7759781.92049  -6043543.53549  20319745.8234   20319750.7394
  20281811.494   -19288170.120 9 -15015600.477 9  20281810.655    20281814.641
  22464944.530    -7643934.74949  -5948906.78349  22464944.1234   22464949.3034
 96  9 17 18 12 29.9990000  0  7 21  6  3 23 17 28 26
  22173641.535   -12656691.11449  -8787801.92249  22173639.9884   22173646.2454
  22429229.994    10530290.03349   8201855.67249  22429229.0084   22429235.0984
  22995608.580    -6148051.43549  -4484417.87149  22995609.1214   22995613.0534
  20409180.613   -17365926.33249 -13344870.35249  20409179.9394   20409184.6964
  20319543.533    -7760850.79249  -6044376.43449  20319542.3244   20319547.4964
  20275976.993   -19318830.143 9 -15039491.413 9  20275976.244    20275980.332
  22471661.951    -7608633.68949  -5921399.49349  22471661.6024   22471666.5914
 96  9 17 18 12 59.9990000  0  8 21  6 22  3 23 17 28 26
  22157586.374   -12741060.67249  -8853544.40849  22157585.7434   22157590.8634
  22445842.784    10617590.99349   8269882.36649  22445842.0074   22445847.4354
                   -299597.960
  22975360.925    -6254454.21149  -4567329.09749  22975360.2394   22975365.2784
  20405014.248   -17387820.92049 -13361931.07549  20405013.4234   20405017.9784
  20319405.803    -7761574.06049  -6044940.02649  20319404.6894   20319409.2454
  20270259.958   -19348873.194 9 -15062901.581 9  20270259.441    20270263.406
  22478492.566    -7572739.20049  -5893429.77249  22478492.6434   22478496.8444
 96  9 17 18 13 29.9990000  0  8 21  6 22  3 23 17 28 26
  22141589.153   -12825126.94649  -8919050.55449  22141587.4984   22141592.6494
  22462515.717    10705208.15149   8338155.42849  22462516.2544   22462520.0564
  23569510.414                                    23569513.096    23569516.0844
  22955181.693    -6360495.92049  -4649958.99349  22955181.8984   22955186.8094
  20400935.104   -17409256.66549 -13378634.25149  20400934.0574   20400938.6034
  20319336.932    -7761936.39249  -6045222.37649  20319335.9464   20319340.5284
  20264664.571   -19378277.635 9 -15085814.137 9  20264664.025    20264667.973
  22485439.465    -7536233.16249  -5864983.53149  22485439.4944   22485443.5924
 96  9 17 18 13 59.9990000  0  8 21  6 22  3 23 17 28 26
  22125660.471   -12908832.37549  -8984275.56049  22125659.2554   22125664.6474
  22479259.545    10793197.04849   8406718.15849  22479258.4934   22479265.3824
  23576276.806                                    23576278.062    23576279.4284
  22935085.109    -6466104.32049  -4732251.24649  22935085.6714   22935089.7204
  20396958.632   -17430153.19049 -13394917.26749  20396957.7004   20396962.5834
  20319344.509    -7761896.09849  -6045190.98849  20319343.8014   20319348.2784
  20259201.761   -19406985.332 9 -15108183.782 9  20259201.177    20259204.986
  22492511.927    -7499067.20749  -5836023.05449  22492511.8384   22492516.3254
 96  9 17 18 14 29.9990000  0  8 21  6 22  3 23 17 28 26
  22109797.086   -12992194.15349  -9049232.76249  22109796.0974   22109801.4934
  22496068.957    10881531.17349   8475549.88049  22496068.0964   22496074.8004
  23583130.588                                    23583130.119    23583131.8534
  22915064.930    -6571311.99749  -4814231.20749  22915064.0914   22915068.8574
  20393081.283   -17450529.07049 -13410794.58249  20393080.2744   20393085.1724
  20319420.070    -7761498.71649  -6044881.34649  20319419.1694   20319423.8894
  20253864.946   -19435030.598 9 -15130037.246 9  20253864.361    20253868.055
  22499701.227    -7461287.48549  -5806584.33949  22499701.4614   22499705.0574
 96  9 17 18 14 59.9990000  0  8 21  6 22  3 23 17 28 26
  22093997.304   -13075223.15949  -9113930.67849  22093996.0754   22094002.1174
  22512941.378    10970195.76849   8544639.12349  22512941.1354   22512946.9474
  23590069.916                                    23590070.344    23590071.2684
  22895117.139    -6676138.14749  -4895913.90749  22895117.6704   22895121.5824
  20389299.245   -17470403.85449 -13426281.42049  20389298.0634   20389302.9534
  20319562.097    -7760752.57749  -6044299.95049  20319561.1814   20319565.7384
  20248650.000   -19462435.466 9 -15151391.691 9  20248648.962    20248653.207
  22507000.425    -7422930.21549  -5776695.58149  22507000.4484   22507005.0554
 96  9 17 18 15 29.9990000  0  8 21  6 22  3 23 17 28 26
  22078248.777   -13157982.45749  -9178418.43649  22078247.7974   22078252.9454
  22529865.011    11059129.70149   8613938.24549  22529863.6404   22529870.0864
  23597070.261                                    23597075.594    23597076.8624
  22875228.200    -6780656.40049  -4977356.70949  22875226.6504   22875231.2604
  20385598.676   -17489850.65249 -13441434.77349  20385597.7844   20385602.0364
  20319758.928    -7759718.88949  -6043494.48649  20319757.7544   20319762.5264
  20243544.935   -19489262.577 9 -15172295.946 9  20243544.486    20243548.042
  22514395.780    -7384067.87649  -5746413.26649  22514394.9794   22514399.9844
 96  9 17 18 15 59.9990000  0  8 21  6 22  3 23 17 28 26
  22062559.054   -13240431.79749  -9242664.63049  22062558.6384   22062564.2034
  22546848.657    11148379.52449   8683483.51149  22546847.5124   22546853.8544
  23604152.267                                    23604159.570    23604155.2114
  22855399.322    -6884856.61649  -5058551.64749  22855398.5574   22855403.0504
  20381982.826   -17508852.22349 -13456241.19249  20381982.0174   20381986.4734
  20320017.073    -7758362.18949  -6042437.32849  20320015.9664   20320020.8774
  20238557.516   -19515471.944 9 -15192718.834 9  20238556.839    20238560.714
  22521894.041    -7344664.80349  -5715709.57749  22521893.6874   22521898.2774
 96  9 17 18 16 29.9990000  0  8 21  6 22  3 23 17 28 26
  22046933.104   -13322547.80649  -9306651.13649  22046932.6764   22046937.9124
  22563897.924    11237975.22149   8753298.28849  22563897.5494   22563903.6464
  23611315.716                                    23611314.717    23611330.3254
  22835633.951    -6988724.80349  -5139487.91449  22835632.8804   22835639.0634
  20378450.645   -17527413.97949 -13470704.90449  20378449.7434   20378454.4524
  20320341.014    -7756659.88149  -6041110.86649  20320339.6524   20320344.8654
  20233692.400   -19541038.510 9 -15212640.842 9  20233691.807    20233695.613
  22529501.052    -7304689.87049  -5684560.29849  22529500.8314   22529505.9564
 96  9 17 18 16 59.9990000  0  8 21  6 22  3 23 17 28 26
  22031362.667   -13404370.73449  -9370409.24349  22031361.3364   22031367.7714
  22581008.504    11327891.61449   8823362.94649  22581007.7544   22581014.5814
  23618554.740                                    23618553.835    23618585.4554
  22815924.066    -7092301.24149  -5220196.79849  22815924.0444   22815928.4424
  20374992.332   -17545587.72349 -13484866.26349  20374991.3374   20374996.0644
  20320725.621    -7754638.85549  -6039536.04949  20320724.7354   20320729.4474
  20228944.097   -19565990.872 9 -15232084.247 9  20228943.184    20228947.570
  22537212.205    -7264168.00649  -5652984.83949  22537211.4634   22537216.6924
 96  9 17 18 17 29.9990000  0  8 21  6 22  3 23 17 28 26
  22015837.915   -13485952.99949  -9433979.81649  22015837.0334   22015843.8754
  22598170.897    11418081.36749   8893640.61049  22598170.3924   22598177.6274
  23625859.743                                    23625859.298    23625903.3414
  22796259.794    -7195638.59449  -5300719.40949  22796259.3084   22796264.3114
  20371598.932   -17563419.58249 -13498761.22149  20371597.8664   20371602.9614
  20321160.721    -7752352.07549  -6037754.16049  20321159.6744   20321164.8144
  20224304.341   -19590372.315 9 -15251082.780 9  20224303.506    20224307.720
  22545018.341    -7223146.22349  -5621019.82349  22545017.9994   22545022.0004
 96  9 17 18 17 59.9990000  0  8 21  6 22  3 23 17 28 26
  22000356.976   -13567305.74849  -9497371.54749  22000356.5304   22000362.0184
  22615381.720    11508524.20149   8964115.48549  22615381.6574   22615386.2654
  23633224.281                                    23633220.462    23633221.4454
  22776640.800    -7298737.28749  -5381056.05349  22776639.7804   22776644.5034
  20368266.991   -17580929.09849 -13512405.00449  20368266.1234   20368270.7984
  20321646.030    -7749801.27549  -6035766.53349  20321645.3084   20321649.6944
  20219770.473   -19614197.804 9 -15269648.104 9  20219769.805    20219773.785
  22552918.204    -7181631.77649  -5588670.91349  22552917.8304   22552922.4504
 96  9 17 18 18 29.9990000  0  8 21  6 22  3 23 17 28 26
  21984919.247   -13648432.21549  -9560586.97049  21984917.6684   21984923.4964
  22632636.573    11599198.10949   9034770.40449  22632636.6024   22632641.9474
  23640645.604                                    23640642.244    23640651.5494
  22757069.446    -7401585.65149  -5461197.62049  22757069.4194   22757073.7614
  20364996.934   -17598113.28249 -13525795.27749  20364995.5974   20365000.7194
  20322183.353    -7746978.38049  -6033566.89449  20322182.1164   20322187.2524
  20215340.648   -19637477.042 9 -15287787.788 9  20215340.461    20215344.145
  22560909.985    -7139634.80849  -5555946.01649  22560909.4874   22560914.0244
 96  9 17 18 18 59.9990000  0  8 21  6 22  3 23 17 28 26
  21969533.239   -13729286.15449  -9623590.01949  21969533.3994   21969537.7014
  22649938.092    11690117.51849   9105616.67249  22649937.2354   22649943.0264
  23648129.976                                    23648126.802    23648136.9584
  22737556.035    -7504128.15149  -5541100.86949  22737556.3174   22737559.7874
  20361796.267   -17614932.50149 -13538901.16149  20361795.1634   20361800.0084
  20322779.635    -7743844.49749  -6031124.93049  20322778.4934   20322783.8094
  20211020.715   -19660179.248 9 -15305477.822 9  20211019.942    20211023.817
  22568996.824    -7097138.39549  -5522831.93049  22568996.4494   22569000.8384
 96  9 17 18 19 29.9990000  0  8 21  6 22  3 23 17 28 26
  21954203.294   -13809845.97449  -9686363.88649  21954202.9424   21954206.8404
  22667284.672    11781272.60349   9176646.50149  22667285.5654   22667289.4354
  23655678.727                                    23655677.915    23655693.5784
  22718106.323    -7606337.52749  -5620744.53449  22718105.9634   22718110.6594
  20358665.756   -17631382.84349 -13551719.61649  20358664.6104   20358669.9784
  20323437.992    -7740384.54349  -6028428.87349  20323436.9874   20323441.9534
  20206812.085   -19682295.771 9 -15322711.494 9  20206811.426    20206815.446
  22577179.900    -7054135.81849  -5489323.45049  22577179.7644   22577184.3694
 96  9 17 18 19 59.9990000  0  8 21  6 22  3 23 17 28 26
  21938944.366   -13890032.35149  -9748846.76649  21938942.6364   21938948.4694
  22684687.413    11872723.46349   9247906.84749  22684687.3184   22684692.4074
  23663304.520                                    23663303.526    23663312.2524
  22698733.923    -7708139.09949  -5700070.41349  22698733.7644   22698738.7264
  20355618.607   -17647395.95349 -13564197.37949  20355617.3094   20355622.6714
  20324172.250    -7736526.31949  -6025422.48049  20324171.1194   20324176.3634
  20202728.358   -19703755.501 9 -15339433.364 9  20202727.533    20202731.570
  22585473.508    -7010552.46449  -5455362.39549  22585473.1624   22585477.1674
 96  9 17 18 20 29.9990000  0  8 21  6 22  3 23 17 28 26
  21923765.559   -13969797.10349  -9811001.08349  21923765.6134   21923769.5814
  22702157.293    11964528.34149   9319443.03949  22702157.3634   22702161.7404
  23671018.846                                    23671017.815    23671010.2614
  22679448.296    -7809486.82349  -5779042.67149  22679448.1454   22679453.6184
  20352666.618   -17662908.94849 -13576285.43149  20352665.3434   20352670.7654
  20324990.627    -7732225.66249  -6022071.32749  20324989.9124   20324994.5624
  20198781.136   -19724498.424 9 -15355596.683 9  20198780.375    20198784.562
  22593885.114    -6966348.61849  -5420917.87449  22593885.0394   22593889.7204
 96  9 17 18 20 59.9990000  0  8 21  6 22  3 23 17 28 26
  21908652.715   -14049217.10349  -9872886.79549  21908651.4264   21908656.8014
  22719682.123    12056620.34149   9391202.97349  22719681.1924   22719686.4984
  23678808.720                                    23678807.892    23678882.1934
  22660234.377    -7910457.13449  -5857720.80249  22660233.3974   22660239.4454
  20349793.503   -17678007.19449 -13588050.30749  20349792.3424   20349797.3434
  20325877.621    -7727565.61349  -6018440.12649  20325876.3394   20325881.4584
  20194956.989   -19744594.481 9 -15371255.961 9  20194956.552    20194960.400
  22602399.605    -6921603.78949  -5386051.80949  22602399.4744   22602404.7524
 96  9 17 18 21 29.9990000  0  8 21  6 22  3 23 17 28 26
  21893598.293   -14128327.97449  -9934531.59849  21893597.4084   21893603.2604
  22737257.097    12148979.25549   9463170.89049  22737255.6554   22737261.7424
  23686668.485                                    23686667.731    23686681.0794
  22641082.859    -8011097.34249  -5936141.72749  22641082.6554   22641087.1844
  20346996.160   -17692706.82149 -13599504.56049  20346995.0684   20346999.9994
  20326827.817    -7722572.12449  -6014549.10449  20326826.4714   20326831.5194
  20191251.286   -19764068.310 9 -15386430.385 9  20191250.548    20191254.655
  22611013.130    -6876339.72849  -5350781.13049  22611012.6924   22611018.3344
 96  9 17 18 21 59.9990000  0  8 21  6 22  3 23 17 28 26
  21878601.231   -14207138.35249  -9995942.28149  21878599.6314   21878605.0034
  22754884.370    12241611.14849   9535351.53249  22754882.4934   22754890.6234
  23694598.290                                    23694597.182    23694617.0804
  22621994.877    -8111404.28649  -6014302.96249  22621994.8694   22622000.4184
  20344278.223   -17706989.65249 -13610634.04349  20344277.5704   20344282.4484
  20327840.151    -7717251.59449  -6010403.25149  20327838.7204   20327844.0994
  20187664.808   -19782915.076 9 -15401116.184 9  20187664.011    20187668.544
  22619725.900    -6830554.58549  -5315104.42549  22619725.2304   22619730.6014
 96  9 17 18 22 29.9990000  0  8 21  6 22  3 23 17 28 26
  21863663.753   -14285634.35249 -10057107.97349  21863662.8614   21863668.8424
  22772568.069    12334540.27549   9607763.76149  22772567.0704   22772574.0094
  23702600.086                                    23702599.422    23702556.5324
  22602975.169    -8211353.35049  -6092185.32549  22602975.6764   22602978.4584
  20341641.875   -17720844.13549 -13621429.74249  20341640.7454   20341646.1194
  20328916.798    -7711593.26549  -6005994.17449  20328915.8744   20328920.8074
  20184201.066   -19801116.580 9 -15415299.184 9  20184200.419    20184204.616
  22628540.498    -6784234.02549  -5279010.49449  22628540.0584   22628545.3854
 96  9 17 18 22 59.9990000  0  8 21  6 22  3 23 17 28 26
  21848782.214   -14363837.89349 -10118045.78449  21848781.6134   21848786.3434
  22790303.260    12427738.94049   9680386.02349  22790302.5824   22790308.2844
  23710670.046                                    23710669.835    23710672.6994
  22584020.651    -8310960.73049  -6169801.46949  22584021.1184   22584025.1324
  20339081.783   -17734296.72349 -13631912.28049  20339080.8174   20339085.9154
  20330053.054    -7705622.68149  -6001341.77749  20330052.2384   20330057.3134
  20180855.602   -19818697.260 9 -15428998.421 9  20180854.945    20180859.229
  22637457.595    -6737374.75849  -5242496.79349  22637457.4144   22637461.8944
 96  9 17 18 23 29.9990000  0  8 21  6 22  3 23 17 28 26
  21833958.500   -14441737.58049 -10178746.82449  21833957.5964   21833963.3454
  22808091.821    12521217.48549   9753226.36449  22808092.2964   22808097.0364
  23718812.504                                    23718812.138    23718817.1534
  22565134.591    -8410207.18349  -6247136.35249  22565133.2634   22565139.1784
  20336601.968   -17747328.31449 -13642066.77449  20336601.2644   20336606.2884
  20331252.090    -7699321.82149  -5996432.02549  20331251.4974   20331256.1054
  20177631.478   -19835640.479 9 -15442200.942 9  20177631.007    20177634.661
  22646482.034    -6689951.14149  -5205543.34049  22646481.4674   22646486.9644
 96  9 17 18 23 59.9990000  0  7 21  6  3 23 17 28 26
  21819190.358   -14519344.19049 -10239219.48349  21819189.3404   21819193.8154
  22825933.078    12614971.44749   9826281.32149  22825932.6164   22825937.6294
  22546317.345    -8509091.62949  -6324189.13749  22546317.0004   22546320.8694
  20334198.666   -17759958.50149 -13651908.47949  20334197.8284   20334202.7824
  20332511.760    -7692702.79849  -5991274.34249  20332511.0754   20332515.8734
  20174527.195   -19851954.170 9 -15454912.925 9  20174526.776    20174530.359
  22655611.065    -6641977.64449  -5168161.41049  22655610.8974   22655615.3414
 96  9 17 18 24 29.9990000  0  7 21  6  3 23 17 28 26
  21804479.002   -14596653.13949 -10299460.20249  21804478.1644   21804482.7364
  22843827.972    12709010.52649   9899558.47449  22843827.5274   22843831.3784
  22527569.783    -8607610.21849  -6400956.88349  22527568.9094   22527573.9604
  20331870.534   -17772192.53249 -13661441.48449  20331869.4604   20331874.4574
  20333832.355    -7685763.67449  -5985867.23949  20333831.1524   20333836.1074
  20171543.308   -19867634.869 9 -15467131.657 9  20171542.522    20171546.482
  22664845.025    -6593451.28149  -5130348.67549  22664844.6854   22664849.4724
 96  9 17 18 24 59.9990000  0  7 21  6  3 23 17 28 26
  21789820.670   -14673682.41049 -10359482.98449  21789819.4224   21789823.9974
  22861772.999    12803314.13649   9973041.71849  22861771.4554   22861778.4074
  22508888.858    -8705777.59149  -6477450.90549  22508886.9524   22508892.0914
  20329616.271   -17784039.00349 -13670672.50549  20329615.4104   20329620.2284
  20335211.437    -7678516.27649  -5980219.92349  20335210.4674   20335215.4254
  20168676.856   -19882697.593 9 -15478868.862 9  20168676.236    20168680.151
  22674180.642    -6544392.06049  -5092120.73049  22674180.5514   22674185.3724
 96  9 17 18 25 29.9990000  0  7 21  6  3 23 17 28 26
  21775193.983   -14750545.74049 -10419376.47849  21775193.2974   21775198.2554
  22879745.816    12897764.21649  10046639.14249  22879745.3024   22879751.6674
  22490254.339    -8803701.81249  -6553755.47549  22490252.9924   22490258.5994
  20327414.528   -17795609.03449 -13679688.11049  20327413.8244   20327418.5884
  20336626.654    -7671079.13249  -5974424.75349  20336625.3674   20336630.4664
  20165905.711   -19897260.344 9 -15490216.473 9  20165904.745    20165909.166
  22683589.480    -6494948.40249  -5053593.22649  22683589.4484   22683594.9324
 96  9 17 18 25 59.9990000  0  7 21  6  3 23 17 28 26
  21760612.925   -14827169.27249 -10479083.09549  21760612.0524   21760616.9124
  22897760.291    12992431.59349  10120405.84149  22897760.0414   22897766.9624
  22471680.911    -8901305.98149  -6629810.67349  22471680.9994   22471684.1844
  20325281.097   -17806820.63949 -13688424.43249  20325280.4714   20325285.0014
  20338090.709    -7663385.84449  -5968429.99649  20338089.8834   20338094.4764
  20163243.188   -19911251.649 9 -15501118.798 9  20163242.408    20163246.297
  22693083.182    -6445058.81149  -5014718.25349  22693083.1554   22693088.0144
 96  9 17 18 26 29.9990000  0  7 21  6  3 23 17 28 26
  21746081.880   -14903530.25149 -10538585.15249  21746080.9614   21746085.7054
  22915817.312    13087321.07949  10194345.63049  22915818.5194   22915822.7554
  22453173.577    -8998564.05449  -6705596.18049  22453173.4314   22453177.6864
  20323217.844   -17817663.35049 -13696873.30249  20323216.9104   20323221.7574
  20339607.884    -7655413.52049  -5962217.79949  20339607.0134   20339611.6724
  20160692.707   -19924654.057 9 -15511562.248 9  20160691.923    20160696.322
  22702664.801    -6394706.80649  -4975482.94249  22702664.6424   22702669.7994
 96  9 17 18 26 59.9990000  0  7 21  6  3 23 17 28 26
  21731601.641   -14979624.24349 -10597879.14549  21731601.1064   21731605.9624
  22933915.302    13182424.54049  10268452.16249  22933915.3414   22933921.6044
  22434732.584    -9095473.16949  -6781109.74049  22434731.9684   22434736.4054
  20321224.242   -17828140.10249 -13705037.01149  20321223.2304   20321228.0654
  20341179.909    -7647152.74449  -5955780.84249  20341178.8854   20341183.8994
  20158254.238   -19937468.293 9 -15521547.377 9  20158253.292    20158257.327
  22712331.568    -6343907.19849  -4935898.85649  22712332.1104   22712336.8344
 96  9 17 18 27 29.9990000  0  8 21  6 22  3 23 17 28 26
  21717178.601   -15055418.73049 -10656939.75749  21717177.0714   21717182.1384
  22952057.339    13277760.40549  10342739.76649  22952057.6714   22952063.7064
  23786104.801                                    23786102.624    23786102.3354
  22416361.261    -9192014.89349  -6856337.07549  22416361.4064   22416365.7894
  20319301.780   -17838242.66249 -13712909.13349  20319300.8414   20319305.7464
  20342813.471    -7638567.82949  -5949091.30349  20342812.5444   20342817.3064
  20155932.133   -19949670.474 9 -15531055.582 9  20155931.519    20155935.583
  22722086.660    -6292643.16149  -4895952.86949  22722086.7874   22722091.2504
 96  9 17 18 27 59.9990000  0  8 21  6 22  3 23 17 28 26
  21702818.919   -15130878.74749 -10715739.76549  21702817.7324   21702822.9674
  22970249.098    13373358.12149  10417231.41649  22970247.6384   22970254.8784
  23794771.881                                    23794770.883    23794772.0404
  22398065.424    -9288160.78849  -6931255.95249  22398065.2824   22398069.6224
  20317454.574   -17847949.70749 -13720473.07549  20317453.2804   20317458.2314
  20344517.562    -7629612.63749  -5942113.23849  20344516.3544   20344521.5124
  20153734.214   -19961220.978 9 -15540055.989 9  20153733.291    20153737.521
  22731939.337    -6240867.28349  -4855608.05649  22731939.5564   22731944.3824
 96  9 17 18 28 29.9990000  0  8 21  6 22  3 23 17 28 26
  21688521.886   -15206009.77149 -10774283.39949  21688520.7504   21688525.2904
  22988488.571    13469207.46549  10491919.11249  22988487.5214   22988493.2604
  23803508.740                                    23803505.576    23803508.9534
  22379844.171    -9383914.74549  -7005869.42149  22379842.6074   22379848.5114
  20315677.955   -17857285.93349 -13727748.06549  20315677.0094   20315681.9694
  20346291.107    -7620292.50349  -5934850.81249  20346290.0474   20346294.7164
  20151658.262   -19972130.263 9 -15548556.746 9  20151657.888    20151661.979
  22741887.591    -6188589.04449  -4814871.81149  22741887.4494   22741892.1514
 96  9 17 18 28 59.9990000  0  8 21  6 22  3 23 17 28 26
  21674284.000   -15280829.27349 -10832584.29649  21674282.7664   21674288.2144
  23006773.998    13565297.39349  10566794.31549  23006772.7634   23006777.5964
  23812289.523                                    23812301.846    23812317.6714
  22361694.965    -9479289.39949  -7080187.33849  22361695.3904   22361699.2714
  20313969.214   -17866266.28149 -13734745.74149  20313968.5824   20313973.1834
  20348130.766    -7610625.55849  -5927318.13249  20348129.7834   20348134.6614
  20149701.452   -19982413.727 9 -15556569.846 9  20149700.842    20149704.930
  22751929.940    -6135816.45449  -4773750.32549  22751930.0174   22751934.5894
 96  9 17 18 29 29.9990000  0  8 21  6 22  3 23 17 28 26
  21660097.946   -15355377.73649 -10890673.97849  21660097.2174   21660102.4904
  23025097.257    13661587.60049  10641825.55449  23025098.5664   23025101.1524
  23821150.716                                    23821156.666    23821161.6474
  22343611.092    -9574321.20249  -7154238.07749  22343610.9804   22343615.2484
  20312323.110   -17874916.50149 -13741486.18149  20312322.3024   20312327.2564
  20350028.740    -7600652.01449  -5919546.53949  20350027.8294   20350032.6724
  20147856.455   -19992109.663 9 -15564125.137 9  20147855.950    20147860.186
  22762063.438    -6082566.81049  -4732257.13249  22762064.0514   22762067.7314
 96  9 17 18 29 59.9990000  0  7 21  6  3 23 17 28 26
  21645963.845   -15429653.21549 -10948550.95949  21645963.2014   21645967.3364
  23043460.200    13758084.88849  10717018.17049  23043460.1354   23043466.9304
  22325596.315    -9668989.21349  -7228005.35049  22325596.0614   22325599.8064
  20310743.082   -17883219.51249 -13747956.05949  20310742.2764   20310746.9204
  20351982.345    -7590385.52849  -5911546.68649  20351981.5764   20351986.5564
  20146123.840   -20001214.948 9 -15571220.184 9  20146123.089    20146127.404
  22772290.092    -6028826.07649  -4690381.25349  22772289.1324   22772293.9324
 96  9 17 18 30 29.9990000  0  7 21  6  3 23 17 28 26
  21631882.674   -15503650.10649 -11006210.84149  21631882.5794   21631887.4344
  23061862.227    13854787.77949  10792370.95749  23061863.9444   23061869.2924
  22307651.509    -9763290.33049  -7301486.72449  22307650.9654   22307656.1394
  20309229.463   -17891174.04749 -13754154.40749  20309228.5044   20309233.4244
  20353990.528    -7579832.65249  -5903323.67949  20353989.4664   20353994.6004
  20144503.332   -20009730.552 9 -15577855.730 9  20144502.741    20144506.836
  22782608.821    -5974601.11549  -4648128.07949  22782608.1694   22782613.4724
 96  9 17 18 30 59.9990000  0  7 21  6  3 23 17 28 26
  21617852.232   -15577380.07249 -11063662.74649  21617852.1424   21617856.6264
  23080298.957    13951670.57649  10867863.95949  23080299.0514   23080304.8134
  22289772.022    -9857247.61749  -7374700.19049  22289771.1924   22289775.9774
  20307783.675   -17898770.84349 -13760073.97949  20307782.5154   20307787.6884
  20356051.970    -7568999.07149  -5894881.94849  20356050.8994   20356055.9354
  20142994.434   -20017659.811 9 -15584034.396 9  20142993.736    20142998.072
  22793016.466    -5919908.30249  -4605510.32849  22793016.3934   22793020.8094
 96  9 17 18 31 29.9990000  0  7 21  6  3 23 17 28 26
  21603879.285   -15650808.37249 -11120879.56749  21603878.3364   21603884.4884
  23098774.772    14048761.38749  10943519.07549  23098774.1814   23098781.1914
  22271962.872    -9950835.11349  -7447625.50249  22271962.4114   22271966.8544
  20306417.195   -17905952.71449 -13765670.24849  20306416.3604   20306420.8674
  20358174.385    -7557845.51849  -5886190.88049  20358173.4604   20358178.2914
  20141604.634   -20024963.823 9 -15589725.843 9  20141603.748    20141608.316
  22803515.202    -5864737.71349  -4562520.28749  22803514.8554   22803519.1634
 96  9 17 18 31 59.9990000  0  7 21  6  3 23 17 28 26
  21589973.534   -15723882.79849 -11177820.67549  21589973.5124   21589977.7634
  23117299.029    14146106.52349  11019372.34349  23117298.7174   23117303.5214
  22254234.482   -10043998.32749  -7520220.20349  22254234.4844   22254238.5174
  20305137.721   -17912676.40749 -13770909.49149  20305136.3974   20305141.6124
  20360368.451    -7546315.78849  -5877206.68449  20360367.7314   20360372.1124
  20140344.481   -20031585.442 9 -15594885.569 9  20140343.960    20140348.028
  22814110.530    -5809059.28949  -4519134.53149  22814110.2404   22814114.7164
 96  9 17 18 32 29.9990000  0  7 21  6  3 23 17 28 26
  21576133.945   -15796610.87349 -11234491.88849  21576133.0544   21576137.8654
  23135870.927    14243701.22049  11095420.08349  23135869.9614   23135875.6074
  22236585.664   -10136744.27149  -7592489.75549  22236584.1134   22236589.2804
  20303944.931   -17918944.28449 -13775793.55949  20303944.1524   20303948.8324
  20362638.245    -7534387.99649  -5867912.31049  20362637.3994   20362642.6264
  20139214.528   -20037523.347 9 -15599512.514 9  20139213.832    20139218.375
  22824799.687    -5752887.75349  -4475364.53849  22824799.3404   22824803.9054
 96  9 17 18 32 59.9990000  0  7 21  6  3 23 17 28 26
  21562343.111   -15869082.43549 -11290963.21749  21562342.3014   21562347.0434
  23154475.826    14341471.90249  11171604.91349  23154474.9914   23154480.1264
  22219003.797   -10229137.16049  -7664484.19549  22219002.3654   22219008.4764
  20302824.637   -17924831.45749 -13780380.97349  20302823.6784   20302828.5054
  20364969.104    -7522140.22949  -5858368.60649  20364967.7764   20364972.8704
  20138200.210   -20042854.176 9 -15603666.419 9  20138199.784    20138203.480
  22835569.173    -5696292.55549  -4431264.41449  22835568.9954   22835574.0104
 96  9 17 18 33 29.9990000  0  7 21  6  3 23 17 28 26
  21548606.655   -15941267.56049 -11347211.34649  21548606.2904   21548610.3834
  23173122.383    14439457.56549  11247957.33049  23173122.3214   23173127.8464
  22201497.604   -10321132.79149  -7736169.08949  22201495.8944   22201502.3184
  20301776.225   -17930341.07049 -13784674.18449  20301775.3934   20301779.7174
  20367363.818    -7509556.09949  -5848562.80049  20367362.3984   20367367.8654
  20137304.971   -20047558.608 9 -15607332.234 9  20137304.454    20137308.418
  22846425.485    -5639241.11149  -4386808.77249  22846425.0194   22846430.1294
 96  9 17 18 33 59.9990000  0  7 21  6  3 23 17 28 26
  21534921.595   -16013183.47549 -11403249.70949  21534920.9744   21534926.4984
  23191805.912    14537639.62449  11324462.72049  23191806.5564   23191809.6804
  22184068.492   -10412722.49949  -7807537.67449  22184068.8694   22184072.9194
  20300789.234   -17935527.60049 -13788715.63649  20300788.0274   20300793.0234
  20369817.008    -7496663.68249  -5838516.78949  20369816.0804   20369821.1784
  20136524.192   -20051662.074 9 -15610529.750 9  20136523.525    20136527.415
  22857368.995    -5581732.91049  -4341997.22149  22857368.3134   22857374.1384
 96  9 17 18 34 29.9990000  0  7 21  6  3 23 17 28 26
  21521296.694   -16084782.89349 -11459041.44849  21521295.9774   21521301.1644
  23210535.780    14636063.43949  11401156.48449  23210536.0304   23210540.4314
  22166728.072   -10503847.15549  -7878543.88649  22166727.2544   22166733.0164
  20299871.695   -17940349.25549 -13792472.77749  20299870.6024   20299875.3824
  20372335.347    -7483430.04549  -5828204.87649  20372334.4264   20372339.7974
  20135865.093   -20055125.903 9 -15613228.857 9  20135864.491    20135868.617
  22868407.656    -5523723.38649  -4296795.01449  22868407.6014   22868412.4774
 96  9 17 18 34 59.9990000  0  7 21  6  3 23 17 28 26
  21507748.893   -16155976.65649 -11514517.10149  21507748.5954   21507753.7034
  23229327.347    14734814.04049  11478104.94349  23229325.9124   23229331.5644
  22149494.103   -10594412.58049  -7949114.32149  22149494.0744   22149498.7354
  20299040.916   -17944715.02349 -13795874.68649  20299039.8474   20299044.7204
  20374930.654    -7469791.56949  -5817577.49549  20374929.8204   20374934.4394
  20135343.704   -20057865.791 9 -15615363.847 9  20135343.002    20135347.268
  22879556.829    -5465134.12849  -4251141.05449  22879556.9424   22879561.7004
 96  9 17 18 35 29.9990000  0  7 21  6  3 23 17 28 26
  21494270.884   -16226804.03049 -11569707.23949  21494270.5864   21494275.6954
  23248171.228    14833842.94849  11555270.20949  23248169.3674   23248177.0404
  22132356.876   -10684469.58449  -8019288.60149  22132355.8094   22132361.6174
  20298290.893   -17948656.19249 -13798945.73649  20298290.1264   20298294.8814
  20377595.972    -7455785.89349  -5806663.99749  20377594.7954   20377599.6514
  20134951.574   -20059926.595 9 -15616969.685 9  20134950.694    20134955.384
  22890803.616    -5406032.57749  -4205087.92049  22890803.8664   22890808.3454
 96  9 17 18 35 59.9990000  0  7 21  6  3 23 17 28 26
  21480853.502   -16297313.05149 -11624649.33149  21480853.0754   21480858.3234
  23267059.549    14933103.84449  11632616.29649  23267059.4404   23267066.8414
  22115307.887   -10774062.58749  -8089101.33149  22115307.4214   22115311.6504
  20297619.471   -17952184.33949 -13801694.95149  20297618.4114   20297623.4644
  20380327.718    -7441430.34449  -5795477.86249  20380326.6834   20380331.8074
  20134682.665   -20061339.501 9 -15618070.663 9  20134682.080    20134686.284
  22902138.974    -5346465.42349  -4158671.97349  22902139.0794   22902143.9634
 96  9 17 18 36 29.9990000  0  7 21  6  3 23 17 28 26
  21467499.609   -16367488.44449 -11679331.43949  21467499.0304   21467504.0074
  23285994.136    15032605.26249  11710149.79349  23285994.4814   23286000.7754
  22098345.330   -10863201.30549  -8158560.07149  22098345.0744   22098350.7434
  20297032.247   -17955270.14449 -13804099.48549  20297031.3284   20297036.1634
  20383131.951    -7426694.67749  -5783995.53049  20383130.6724   20383135.7404
  20134540.504   -20062086.495 9 -15618652.756 9  20134539.888    20134543.902
  22913564.175    -5286426.54749  -4111888.45649  22913563.7504   22913569.0014
 96  9 17 18 36 59.9990000  0  7 21  6  3 23 17 28 26
  21454210.874   -16437321.57949 -11733746.88649  21454210.5194   21454215.2494
  23304975.789    15132352.37149  11787874.73549  23304975.7814   23304983.2334
  22081466.807   -10951898.43049  -8227674.70849  22081465.5894   22081470.7604
  20296529.251   -17957913.39049 -13806159.16549  20296528.2764   20296533.2164
  20386012.629    -7411556.37049  -5772199.46549  20386011.4084   20386016.3474
  20134527.321   -20062155.797 9 -15618706.784 9  20134526.517    20134530.907
  22925082.373    -5225897.66249  -4064723.11849  22925082.6164   22925087.4464
 96  9 17 18 37 29.9990000  0  7 21  6  3 23 17 28 26
  21440978.310   -16506859.16049 -11787931.99549  21440977.4104   21440981.8614
  23323991.506    15232278.53349  11865739.15949  23323991.1974   23323998.6274
  22064660.752   -11040215.43249  -8296493.15249  22064660.3934   22064664.3984
  20296093.950   -17960200.94649 -13807941.67249  20296093.0374   20296097.8894
  20388962.598    -7396053.87549  -5760119.60349  20388961.7264   20388966.6814
  20134632.957   -20061601.037 9 -15618274.515 9  20134632.044    20134636.431
  22936688.091    -5164910.12949  -4017200.38849  22936688.3614   22936692.6414
 96  9 17 18 37 59.9990000  0  7 21  6  3 23 17 28 26
  21427805.285   -16576084.06749 -11841873.48349  21427804.4404   21427809.2044
  23343039.314    15332375.59849  11943736.79649  23343037.1324   23343045.7744
  22047927.318   -11128151.17049  -8365014.50349  22047927.0884   22047930.2304
  20295720.272   -17962165.03449 -13809472.14749  20295719.4064   20295724.2534
  20391979.160    -7380201.93949  -5747767.46149  20391978.2074   20391983.2534
  20134856.260   -20060427.267 9 -15617359.909 9  20134855.450    20134859.693
  22948383.797    -5103449.96549  -3969309.38249  22948384.1044   22948388.5254
 96  9 17 18 38 29.9990000  0  7 21  6  3 23 17 28 26
  21414694.362   -16644982.06249 -11895560.21449  21414693.5564   21414698.2194
  23362119.512    15432643.17549  12021867.28049  23362118.8024   23362125.6774
  22031267.294   -11215700.13649  -8433234.47949  22031267.2014   22031270.5414
  20295404.243   -17963826.07349 -13810766.47449  20295403.5154   20295408.0414
  20395057.062    -7364027.39749  -5735163.93549  20395056.4764   20395061.1904
  20135196.482   -20058639.490 9 -15615966.838 9  20135195.894    20135200.506
  22960168.939    -5041519.06549  -3921051.58349  22960168.3464   22960174.1444
 96  9 17 18 38 59.9990000  0  7 21  6  3 23 17 28 26
  21401639.428   -16713586.07049 -11949017.87449  21401638.4044   21401643.6164
  23381225.861    15533046.79649  12100103.77949  23381225.5344   23381231.5294
  22014678.199   -11302876.12549  -8501163.82749  22014678.3654   22014681.8174
  20295139.659   -17965216.63349 -13811850.03649  20295138.6184   20295143.4464
  20398186.709    -7347581.19749  -5722348.73749  20398185.6504   20398190.3424
  20135647.839   -20056267.357 9 -15614118.447 9  20135647.261    20135651.421
  22972036.207    -4979156.64649  -3872457.51349  22972035.3614   22972041.5964
 96  9 17 18 39 29.9990000  0  7 21  6  3 23 17 28 26
  21388635.505   -16781921.67049 -12002266.38749  21388634.0074   21388640.1724
  23400351.191    15633549.72749  12178417.65949  23400350.6444   23400357.2834
  21998158.847   -11389686.32649  -8568808.13849  21998157.9724   21998161.7724
  20294924.455   -17966348.06649 -13812731.67949  20294923.3674   20294928.2344
  20401361.577    -7330897.04949  -5709348.11349  20401360.9624   20401365.5274
  20136205.138   -20053339.113 9 -15611836.711 9  20136204.726    20136208.892
  22983976.861    -4916408.28149  -3823562.72849  22983976.5744   22983981.5884
 96  9 17 18 39 59.9990000  0  7 21  6  3 23 17 28 26
  21375675.224   -16850028.02149 -12055336.26749  21375674.0394   21375679.9194
  23419492.203    15734135.67149  12256796.19449  23419491.4634   23419497.5464
  21981707.014   -11476141.00149  -8636175.42449  21981706.6514   21981709.7334
  20294759.073   -17967216.65749 -13813408.51649  20294757.7924   20294762.7934
  20404576.969    -7313999.71949  -5696181.37849  20404575.9964   20404580.6724
  20136864.237   -20049875.848 9 -15609138.081 9  20136863.460    20136867.575
  22995978.846    -4853337.30449  -3774416.55349  22995978.6154   22995983.3834
 96  9 17 18 40 29.9990000  0  7 21  6  3 23 17 28 26
  21362758.218   -16917906.59149 -12108228.65149  21362757.3614   21362763.0904
  23438653.992    15834827.78349  12335257.44549  23438653.7784   23438658.8194
  21965328.641   -11562209.18249  -8703241.55349  21965327.4604   21965332.2554
  20294653.459   -17967771.51249 -13813840.88049  20294652.4744   20294657.5764
  20407840.946    -7296847.78149  -5682816.24049  20407840.2564   20407844.7134
  20137631.530   -20045843.900 9 -15605996.321 9  20137630.928    20137634.766
  23008045.469    -4789926.57749  -3725005.63249  23008046.1914   23008049.4444
 96  9 17 18 40 59.9990000  0  7 21  6  3 23 17 28 26
  21349887.928   -16985540.59149 -12160930.46849  21349886.9714   21349892.1594
  23457839.669    15935645.38849  12413816.50949  23457838.9364   23457843.8784
  21949026.842   -11647875.20849  -8769994.30749  21949025.6764   21949031.0444
  20294613.915   -17967979.53149 -13814002.98649  20294612.9924   20294617.6564
  20411161.872    -7279396.06049  -5669217.50049  20411160.8174   20411165.9614
  20138512.316   -20041215.832 9 -15602390.047 9  20138511.629    20138515.799
  23020182.358    -4726146.90149  -3675307.20349  23020182.4494   23020186.9004
 96  9 17 18 41 29.9990000  0  7 21  6  3 23 17 28 26
  21337065.159   -17052925.93849 -12213438.52149  21337064.3384   21337069.2874
  23477051.686    16036608.26349  12492488.80749  23477050.2064   23477057.2524
  21932803.852   -11733126.75249  -8836424.07749  21932802.8874   21932807.1354
  20294642.279   -17967830.12449 -13813886.56849  20294641.3824   20294645.9154
  20414545.427    -7261615.66049  -5655362.66549  20414544.3654   20414549.3054
  20139508.490   -20035980.244 9 -15598310.384 9  20139508.259    20139512.236
  23032393.353    -4661978.54949  -3625305.93249  23032391.8574   23032397.5244
 96  9 17 18 41 59.9990000  0  7 21  6  3 23 17 28 26
  21324279.950   -17120111.50649 -12265790.90149  21324279.4794   21324284.5954
  23496284.651    16137681.34049  12571246.93949  23496283.9314   23496289.9704
  21916651.572   -11818007.81549  -8902565.15949  21916651.0584   21916654.5564
  20294728.183   -17967378.92949 -13813534.99749  20294727.3334   20294732.0864
  20417980.221    -7243564.96349  -5641297.19849  20417979.0274   20417984.5304
  20140611.587   -20030183.497 9 -15593793.459 9  20140610.805    20140615.455
  23044672.129    -4597453.20249  -3575026.46049  23044671.2364   23044677.2394
 96  9 17 18 42 29.9990000  0  7 21  6  3 23 17 28 26
  21311541.804   -17187051.22449 -12317951.71149  21311541.1174   21311546.5874
  23515543.154    16238885.91649  12650107.58949  23515542.0594   23515548.2854
  21900575.877   -11902486.22549  -8968392.47549  21900575.4374   21900580.2544
  20294876.298   -17966600.29149 -13812928.26949  20294875.5504   20294880.1404
  20421470.213    -7225224.93049  -5627006.28249  20421468.6114   20421474.4424
  20141826.489   -20023798.926 9 -15588818.482 9  20141826.134    20141830.491
  23057031.530    -4532503.22649  -3524416.12449  23057031.7694   23057036.0384
 96  9 17 18 42 59.9990000  0  7 21  6  3 23 17 28 26
  21298864.940   -17253667.85049 -12369860.76549  21298864.3034   21298869.3804
  23534839.419    16340289.48049  12729123.25049  23534838.9504   23534845.5294
  21884591.845   -11986482.25849  -9033843.91849  21884591.6424   21884595.7624
  20295095.810   -17965447.19649 -13812029.76149  20295094.6984   20295099.7044
  20425025.116    -7206543.17749  -5612449.08149  20425024.3004   20425029.3294
  20143164.075   -20016770.477 9 -15583341.789 9  20143163.178    20143167.570
  23069483.433    -4467068.82149  -3473428.31249  23069481.5504   23069487.9634
 96  9 17 18 43 29.9990000  0  7 21  6  3 23 17 28 26
  21286202.315   -17320210.11549 -12421711.87549  21286201.2504   21286207.4654
  23554124.789    16441635.70349  12808094.19849  23554124.1794   23554130.7634
  21868654.609   -12070234.01849  -9099105.03849  21868654.6454   21868658.5714
  20295336.997   -17964179.76749 -13811042.16549  20295336.0314   20295341.1404
  20428592.945    -7187794.72449  -5597839.90649  20428591.8904   20428596.8084
  20144574.065   -20009361.254 9 -15577568.389 9  20144573.282    20144577.719
  23081975.275    -4401422.78649  -3422275.59849  23081974.3224   23081979.6214
 96  9 17 18 43 59.9990000  0  7 21  6  3 23 17 28 26
  21273581.434   -17386533.17749 -12473392.17049  21273580.1074   21273585.8444
  23573421.394    16543038.32549  12887109.14849  23573422.1794   23573426.4184
  21852788.699   -12153610.47949  -9164073.71449  21852788.5494   21852792.5614
  20295623.800   -17962672.35849 -13809867.56349  20295622.8734   20295627.8294
  20432197.005    -7168855.37449  -5583081.98649  20432196.3854   20432200.9904
  20146080.708   -20001443.532 9 -15571398.754 9  20146079.919    20146084.348
  23094529.344    -4335451.53149  -3370869.45649  23094527.9814   23094534.6014
 96  9 17 18 44 29.9990000  0  7 21  6  3 23 17 28 26
  21261021.706   -17452535.06149 -12524822.20949  21261020.6624   21261026.3814
  23592746.278    16644588.29549  12966238.89849  23592746.5914   23592750.3564
  21837011.524   -12236520.10149  -9228678.62149  21837011.3724   21837016.0264
  20295974.010   -17960832.23149 -13808433.70549  20295973.1504   20295978.1414
  20435860.618    -7149603.63749  -5568080.65049  20435859.3094   20435864.5744
  20147702.454   -19992920.702 9 -15564757.606 9  20147701.856    20147706.122
  23107160.118    -4269076.43849  -3319148.62449  23107159.8564   23107164.8984
 96  9 17 18 44 59.9990000  0  8  1 21  6  3 23 17 28 26
  23817492.587     -199587.16849                  23817489.425    23817497.6384
  21248527.790   -17518191.09549 -12575982.73249  21248527.1414   21248532.0504
  23612104.793    16746317.92549  13045508.60849  23612104.3704   23612110.0844
  21821325.637   -12318949.89949  -9292909.64349  21821325.1814   21821329.6154
  20296390.342   -17958644.10849 -13806728.67849  20296389.7124   20296394.3264
  20439590.967    -7129999.77349  -5552804.92849  20439590.0164   20439595.2654
  20149444.912   -19983763.771 9 -15557622.348 9  20149444.280    20149448.733
  23119868.430    -4202294.77549  -3267111.01549  23119867.3994   23119873.0694
 96  9 17 18 45 29.9990000  0  8  1 21  6  3 23 17 28 26
  23794037.175     -399158.53149   -295621.82849  23794037.6514   23794046.3624
  21236105.297   -17583471.64849 -12626850.69549  21236104.9704   21236109.3924
  23631500.807    16848246.85249  13124933.65449  23631499.5034   23631505.8504
  21805734.447   -12400881.79749  -9356752.66749  21805733.6354   21805738.8774
  20296879.961   -17956071.11349 -13804723.75349  20296879.2134   20296883.7744
  20443396.438    -7110001.55049  -5537221.91849  20443395.1324   20443400.6224
  20151314.952   -19973937.010 9 -15549965.147 9  20151314.505    20151318.906
  23132660.334    -4135070.76349  -3214728.70949  23132659.7234   23132665.1044
 96  9 17 18 45 59.9990000  0  8  1 21  6  3 23 17 28 26
  23770612.657     -522254.73949   -391540.90949  23770612.5874   23770621.3244
  21223755.492   -17648370.81249 -12677421.46349  21223754.0014   21223759.5464
  23650938.279    16950392.58049  13204527.64049  23650938.1964   23650943.1154
  21790238.605   -12482312.11649  -9420204.85449  21790238.0524   21790242.3074
  20297445.696   -17953098.67249 -13802407.57049  20297444.9814   20297449.9324
  20447284.307    -7089570.10949  -5521301.33949  20447283.5904   20447288.4834
  20153316.813   -19963417.124 9 -15541767.863 9  20153315.980    20153320.493
  23145542.868    -4067373.58649  -3161977.72049  23145541.8954   23145547.9204
 96  9 17 18 46 29.9990000  0  8  1 21  6  3 23 17 28 26
  23747233.564     -645114.13549   -487275.46749  23747233.0334   23747242.6064
  21211491.722   -17712817.09149 -12727639.35649  21211490.9004   21211496.3964
  23670434.544    17052847.62849  13284362.63749  23670436.0384   23670441.0264
  21774854.249   -12563157.24049  -9483201.06049  21774853.6924   21774859.0174
  20298104.214   -17949638.33649 -13799711.21549  20298103.2664   20298108.1524
  20451270.179    -7068624.29549  -5504979.93949  20451269.6014   20451273.9944
  20155466.886   -19952118.560 9 -15532963.799 9  20155466.271    20155470.504
  23158533.247    -3999108.13149  -3108783.89649  23158531.7524   23158537.6624
 96  9 17 18 46 59.9990000  0  8  1 21  6  3 23 17 28 26
  23723860.053     -767946.63549   -582989.04649  23723859.0844   23723867.7864
  21199269.862   -17777043.41849 -12777685.82649  21199268.9324   21199274.1004
  23689946.747    17155382.94949  13364260.24849  23689945.6624   23689953.7934
  21759541.186   -12643628.19549  -9545905.70949  21759540.9534   21759544.8004
  20298815.408   -17945901.16349 -13796799.13749  20298814.6734   20298819.4894
  20455309.871    -7047395.81149  -5488438.26849  20455309.0644   20455314.3924
  20157722.904   -19940263.249 9 -15523725.921 9  20157722.359    20157726.412
  23171589.905    -3930495.68649  -3055319.68949  23171588.9134   23171594.8824
 96  9 17 18 47 29.9990000  0  8  1 21  6  3 23 17 28 26
  23700493.105     -890741.00549   -678672.91149  23700493.2904   23700499.9934
  21187086.595   -17841066.58149 -12827573.99449  21187086.4154   21187090.7714
  23709471.992    17257988.65249  13444212.63649  23709472.8244   23709477.5214
  21744303.559   -12723702.49649  -9608301.26049  21744302.9224   21744308.0424
  20299581.501   -17941875.74549 -13793662.45449  20299580.8534   20299585.3884
  20459403.404    -7025884.20949  -5471676.00149  20459402.1314   20459407.6474
  20160084.334   -19927854.061 9 -15514056.443 9  20160083.854    20160087.931
  23184710.522    -3861545.70349  -3001592.46249  23184710.7694   23184716.0424
 96  9 17 18 47 59.9990000  0  8  1 21  6  3 23 17 28 26
  23677154.198    -1013386.49349   -774240.73349  23677151.9594   23677163.1784
  21174962.640   -17904779.27649 -12877220.24249  21174961.9394   21174967.1174
  23729033.825    17360783.09849  13524312.15949  23729034.8214   23729041.4444
  21729163.843   -12803261.99249  -9670295.68049  21729163.8834   21729168.5694
  20300422.399   -17937457.06549 -13790219.33749  20300421.4714   20300426.0994
  20463570.409    -7003985.15349  -5454611.81449  20463569.6664   20463574.8214
  20162571.011   -19914786.953 9 -15503874.296 9  20162570.453    20162574.551
  23197912.430    -3792169.03249  -2947532.75449  23197912.7594   23197917.5164
 96  9 17 18 48 29.9980000  0  8  1 21  6  3 23 17 28 26
  23653870.230    -1135742.08949   -869582.66749  23653870.5564   23653878.3754
  21162927.264   -17968026.02749 -12926503.42349  21162926.3514   21162931.0684
  23748654.275    17463888.55249  13604653.88749  23748655.3084   23748662.3604
  21714153.197   -12882143.65749  -9731761.91249  21714152.6454   21714157.0944
  20301365.561   -17932500.87349 -13786357.37149  20301364.5884   20301369.4914
  20467835.477    -6981573.01149  -5437147.81849  20467834.5734   20467839.9234
  20165208.311   -19900927.742 9 -15493074.936 9  20165208.027    20165212.139
  23211218.595    -3722244.58349  -2893046.19949  23211218.4184   23211224.0674
 96  9 17 18 48 59.9980000  0  8  1 21  6  3 23 17 28 26
  23630629.396    -1257876.53949   -964752.37249  23630630.5254   23630635.8564
  21150969.610   -18030863.89149 -12975467.99049  21150968.4694   21150973.6204
  23768320.418    17567233.56049  13685182.32949  23768321.3044   23768328.2924
  21699260.614   -12960405.48949  -9792745.13749  21699260.8444   21699264.8924
  20302396.530   -17927083.26649 -13782135.88049  20302395.2744   20302400.0654
  20472187.097    -6958705.12349  -5419328.70649  20472186.2704   20472191.6964
  20167984.144   -19886340.967 9 -15481708.638 9  20167983.206    20167987.581
  23224616.083    -3651841.18849  -2838186.43949  23224616.3534   23224620.6794
 96  9 17 18 49 29.9980000  0  8  1 21  6  3 23 17 28 26
  23607394.755    -1379975.17149  -1059894.11849  23607392.4124   23607399.1234
  21139060.176   -18093447.69049 -13024234.59249  21139058.7044   21139064.3004
  23787996.216    17670632.33849  13765752.76449  23787996.5934   23788006.0134
  21684451.733   -13038226.33049  -9853384.75049  21684450.9474   21684456.1804
  20303477.025   -17921404.54749 -13777710.91349  20303476.2064   20303481.0844
  20476590.368    -6935566.24749  -5401298.43049  20476589.5324   20476594.8744
  20170864.446   -19871204.807 9 -15469914.240 9  20170863.732    20170868.253
  23238072.033    -3581128.26549  -2783085.48749  23238071.6084   23238076.7654
 96  9 17 18 49 59.9980000  0  8  1 21  6  3 23 17 28 26
  23584185.747    -1501940.06049  -1154931.57249  23584185.8984   23584190.0754
  21127224.494   -18155643.99249 -13072699.23749  21127224.0974   21127228.3444
  23807702.258    17774187.66349  13846445.15049  23807702.7904   23807710.5564
  21669744.762   -13115511.22649  -9913606.74849  21669744.3884   21669749.9184
  20304625.250   -17915371.37649 -13773009.75249  20304624.1114   20304628.7184
  20481064.782    -6912053.74449  -5382977.02449  20481064.3844   20481068.8574
  20173870.751   -19855406.880 9 -15457604.184 9  20173869.871    20173874.151
  23251610.234    -3509985.38849  -2727649.51849  23251610.0254   23251614.8004
 96  9 17 18 50 29.9980000  0  8  1 21  6  3 23 17 28 26
  23560991.022    -1623830.94349  -1249911.46349  23560990.6264   23560997.7054
  21115451.227   -18217513.31549 -13120909.10949  21115451.0374   21115455.1214
  23827425.667    17877831.51649  13927206.48449  23827426.9464   23827431.3194
  21655129.148   -13192316.98649  -9973455.38149  21655127.9174   21655133.6354
  20305830.059   -17909039.89449 -13768076.13449  20305829.1574   20305833.6074
  20485599.671    -6888223.00949  -5364407.63349  20485598.8054   20485603.4534
  20176993.310   -19838997.712 9 -15444817.831 9  20176993.168    20176996.722
  23265222.927    -3438449.21549  -2671907.09249  23265223.7514   23265229.2904
 96  9 17 18 50 59.9980000  0  8  1 21  6  3 23 17 28 26
  23537789.147    -1745760.38849  -1344921.34849  23537789.1184   23537794.5784
  21103716.676   -18279178.79749 -13168960.13849  21103716.2614   21103720.7804
  23847145.487    17981457.99049  14007954.24849  23847143.4564   23847150.9744
  21640581.683   -13268764.33649 -10033024.74949  21640581.1174   21640586.1844
  20307068.341   -17902532.68749 -13763005.59149  20307067.4204   20307072.4484
  20490174.415    -6864182.65749  -5345674.90349  20490173.0684   20490178.0934
  20180211.641   -19822085.453 9 -15431639.477 9  20180211.111    20180215.262
  23278889.722    -3366630.96249  -2615944.83449  23278889.4904   23278894.7524
 96  9 17 18 51 29.9980000  0  8  1 21  6  3 23 17 28 26
  23514582.253    -1867713.88349  -1439950.01649  23514581.2544   23514587.5314
  21092022.653   -18340631.70749 -13216845.50149  21092021.8974   21092026.8054
  23866866.864    18085098.06249  14088712.64649  23866866.2324   23866872.2494
  21626104.136   -13344844.45049 -10092307.93349  21626103.2404   21626108.4794
  20308345.549   -17895820.19849 -13757775.08849  20308344.6864   20308349.3364
  20494790.400    -6839925.47449  -5326773.21449  20494789.1234   20494794.6704
  20183528.612   -19804654.683 9 -15418057.066 9  20183528.164    20183532.329
  23292611.706    -3294521.19749  -2559755.43749  23292612.5504   23292617.3444
 96  9 17 18 51 59.9980000  0  8  1 21  6  3 23 17 28 26
  23491383.503    -1989625.41749  -1534945.99249  23491382.1154   23491389.3784
  21080373.143   -18401850.20449 -13264548.22349  21080371.8724   21080377.4894
  23886602.764    18188813.55449  14169529.85349  23886602.3794   23886610.2994
  21611706.518   -13420504.10849 -10151263.53449  21611706.2174   21611709.4454
  20309673.610   -17888841.95849 -13752337.51149  20309672.7964   20309677.5054
  20499455.816    -6815407.96949  -5307668.68849  20499454.8834   20499459.8754
  20186952.287   -19786663.453 9 -15404037.949 9  20186951.734    20186955.847
  23306396.008    -3222085.26049  -2503311.89649  23306395.8384   23306402.4594
 96  9 17 18 52 29.9980000  0  8  1 21  6  3 23 17 28 26
  23468198.203    -2111465.06249  -1629885.95549  23468196.6764   23468203.1364
  21068767.785   -18462836.92249 -13312070.32849  21068767.1764   21068772.2204
  23906357.582    18292624.08049  14250421.03649  23906357.1434   23906363.8274
  21597394.030   -13495716.89949 -10209870.89249  21597393.5264   21597398.6724
  20311055.570   -17881579.81049 -13746678.69949  20311054.7194   20311059.6294
  20504172.002    -6790624.56149  -5288356.96249  20504171.1584   20504176.6024
  20190483.721   -19768105.894 9 -15389577.535 9  20190482.989    20190487.346
  23320244.162    -3149313.45449  -2446606.62549  23320244.4214   23320250.2834
 96  9 17 18 52 59.9980000  0  8  1 21  6  3 23 17 28 26
  23445011.550    -2233310.11049  -1724830.12849  23445009.6784   23445016.8774
  21057190.277   -18523677.66649 -13359478.69149  21057189.4014   21057194.5034
  23926113.977    18396440.14149  14331316.53749  23926113.3764   23926119.3494
  21583149.389   -13570573.27749 -10268200.53949  21583148.4374   21583153.3964
  20312474.579   -17874122.83549 -13740868.08749  20312473.8174   20312478.3054
  20508920.328    -6765671.82849  -5268913.28649  20508919.6004   20508924.8994
  20194104.352   -19749079.476 9 -15374751.777 9  20194103.913    20194107.800
  23334135.859    -3076312.00849  -2389722.41149  23334135.6044   23334141.6054
 96  9 17 18 53 29.9980000  0  8  1 21  6  3 23 17 28 26
  23421856.947    -2354988.77749  -1819644.68049  23421855.5374   23421862.0344
  21045672.062   -18584206.55449 -13406644.05449  21045671.2554   21045675.9964
  23945902.060    18500425.67249  14412344.10049  23945900.3384   23945905.8684
  21569003.383   -13644911.65349 -10326126.53749  21569003.2704   21569008.2454
  20313962.296   -17866304.99549 -13734776.26849  20313961.4474   20313965.9464
  20513731.858    -6740387.62849  -5249211.33349  20513730.9704   20513735.8774
  20197843.680   -19729429.338 9 -15359440.009 9  20197843.044    20197846.930
  23348102.674    -3002915.95449  -2332530.72049  23348102.0054   23348107.3824
 96  9 17 18 53 59.9980000  0  8  1 21  6  3 23 17 28 26
  23398741.945    -2476459.53949  -1914297.16549  23398740.0994   23398747.7634
  21034219.263   -18644390.74849 -13453540.82549  21034218.4944   21034223.1334
  23965726.088    18604598.91649  14493517.96649  23965724.2944   23965730.5174
  21554961.809   -13718701.49749 -10383625.13249  21554961.8004   21554965.4954
  20315524.223   -17858097.78349 -13728381.04449  20315523.5764   20315527.7774
  20518614.713    -6714727.56549  -5229216.49949  20518613.5394   20518619.0084
  20201707.808   -19709123.187 9 -15343617.060 9  20201707.249    20201711.263
  23362152.151    -2929085.96549  -2275000.87949  23362152.0194   23362157.0564
 96  9 17 18 54 29.9980000  0  8  1 21  6  3 23 17 28 26
  23375669.812    -2597703.62549  -2008773.00149  23375668.1324   23375674.1934
  21022839.383   -18704191.90949 -13500139.12449  21022838.4024   21022844.0544
  23985585.913    18708961.55449  14574839.37849  23985584.0164   23985589.1124
  21541028.488   -13791921.73449 -10440679.85349  21541028.2564   21541032.8864
  20317162.516   -17849488.58249 -13721672.57549  20317161.3424   20317166.5214
  20523577.418    -6688648.12849  -5208894.88349  20523576.4844   20523581.5494
  20205701.180   -19688138.141 9 -15327265.091 9  20205700.665    20205704.547
  23376286.429    -2854810.04149  -2217123.56749  23376285.8544   23376292.9354
 96  9 17 18 54 59.9980000  0  8  1 21  6  3 23 17 28 26
  23352631.954    -2718766.81549  -2103107.94249  23352630.4004   23352634.8424
  21011525.915   -18763644.74549 -13546466.01249  21011525.1644   21011530.4944
  24005470.267    18813457.47549  14656264.59749  24005468.8604   24005477.4774
  21527195.013   -13864616.72249 -10497325.31149  21527194.3334   21527199.4164
  20318868.583   -17840523.27149 -13714686.62949  20318867.8504   20318872.3584
  20528615.548    -6662172.94849  -5188264.88449  20528615.3054   20528619.7574
  20209815.900   -19666515.282 9 -15310416.129 9  20209815.466    20209819.623
  23390495.925    -2780139.20149  -2158938.52149  23390496.1064   23390500.0064
 96  9 17 18 55 29.9980000  0  8  1 21  6  3 23 17 28 26
  23329623.355    -2839676.07549  -2197322.89849  23329622.3494   23329628.1044
  21000273.938   -18822774.73549 -13592541.31749  21000273.2934   21000277.8104
  24025373.786    18918052.70949  14737767.19449  24025373.0704   24025378.7874
  21513458.397   -13936803.19849 -10553574.51149  21513457.4534   21513462.7444
  20320636.673   -17831232.23849 -13707446.86949  20320635.2474   20320639.9994
  20533725.756    -6635319.24949  -5167339.93749  20533725.5384   20533730.1914
  20214048.206   -19644274.859 9 -15293085.947 9  20214047.096    20214051.701
  23404776.191    -2705096.65049  -2100463.84649  23404776.7504   23404780.7614
 96  9 17 18 55 59.9980000  0  8  1 21  6  3 23 17 28 26
  23306639.944    -2960454.71449  -2291436.07949  23306638.7904   23306643.7734
  20989080.548   -18881596.50449 -13638376.46549  20989079.6134   20989084.7054
  24045290.107    19022713.08749  14819320.58549  24045290.8024   24045295.6254
  21499818.267   -14008482.44749 -10609428.47249  21499817.9764   21499821.8914
  20322462.154   -17821638.93849 -13699971.58349  20322461.4634   20322465.9714
  20538904.334    -6608106.02949  -5146134.83149  20538903.7934   20538908.6304
  20218395.187   -19621430.793 9 -15275285.382 9  20218394.357    20218398.900
  23419121.851    -2629709.88049  -2041720.94749  23419120.3504   23419127.1344
 96  9 17 18 56 29.9980000  0  8  1 21  6  3 23 17 28 26
  23283682.856    -3081092.89449  -2385439.81449  23283681.4934   23283689.6784
  20977949.534   -18940090.14049 -13683955.91349  20977948.9484   20977952.7714
  24065220.398    19127444.62249  14900929.37249  24065220.7644   24065227.6484
  21486281.364   -14079618.85049 -10664859.42849  21486280.7274   21486285.3064
  20324347.119   -17811733.40649 -13692252.99649  20324346.1384   20324350.5034
  20544155.181    -6580513.36549  -5124634.07549  20544154.1184   20544159.5514
  20222860.378   -19597965.558 9 -15257000.811 9  20222859.736    20222864.437
  23433533.682    -2553976.14449  -1982707.68749  23433533.7124   23433537.4344
 96  9 17 18 56 59.9980000  0  8  1 21  6  3 23 17 28 26
  23260740.683    -3201652.46849  -2479382.26849  23260741.2244   23260746.2814
  20966870.760   -18998309.49549 -13729321.64449  20966869.9984   20966874.8614
  24085158.761    19232210.03849  14982564.57949  24085162.5694   24085163.3674
  21472838.498   -14150261.46449 -10719905.62949  21472838.8434   21472842.7504
  20326285.753   -17801545.83249 -13684314.63849  20326284.9564   20326289.5454
  20549465.710    -6552606.28849  -5102888.32049  20549464.5224   20549469.9404
  20227435.469   -19573923.286 9 -15238266.582 9  20227435.048    20227439.250
  23448002.543    -2477941.35449  -1923459.84149  23448002.6864   23448006.9564
 96  9 17 18 57 29.9980000  0  8  1 21  6  3 23 17 28 26
  23237813.407    -3322136.93049  -2573266.18549  23237814.0264   23237821.3494
  20955843.584   -19056257.80149 -13774476.16249  20955842.7024   20955847.5254
  24105104.699    19337025.70149  15064239.02349  24105104.1944   24105108.4904
  21459489.610   -14220410.91749 -10774567.55449  21459488.4854   21459494.2864
  20328278.341   -17791074.74749 -13676155.36249  20328277.2274   20328281.9724
  20554833.646    -6524397.82149  -5080907.71849  20554832.1264   20554837.8844
  20232120.231   -19549305.008 9 -15219083.532 9  20232119.725    20232123.867
  23462528.544    -2401606.24949  -1863978.00649  23462528.0204   23462534.7904
 96  9 17 18 57 59.9980000  0  8  1 21  6  3 23 17 28 26
  23214900.362    -3442547.01049  -2667092.19149  23214900.7394   23214906.5714
  20944867.726   -19113935.67449 -13819419.95049  20944866.5814   20944871.8944
  24125061.740    19441902.12849  15145960.84549  24125060.5384   24125065.6354
  21446233.644   -14290071.27049 -10828848.34749  21446233.1324   21446237.7404
  20330326.135   -17780313.67749 -13667770.12349  20330325.1994   20330329.5164
  20560261.024    -6495875.72749  -5058682.73649  20560260.4384   20560265.3554
  20236913.778   -19524115.549 9 -15199455.401 9  20236913.346    20236917.256
  23477111.294    -2324972.98349  -1804263.84349  23477111.0044   23477115.9854
 96  9 17 18 58 29.9980000  0  8  1 21  6  3 23 17 28 26
  23192011.923    -3562826.46249  -2760816.34249  23192011.1954   23192018.0174
  20933950.781   -19171304.51649 -13864122.93249  20933949.8484   20933954.7584
  24145039.924    19546890.31948                  24145039.9674   24145046.0354
  21433075.414   -14359218.20549 -10882729.08149  21433075.1214   21433079.1534
  20332438.884   -17769211.20549 -13659118.85049  20332437.6264   20332442.5554
  20565756.732    -6466996.43849  -5036179.41349  20565755.8144   20565760.8084
  20241823.250   -19498315.948 9 -15179351.844 9  20241822.688    20241826.869
  23491759.740    -2247995.01849  -1744281.06949  23491759.6734   23491765.1554
 96  9 17 18 58 59.9980000  0  8  1 21  6  3 23 17 28 26
  23169168.849    -3682867.97149  -2854355.14349  23169167.0994   23169175.4394
  20923109.703   -19228274.91249 -13908515.44549  20923108.5734   20923113.9274
  24165057.392                                    24165050.274    24165058.9224
  21420031.389   -14427765.26649 -10936142.37249  21420030.2524   21420035.2084
  20334632.004   -17757686.03849 -13650138.21249  20334631.0884   20334635.4734
  20571333.386    -6437691.17349  -5013344.15149  20571332.7934   20571336.8774
  20246864.960   -19471821.759 9 -15158707.028 9  20246864.447    20246868.633
  23506492.322    -2170574.68349  -1683953.59949  23506492.7944   23506497.0794
 96  9 17 18 59 29.9980000  0  7  1 21  3 23 17 28 26
  23146348.407    -3802789.00849  -2947799.99549  23146347.4674   23146354.6324
  20912314.158   -19285005.33449 -13952720.98649  20912313.7964   20912318.5714
  21407075.680   -14495847.32249 -10989193.33049  21407075.4404   21407079.3844
  20336872.456   -17745912.45549 -13640964.00149  20336871.4374   20336876.1674
  20576963.344    -6408105.27249  -4990290.21849  20576962.3554   20576967.4164
  20252009.150   -19444788.948 9 -15137642.527 9  20252008.946    20252013.132
  23521281.537    -2092857.03449  -1623394.44549  23521281.2264   23521287.0754
 96  9 17 18 59 59.9980000  0  7  1 21  3 23 17 28 26
  23123552.494    -3922582.48149  -3041145.50249  23123551.0694   23123557.7834
  20901562.080   -19341508.12749 -13996749.13049  20901561.4704   20901566.1734
  21394206.445   -14563475.92249 -11041890.92649  21394206.3694   21394210.2094
  20339156.214   -17733910.82849 -13631612.08949  20339155.4364   20339159.5874
  20582643.393    -6378256.27449  -4967031.27749  20582642.5534   20582647.9124
  20257253.526   -19417230.452 9 -15116168.391 9  20257252.796    20257256.840
  23536124.068    -2014859.85049  -1562617.46949  23536124.4904   23536129.0484
 96  9 17 19  0 29.9980000  0  7  1 21  3 23 17 28 26
  23100798.577    -4042155.56949  -3134319.28949  23100797.6914   23100803.8104
  20890871.145   -19397689.57149 -14040526.86549  20890870.3614   20890875.4464
  21381440.693   -14630560.27349 -11094164.46249  21381439.5574   21381444.5044
  20341496.784   -17721611.41149 -13622028.13449  20341495.7664   20341500.6264
  20588385.028    -6348083.95649  -4943520.39849  20588383.7884   20588389.5924
  20262614.378   -19389058.926 9 -15094216.569 9  20262613.984    20262618.023
  23551036.383    -1936496.34049  -1501555.08849  23551036.6174   23551040.6884
 96  9 17 19  0 59.9980000  0  7  1 21  3 23 17 28 26
  23078102.917    -4161423.42849  -3227255.20849  23078102.5924   23078108.6334
  20880258.999   -19453456.63749 -14083981.72049  20880258.1284   20880263.0214
  21368799.614   -14696990.25849 -11145928.09449  21368799.0784   21368803.9744
  20343910.513   -17708927.15949 -13612144.30549  20343909.6644   20343914.0914
  20594207.019    -6317488.64249  -4919679.92749  20594206.3284   20594211.5494
  20268111.039   -19360174.160 9 -15071708.985 9  20268110.409    20268114.577
  23566036.697    -1857669.09049  -1440131.30049  23566036.1334   23566041.5264
 96  9 17 19  1 29.9980000  0  7  1 21  3 23 17 28 26
  23055441.339    -4280511.41449  -3320050.96749  23055440.8304   23055445.8634
  20869704.393   -19508921.20149 -14127200.86649  20869703.4254   20869708.3274
  21356258.523   -14762894.21249 -11197281.82549  21356258.2804   21356262.6264
  20346378.319   -17695958.98849 -13602039.24949  20346377.3464   20346381.9774
  20600091.706    -6286565.34449  -4895583.86249  20600090.9844   20600096.0024
  20273720.825   -19330694.204 9 -15048737.610 9  20273720.096    20273724.150
  23581101.716    -1778501.67049  -1378442.46049  23581102.8924   23581105.7974
 96  9 17 19  1 59.9980000  0  7  1 21  3 23 17 28 26
  23032787.980    -4399555.83449  -3412812.78449  23032786.8634   23032791.9704
  20859187.942   -19564184.95549 -14170263.51649  20859187.6954   20859192.4744
  21343793.318   -14828398.86649 -11248324.41549  21343792.9704   21343797.2644
  20348880.792   -17682808.16849 -13591791.86249  20348880.0734   20348884.6084
  20606017.597    -6255425.46349  -4871319.04949  20606016.4124   20606021.5624
  20279421.945   -19300734.514 9 -15025392.424 9  20279421.279    20279425.289
  23596207.621    -1699119.04149  -1316585.92649  23596207.9954   23596211.6444
 96  9 17 19  2 29.9980000  0  7  1 21  3 23 17 28 26
  23010161.144    -4518459.22649  -3505464.70649  23010160.1484   23010165.2074
  20848729.726   -19619143.55149 -14213088.37849  20848729.4054   20848734.4184
  21331428.254   -14893378.01749 -11298957.50949  21331427.1604   21331432.1494
  20351442.832   -17669344.85049 -13581300.97149  20351442.0404   20351446.0414
  20612008.882    -6223940.60449  -4846785.40349  20612007.9744   20612012.6844
  20285235.042   -19270186.187 9 -15001588.552 9  20285234.374    20285238.650
  23611374.736    -1619416.47149  -1254480.06149  23611374.4364   23611379.1504
 96  9 17 19  2 59.9980000  0  7  1 21  3 23 17 28 26
  22987565.269    -4637201.02149  -3597990.74249  22987563.8914   22987569.5984
  20838330.656   -19673791.81249 -14255671.44049  20838329.4554   20838334.5104
  21319166.353   -14957814.37349 -11349167.65549  21319166.3384   21319170.3854
  20354070.742   -17655534.94149 -13570540.00949  20354069.9014   20354074.1684
  20618071.411    -6192082.01849  -4821960.55549  20618070.3474   20618075.1734
  20291162.815   -19239035.545 9 -14977315.346 9  20291162.051    20291166.366
  23626603.021    -1539391.58549  -1192123.04649  23626602.6634   23626608.9724
 96  9 17 19  3 29.9980000  0  7  1 21  3 23 17 28 26
  22965006.288    -4755747.44049  -3690364.51349  22965005.6474   22965011.0264
  20827993.506   -19728113.07649 -14297999.70149  20827993.0304   20827997.3624
  21307010.265   -15021695.02649 -11398944.78549  21307009.6044   21307014.0544
  20356768.106   -17641360.05249 -13559494.64849  20356767.1634   20356771.5064
  20624208.696    -6159830.18449  -4796829.27349  20624207.6084   20624212.5404
  20297207.326   -19207271.264 9 -14952563.980 9  20297206.886    20297211.118
  23641892.673    -1459044.60949  -1129515.04649  23641892.5884   23641896.9214
 96  9 17 19  3 59.9980000  0  7  1 21  3 23 17 28 26
  22942488.266    -4874080.55349  -3782572.07249  22942487.3374   22942492.8884
  20817719.244   -19782104.87449 -14340071.22449  20817719.1734   20817723.0594
  21294964.236   -15084997.57349 -11448271.43649  21294963.5244   21294968.4284
  20359534.128   -17626824.95849 -13548168.60549  20359533.0794   20359537.3114
  20630421.311    -6127182.35849  -4771389.42949  20630420.6574   20630425.0954
  20303371.595   -19174878.378 9 -14927322.788 9  20303371.039    20303375.317
  23657245.269    -1378366.24549  -1066648.80649  23657244.8104   23657249.3514
 96  9 17 19  4 29.9980000  0  7  1 21  3 23 17 28 26
  22920014.414    -4992182.10949  -3874599.21049  22920012.8254   22920019.9804
  20807508.667   -19835762.57249 -14381882.42049  20807507.4024   20807512.9814
  21283030.849   -15147708.20549 -11497136.86049  21283030.4654   21283034.5534
  20362367.432   -17611935.44049 -13536566.39349  20362366.6874   20362371.3924
  20636707.938    -6094145.51449  -4745646.45949  20636706.7954   20636712.3384
  20309656.999   -19141848.628 9 -14901585.349 9  20309656.427    20309660.633
  23672663.957    -1297340.91149  -1003512.22549  23672663.6164   23672668.7044
 96  9 17 19  4 59.9980000  0  7  1 21  3 23 17 28 26
  22897584.787    -5110049.02049  -3966443.50949  22897583.6134   22897590.5714
  20797363.579   -19889074.92449 -14423424.50749  20797362.5754   20797367.5634
  21271209.861   -15209828.23149 -11545542.08049  21271208.9884   21271213.1614
  20365262.667   -17596721.14949 -13524711.10949  20365261.8134   20365266.0284
  20643066.723    -6060729.38249  -4719607.93649  20643066.2034   20643071.3104
  20316063.011   -19108185.032 9 -14875353.995 9  20316062.183    20316066.660
  23688148.899    -1215966.96849   -940103.99349  23688148.0464   23688153.1124
 96  9 17 19  5 29.9980000  0  7  1 21  3 23 17 28 26
  22875199.388    -5227685.48449  -4058108.24649  22875198.7694   22875204.5304
  20787286.271   -19942031.97049 -14464689.73449  20787285.5324   20787290.5344
  21259502.819   -15271348.67249 -11593480.08449  21259502.1534   21259506.2464
  20368214.479   -17581209.03249 -13512623.76049  20368213.5994   20368218.2474
  20649497.413    -6026936.94049  -4693276.19649  20649496.5714   20649501.7334
  20322589.041   -19073890.711 9 -14848631.177 9  20322588.305    20322593.009
  23703701.236    -1134239.51249   -876420.30949  23703700.4404   23703707.8804
 96  9 17 19  5 59.9980000  0  7  1 21  3 23 17 28 26
  22852831.040    -5345232.05449  -4149702.95949  22852830.0554   22852836.6364
  20777253.727   -19994753.05049 -14505771.09149  20777252.6474   20777257.5754
  21247888.838   -15332380.20849 -11641037.13049  21247887.4444   21247892.3204
  20371197.746   -17565531.94849 -13500407.85749  20371197.2244   20371201.4444
  20655971.245    -5992916.84949  -4666767.05049  20655970.2894   20655975.7494
  20329209.959   -19039098.162 9 -14821520.117 9  20329209.371    20329213.688
  23719297.684    -1052279.26349   -812555.20949  23719297.2024   23719302.4584
 96  9 17 19  6 29.9980000  0  7  1 21  3 23 17 28 26
  22830486.804    -5462651.78849  -4241198.81449  22830486.5234   22830493.8494
  20767273.276   -20047200.05849 -14546638.89149  20767272.1074   20767277.2264
  21236376.119   -15392879.31449 -11688179.28249  21236375.0234   21236379.9654
  20374222.044   -17549639.83749 -13488024.39849  20374221.3204   20374225.5554
  20662495.109    -5958633.24349  -4640052.57949  20662493.6234   20662499.4774
  20335930.868   -19003779.562 9 -14793999.161 9  20335930.388    20335934.700
  23734943.276     -970060.17949   -748488.44449  23734942.1714   23734949.4954
 96  9 17 19  6 59.9980000  0  7  1 21  3 23 17 28 26
  22808168.646    -5579934.77649  -4332588.13849  22808167.2444   22808173.7134
  20757344.753   -20099374.63149 -14587294.39149  20757344.0604   20757349.1294
  21224965.860   -15452840.38649 -11734902.19849  21224965.0724   21224970.0674
  20377290.818   -17533513.43149 -13475458.37649  20377289.8164   20377294.0974
  20669072.545    -5924068.28549  -4613118.85549  20669071.5794   20669077.1684
  20342752.552   -18967931.426 9 -14766065.573 9  20342751.716    20342756.085
  23750636.354     -887592.33149   -684227.86049  23750635.8574   23750641.4204
 96  9 17 19  7 29.9980000  0  7  1 21  3 23 17 28 26
  22785873.206    -5697096.82949  -4423883.20749  22785872.0994   22785878.4034
  20747460.613   -20151316.07949 -14627768.23849  20747460.2024   20747464.8244
  21213651.312   -15512299.06749 -11781233.63849  21213650.1564   21213655.4214
  20380404.383   -17517151.48249 -13462708.80949  20380403.6104   20380407.6764
  20675697.187    -5889255.99049  -4585992.41449  20675696.0934   20675701.8264
  20349670.671   -18931576.692 9 -14737737.241 9  20349669.997    20349674.196
  23766373.472     -804894.84849   -619788.31249  23766374.9614   23766378.0874
 96  9 17 19  7 59.9980000  0  7  1 21  3 23 17 28 26
  22763602.574    -5814128.12449  -4515076.38149  22763601.6274   22763608.2714
  20737618.927   -20203035.10949 -14668068.78649  20737617.8064   20737622.6664
  21202432.217   -15571255.22849 -11827173.49749  21202432.1924   21202436.3734
  20383570.504   -17500513.55249 -13449744.19449  20383569.4784   20383573.9144
  20682372.744    -5854175.54249  -4558657.02649  20682372.0824   20682377.5244
  20356687.188   -18894704.656 9 -14709005.801 9  20356686.369    20356690.443
  23782156.946     -721953.84149   -555158.97849  23782157.0554   23782162.8464
 96  9 17 19  8 29.9980000  0  7  1 21  3 23 17 28 26
  22741371.496    -5930953.87949  -4606109.36949  22741370.8474   22741377.7554
  20727828.832   -20254481.79549 -14708157.11449  20727828.1134   20727833.1914
  21191317.441   -15629664.31049 -11872687.06749  21191316.7574   21191321.9664
  20386800.909   -17483537.33249 -13436515.98149  20386799.9824   20386804.3534
  20689114.745    -5818745.98449  -4531049.59949  20689114.1444   20689119.2524
  20363815.255   -18857246.575 9 -14679817.716 9  20363814.475    20363818.842
  23797997.050     -638711.69749   -490295.04149  23797996.1404   23798002.4914
 96  9 17 19  8 59.9980000  0  7  1 21  3 23 17 28 26
  22719187.847    -6047528.05449  -4696946.35449  22719187.7944   22719192.4984
  20718099.744   -20305608.94849 -14747996.44449  20718098.9194   20718104.0044
  21180312.841   -15687494.10649 -11917749.23849  21180311.3764   21180317.1804
  20390102.293   -17466188.94449 -13422997.77249  20390100.9374   20390105.8594
  20695932.595    -5782918.61349  -4503132.19149  20695931.3954   20695937.0214
  20371063.904   -18819154.707 9 -14650135.775 9  20371062.917    20371067.555
  23813905.402     -555114.81549   -425154.61849  23813904.1174   23813910.4074
 96  9 17 19  9 29.9980000  0  8  1 21  3  9 23 17 28 26
  22697025.123    -6163995.70049  -4787700.28549  22697023.7474   22697031.2504
  20708407.143   -20356543.86749 -14787685.99049  20708406.3294   20708411.0074
  21169393.007   -15744877.14749 -11962463.30249  21169391.7354   21169396.9054
  24166895.166    -4314819.85449  -3343560.61049  24166892.5284   24166900.9214
  20393443.933   -17448628.53249 -13409314.34749  20393442.6334   20393447.4154
  20702799.910    -5746831.11649  -4475012.08449  20702799.1004   20702804.3814
  20378404.840   -18780578.102 9 -14620076.101 9  20378404.264    20378408.468
  23829851.940     -471316.07649   -359856.97849  23829850.2884   23829856.9984
 96  9 17 19  9 59.9980000  0  8  1 21  3  9 23 17 28 26
  22674880.074    -6280368.38249  -4878380.21449  22674879.6674   22674885.2814
  20698752.764   -20407278.47249 -14827219.45349  20698751.6624   20698756.3214
  21158558.409   -15801813.80349 -12006829.52749  21158557.5354   21158562.2124
  24153496.958    -4385227.45849  -3398423.64849  24153496.2134   24153502.8754
  20396817.878   -17430897.90349 -13395498.28449  20396816.9774   20396821.7864
  20709715.498    -5710488.94749  -4446693.53949  20709713.9034   20709719.6954
  20385834.247   -18741536.089 9 -14589653.786 9  20385833.511    20385837.906
  23845828.754     -387354.61749   -294432.52949  23845829.1364   23845832.2194
 96  9 17 19 10 29.9980000  0  8  1 21  3  9 23 17 28 26
  22652780.763    -6396501.23049  -4968873.26649  22652780.3764   22652784.5304
  20689166.468   -20457654.49349 -14866473.48749  20689165.4694   20689170.8194
  21147836.068   -15858159.88449 -12050735.58049  21147836.2084   21147840.1104
  24140159.078    -4455318.78749  -3453040.23549  24140158.3264   24140164.6934
  20400243.696   -17412895.26849 -13381470.26749  20400242.5864   20400247.2904
  20716702.828    -5673769.13949  -4418080.72549  20716701.9764   20716707.1994
  20393376.270   -18701902.351 9 -14558770.378 9  20393375.180    20393379.838
  23861856.493     -303129.47549   -228802.60049  23861857.0604   23861861.3264
 96  9 17 19 10 59.9980000  0  8  1 21  3  9 23 17 28 26
  22630724.664    -6512406.23649  -5059188.81249  22630723.8664   22630727.9864
  20679648.777   -20507670.50349 -14905447.00849  20679647.6284   20679653.0674
  21137226.942   -15913912.37949 -12094179.07549  21137227.3324   21137231.0584
  24126876.519    -4525117.91249  -3507429.08949  24126876.0814   24126882.4654
  20403716.285   -17394646.83749 -13367250.73049  20403715.2924   20403719.9324
  20723761.298    -5636677.78049  -4389178.37949  20723760.6494   20723765.4724
  20401026.752   -18661698.552 9 -14527442.773 9  20401026.034    20401030.275
  23877930.240     -218661.75549   -162983.66849  23877928.6944   23877934.1404
 96  9 17 19 11 29.9980000  0  8  1 21  3  9 23 17 28 26
  22608710.249    -6628092.20749  -5149333.66149  22608708.7274   22608714.2364
  20670197.079   -20557338.67549 -14944149.47949  20670196.3114   20670200.9034
  21126731.377   -15969068.10349 -12137157.55749  21126730.8494   21126735.3304
  24113651.243    -4594616.20749  -3561583.58949  24113651.9664   24113654.8714
  20407232.352   -17376170.08249 -13352853.26249  20407231.4984   20407235.7334
  20730888.126    -5599226.45949  -4359995.55449  20730886.8964   20730892.1504
  20408783.525   -18620936.293 9 -14495679.999 9  20408783.014    20408786.735
  23894048.110     -133961.54949    -96983.55549  23894048.1154   23894051.9214
 96  9 17 19 11 59.9980000  0  8  1 21  3  9 23 17 28 26
  22586735.086    -6743571.01549  -5239317.13449  22586734.9594   22586740.3274
  20660803.225   -20606704.10949 -14982616.05249  20660803.0344   20660807.2224
  21116344.396   -16023652.18349 -12179690.61349  21116343.3104   21116348.5184
  24100485.518    -4663801.21349  -3615493.93349  24100483.0734   24100490.5684
  20410789.437   -17357477.40049 -13338287.55249  20410788.1154   20410792.8964
  20738079.151    -5561436.26449  -4330548.66849  20738078.1374   20738083.4104
  20416644.033   -18579628.756 9 -14463492.331 9  20416643.872    20416648.243
  23910210.917      -49024.30849    -30798.78149  23910210.4064   23910217.0724
 96  9 17 19 12 29.9980000  0  8  1 21  3  9 23 17 28 26
  22564800.179    -6858840.23049  -5329137.24149  22564798.5154   22564804.6044
  20651465.642   -20655774.47049 -15020852.70249  20651464.2594   20651469.7384
  21106066.849   -16077661.24249 -12221775.59249  21106065.6154   21106071.1354
  24087381.423    -4732661.30449  -3669151.12649  24087379.6544   24087387.7434
  20414393.986   -17338535.08549 -13323527.32049  20414393.1504   20414397.6544
  20745337.422    -5523294.41249  -4300827.76349  20745336.0534   20745341.8554
  20424610.985   -18537762.878 9 -14430869.595 9  20424610.496    20424614.643
  23926425.692       36184.29349     35597.47649  23926426.1504   23926431.1034
 96  9 17 19 12 59.9980000  0  8  1 21  3  9 23 17 28 26
  22542927.735    -6973780.45049  -5418701.04649  22542927.0664   22542930.8144
  20642203.363   -20704447.21049 -15058779.50249  20642202.1414   20642207.8714
  21095918.681   -16130990.18249 -12263330.60449  21095918.0604   21095922.3604
  24074362.300    -4801076.36949  -3722461.50449  24074361.3764   24074370.2554
  20418073.762   -17319198.31249 -13308459.71649  20418072.6824   20418077.1044
  20752685.270    -5484681.39149  -4270739.71149  20752683.5464   20752689.7374
  20432707.319   -18495216.216 9 -14397716.383 9  20432707.021    20432711.036
  23942721.651      121819.15249    102325.88849  23942721.0694   23942727.1274
 96  9 17 19 13 29.9980000  0  8  1 21  3  9 23 17 28 26
  22521103.524    -7088468.37349  -5508068.20449  22521103.1054   22521108.4724
  20632998.025   -20752821.33749 -15096473.63049  20632997.2834   20633002.2384
  21085883.339   -16183725.82749 -12304423.31849  21085882.6874   21085887.2994
  24061409.401    -4869144.50849  -3775501.60749  24061408.9934   24061416.2394
  20421818.223   -17299520.39249 -13293126.28949  20421817.1504   20421822.0644
  20760104.607    -5445691.79349  -4240358.22549  20760103.4694   20760109.6114
  20440918.013   -18452068.980 9 -14364095.193 9  20440917.168    20440921.688
  23959084.282      207806.37849    169328.85049  23959084.2514   23959090.3294
 96  9 17 19 13 59.9980000  0  8  1 21  3  9 23 17 28 26
  22499284.342    -7203130.01149  -5597414.90649  22499283.6704   22499288.5834
  20623805.351   -20801129.17349 -15134116.10149  20623804.3274   20623809.3524
  21075917.540   -16236097.12649 -12345232.13049  21075916.3574   21075920.9474
  24048474.484    -4937120.66549  -3828469.96249  24048474.2684   24048480.3104
  20425586.990   -17279715.46649 -13277693.89449  20425585.4814   20425590.7004
  20767550.650    -5406562.91849  -4209868.21549  20767549.3254   20767555.0504
  20449198.758   -18408553.672 9 -14330187.189 9  20449197.945    20449202.865
  23975467.983      293902.23149    236416.49249  23975468.3294   23975473.2224
 96  9 17 19 14 29.9980000  0  8  1 21  3  9 23 17 28 26
  22477504.877    -7317582.59249  -5686598.66449  22477504.3184   22477509.9864
  20614662.468   -20849175.74249 -15171554.98149  20614661.3774   20614666.5704
  21066054.973   -16287925.14549 -12385617.60649  21066055.0444   21066058.9514
  24035586.596    -5004846.92349  -3881243.62449  24035584.8714   24035590.9374
  20429413.285   -17259607.45749 -13262025.32349  20429412.1524   20429417.3144
  20775055.507    -5367124.87249  -4179137.27749  20775054.2994   20775059.8474
  20457581.827   -18364500.671 9 -14295860.188 9  20457581.461    20457585.365
  23991902.627      380264.83149    303711.95349  23991901.0634   23991906.9674
 96  9 17 19 14 59.9980000  0  8  1 21  3  9 23 17 28 26
  22455784.162    -7431725.86549  -5775541.43849  22455782.6454   22455788.9934
  20605586.257   -20896871.42749 -15208720.46449  20605585.5504   20605590.0854
  21056312.829   -16339120.57749 -12425510.15349  21056312.6284   21056316.6364
  24022764.313    -5072229.02349  -3933749.05049  24022763.7374   24022769.5574
  20433308.296   -17239138.43349 -13246075.46149  20433307.5664   20433311.9234
  20782633.202    -5327303.90949  -4148107.96949  20782632.1834   20782637.6744
  20466082.128   -18319831.587 9 -14261053.154 9  20466081.207    20466085.673
  24008399.360      466957.12349    371264.33649  24008398.9114   24008403.5704
 96  9 17 19 15 29.9980000  0  8  1 21  3  9 23 17 28 26
  22434084.245    -7545759.53749  -5864398.79949  22434082.1984   22434088.0664
  20596540.192   -20944408.60249 -15245762.40049  20596539.3134   20596543.8594
  21046658.099   -16389856.40949 -12465044.56849  21046657.6624   21046662.6264
  24009971.973    -5139451.17349  -3986129.83449  24009969.8244   24009977.5884
  20437228.950   -17218535.82849 -13230021.48349  20437228.1314   20437232.7564
  20790245.429    -5287301.19649  -4116937.03049  20790244.6334   20790249.9734
  20474660.704   -18274750.804 9 -14225925.297 9  20474660.547    20474664.347
  24024915.726      553751.35149    438896.17749  24024914.5084   24024920.2644
 96  9 17 19 15 59.9980000  0  8  1 21  3  9 23 17 28 26
  22412441.748    -7659490.15549  -5953020.01749  22412440.0914   22412446.6404
  20587564.316   -20991577.04949 -15282517.03449  20587563.2874   20587568.3104
  21037128.021   -16439937.08349 -12504068.47149  21037127.2604   21037131.5064
  23997253.015    -5206287.48749  -4038210.02649  23997252.0584   23997259.3004
  20441204.916   -17197642.73149 -13213741.16849  20441203.7094   20441208.6844
  20797928.519    -5246926.58749  -4085476.31149  20797927.6544   20797933.2924
  20483353.649   -18229069.323 9 -14190329.357 9  20483352.880    20483357.266
  24041483.276      640813.90649    506737.07949  24041482.5084   24041488.6084
 96  9 17 19 16 29.9980000  0  8  1 21  3  9 23 17 28 26
  22390856.957    -7772917.54349  -6041404.96549  22390855.7234   22390862.3724
  20578658.027   -21038379.65149 -15318986.58449  20578657.5624   20578661.9604
  21027721.159   -16489370.05549 -12542587.66849  21027720.9724   21027725.3104
  23984610.483    -5272727.89349  -4089981.71249  23984608.5814   23984616.1734
  20445230.857   -17176485.46949 -13197254.98949  20445230.0724   20445234.8754
  20805682.612    -5206178.70949  -4053724.72949  20805681.7564   20805686.9244
  20492158.906   -18182796.907 9 -14154272.972 9  20492158.024    20492162.931
  24058101.348      728142.51449    574785.33649  24058102.0134   24058107.6594
 96  9 17 19 16 59.9980000  0  8  1 21  3  9 23 17 28 26
  22369315.761    -7886116.83949  -6129612.19449  22369314.5564   22369321.2524
  20569808.012   -21084886.66449 -15355225.81549  20569807.2994   20569811.7114
  21018425.708   -16538218.09349 -12580651.08749  21018424.9474   21018430.3884
  23972032.016    -5338825.75149  -4141486.47149  23972031.6584   23972038.6314
  20449296.057   -17155123.74249 -13180609.51549  20449294.9584   20449300.0134
  20813495.645    -5165121.24549  -4021731.92449  20813495.0974   20813500.2044
  20501063.576   -18136002.128 9 -14117809.527 9  20501063.179    20501067.100
  24074757.574      815669.19149    642987.89749  24074758.0324   24074763.6824
 96  9 17 19 17 29.9980000  0  8  1 21  3  9 23 17 28 26
  22347825.416    -7999049.00849  -6217611.25349  22347823.6944   22347831.1494
  20561023.904   -21131047.51949 -15391195.30649  20561023.1704   20561027.9694
  21009250.237   -16586435.72849 -12618223.28649  21009250.0394   21009254.0054
  23959526.244    -5404545.16549  -4192696.37049  23959525.2164   23959532.6204
  20453411.470   -17133497.02549 -13163757.52649  20453410.6284   20453415.2014
  20821377.840    -5123700.24949  -3989455.83649  20821377.1514   20821382.3754
  20510076.407   -18088639.571 9 -14080903.660 9  20510075.990    20510080.555
  24091459.044      903437.97549    711379.06949  24091457.4614   24091465.0304
 96  9 17 19 17 59.9980000  0  8  1 21  3  9 23 17 28 26
  22326400.682    -8111635.23049  -6305340.73349  22326398.9964   22326406.2464
  20552319.568   -21176789.59049 -15426838.47149  20552318.4564   20552323.6204
  21000205.094   -16633968.07249 -12655261.47749  21000204.1314   21000208.4724
  23947103.248    -5469829.46349  -4243567.14949  23947101.4574   23947109.5914
  20457595.052   -17111512.70349 -13146626.91449  20457594.0224   20457598.2904
  20829343.472    -5081841.05049  -3956838.29649  20829342.7264   20829348.0084
  20519211.082   -18040636.762 9 -14043498.909 9  20519210.486    20519214.783
  24108222.352      991531.66049    780023.46849  24108222.9954   24108229.7694
 96  9 17 19 18 29.9980000  0  8  1 21  3  9 23 17 28 26
  22305005.376    -8224067.31049  -6392950.07849  22305003.5874   22305008.9224
  20543655.388   -21222319.91449 -15462316.64849  20543654.5144   20543659.3214
  20991253.069   -16681010.75449 -12691918.11449  20991252.6284   20991257.1954
  23934722.521    -5534889.70249  -4294263.39749  23934721.7974   23934728.7714
  20461814.888   -17089336.83749 -13129347.01649  20461814.0514   20461818.5794
  20837356.530    -5039732.35349  -3924026.34249  20837355.6694   20837360.5334
  20528430.594   -17992188.303 9 -14005746.897 9  20528429.734    20528434.498
  24125014.698     1079775.08549    848784.49749  24125014.8204   24125019.7454
 96  9 17 19 18 59.9980000  0  9  1 21  3  9 23 31 17 28 26
  22283678.226    -8336142.79649  -6480281.60549  22283678.0914   22283683.8434
  20535072.428   -21267422.84949 -15497461.78749  20535071.5764   20535076.3814
  20982433.910   -16727355.61849 -12728030.99349  20982432.9144   20982438.0974
  23922422.991    -5599521.53749  -4344625.78249  23922421.7324   23922429.8044
  20466111.529   -17066758.13649 -13111753.24149  20466110.4674   20466115.1484
  23638656.629     -273476.80249   -179291.33249  23638655.6694   23638661.9434
  20845456.998    -4997163.73749  -3890856.00249  20845456.1514   20845461.2784
  20537774.978   -17943083.235 9 -13967483.237 9  20537774.475    20537778.510
  24141872.627     1168363.57849    917814.43949  24141873.0494   24141879.4174
 96  9 17 19 19 29.9980000  0  9  1 21  3  9 23 31 17 28 26
  22262387.037    -8448028.70849  -6567465.35949  22262386.0214   22262391.8844
  20526535.902   -21312281.84249 -15532416.84149  20526535.2254   20526540.2624
  20973714.470   -16773176.40449 -12763735.50049  20973713.3904   20973718.9444
  23910171.313    -5663902.64749  -4394792.84849  23910170.3834   23910177.6894
  20470448.811   -17043965.23149 -13093992.54449  20470447.7444   20470452.8304
  23619521.843     -374049.59449   -257659.73349  23619518.6284   23619523.6104
  20853612.187    -4954308.07549  -3857461.99249  20853610.9264   20853617.1174
  20547211.076   -17893496.665 9 -13928844.377 9  20547210.382    20547215.174
  24158762.945     1257120.15349    986975.38149  24158761.5574   24158768.9164
 96  9 17 19 19 59.9980000  0  9  1 21  3  9 23 31 17 28 26
  22241141.676    -8559674.35949  -6654461.94549  22241139.2804   22241145.8114
  20518050.973   -21356871.00849 -15567161.64949  20518050.0504   20518055.1244
  20965104.142   -16818424.19549 -12798993.52749  20965103.2614   20965108.4794
  23897979.231    -5727973.86749  -4444718.41049  23897977.9744   23897986.2394
  20474837.076   -17020903.97949 -13076022.73949  20474836.1064   20474840.6564
  23600450.102     -474268.76749   -335752.58149  23600446.5514   23600452.8704
  20861830.491    -4911120.39349  -3823809.27149  20861829.7964   20861835.1674
  20556746.767   -17843386.015 9 -13889797.154 9  20556746.001    20556750.879
  24175696.057     1346104.42549   1056313.69249  24175696.7134   24175701.2774
 96  9 17 19 20 29.9980000  0  9  1 21  3  9 23 31 17 28 26
  22219945.939    -8671059.35049  -6741255.39149  22219943.8334   22219950.9384
  20509621.264   -21401169.10649 -15601679.64749  20509620.4854   20509625.5634
  20956607.432   -16863074.32049 -12833785.84949  20956606.9934   20956610.9214
  23885853.200    -5791697.14549  -4494372.90649  23885852.5384   23885858.0944
  20479278.299   -16997565.20549 -13057836.69349  20479277.8614   20479282.1494
  23581450.428     -574107.19049   -413548.76549  23581450.8914   23581454.5284
  20870117.937    -4867570.54249  -3789874.34549  20870117.1694   20870122.1904
  20566385.241   -17792734.750 9 -13850328.670 9  20566384.688    20566389.168
  24192675.356     1435331.82949   1125841.46849  24192674.6204   24192680.5854
 96  9 17 19 20 59.9980000  0  9  1 21  3  9 23 31 17 28 26
  22198780.931    -8782282.53449  -6827922.76149  22198779.8644   22198786.7124
  20501227.701   -21445277.87849 -15636050.11449  20501226.8964   20501232.0414
  20948203.959   -16907235.04749 -12868196.81449  20948203.4514   20948208.1384
  23873775.059    -5855169.40649  -4543831.76549  23873772.7914   23873781.3904
  20483748.347   -16974076.14049 -13039533.52749  20483747.5274   20483751.7234
  23562503.116     -673676.19849   -491134.98649  23562502.5994   23562504.7874
  20878453.558    -4823765.88849  -3755740.85749  20878452.2384   20878457.7704
  20576104.933   -17741658.069 9 -13810528.676 9  20576105.009    20576108.981
  24209679.512     1524689.19549   1195470.55149  24209678.5184   24209683.5204
 96  9 17 19 21 29.9980000  0  9  1 21  3  9 23 31 17 28 26
  22177693.233    -8893098.49349  -6914272.81649  22177692.1334   22177698.6424
  20492910.510   -21488985.20349 -15670107.76549  20492909.8744   20492914.6004
  20939939.110   -16950668.09149 -12902040.75949  20939938.0234   20939943.3594
  23861790.690    -5918148.92449  -4592906.64449  23861790.5064   23861794.8254
  20488291.256   -16950202.60049 -13020930.77349  20488290.5524   20488295.0814
  23543649.790     -772749.09849   -568334.63549  23543648.2914   23543651.3914
  20886881.180    -4779478.87149  -3721231.51549  20886880.1844   20886885.4504
  20585947.982   -17689933.148 9 -13770223.579 9  20585947.525    20585951.820
  24226753.357     1614413.90349   1265385.83949  24226753.9174   24226758.0114
 96  9 17 19 21 59.9980000  0  9  1 21  3  9 23 31 17 28 26
  22156657.480    -9003642.33049  -7000410.85149  22156657.0464   22156662.7564
  20484645.689   -21532417.09849 -15703950.80449  20484644.8654   20484649.6694
  20931784.700   -16993519.56449 -12935431.52049  20931784.2674   20931788.8064
  23849875.095    -5980765.15649  -4641698.49049  23849873.3964   23849881.6134
  20492878.351   -16926097.59049 -13002147.66649  20492877.5564   20492881.9844
  23524860.539     -871488.62049   -645274.51449  23524859.2794   23524862.9064
  20895372.472    -4734857.28049  -3686461.47049  20895371.0564   20895376.6634
  20595886.558   -17637706.173 9 -13729527.268 9  20595885.975    20595890.872
  24243868.545     1704352.42949   1335467.73449  24243867.3604   24243873.6124
 96  9 17 19 22 29.9980000  0  9  1 21  3  9 23 31 17 28 26
  22135678.449    -9113887.93649  -7086316.46849  22135678.5294   22135683.3894
  20476441.837   -21575528.57149 -15737544.15949  20476441.1354   20476446.5424
  20923746.102   -17035762.28849 -12968347.92749  20923745.3034   20923750.7334
  23838033.346    -6042993.60749  -4690188.13749  23838031.8344   23838037.9754
  20497509.071   -16901763.32349 -12983185.90749  20497508.6304   20497512.8034
  23506137.040     -969881.07849   -721943.93449  23506133.9124   23506141.0074
  20903929.789    -4689887.44549  -3651420.06149  20903928.9914   20903934.5744
  20605925.263   -17584952.661 9 -13688420.658 9  20605923.866    20605929.342
  24261024.807     1794509.99249   1405720.32249  24261024.2124   24261030.3664
 96  9 17 19 22 59.9980000  0  9  1 21  3  9 23 31 17 28 26
  22114771.039    -9223758.17149  -7171929.62649  22114769.5944   22114776.1674
  20468312.104   -21618250.49849 -15770833.97749  20468311.0034   20468316.5114
  20915839.333   -17077312.29749 -13000724.56249  20915838.5764   20915843.7084
  23826279.155    -6104762.58849  -4738319.74849  23826278.2014   23826283.9204
  20502199.978   -16877113.29349 -12963978.09649  20502198.8234   20502203.8904
  23487493.312    -1067852.43349   -798285.23849  23487493.5074   23487497.1324
  20912565.916    -4644504.92749  -3616057.08149  20912564.9034   20912569.9914
  20616079.243   -17531592.396 9 -13646841.269 9  20616078.736    20616082.716
  24278236.795     1884960.16549   1476200.95849  24278236.4974   24278243.4224
 96  9 17 19 23 29.9980000  0  9  1 21  3  9 23 31 17 28 26
  22093924.615    -9333305.43549  -7257291.10349  22093923.5254   22093929.3474
  20460247.185   -21660631.68849 -15803858.27049  20460246.2864   20460251.8144
  20908057.252   -17118207.89749 -13032591.27149  20908056.3544   20908061.6454
  23814604.562    -6166113.59249  -4786125.69249  23814603.2934   23814607.9534
  20506942.392   -16852191.86149 -12944558.81849  20506941.5404   20506946.0514
  23468923.260    -1165439.15149   -874326.79749  23468921.4844   23468926.7064
  20921270.231    -4598763.10549  -3580414.12049  20921269.3474   20921274.7274
  20626341.450   -17477664.718 9 -13604819.718 9  20626340.422    20626345.041
  24295495.975     1975657.01149   1546873.74649  24295496.0584   24295500.9344
 96  9 17 19 23 59.9980000  0  9  1 21  3  9 23 31 17 28 26
  22073136.576    -9442545.84549  -7342413.49049  22073135.0774   22073141.3824
  20452248.245   -21702666.06549 -15836612.34049  20452247.4944   20452253.0034
  20900398.473   -17158455.58949 -13063953.11949  20900398.2154   20900402.3664
  23803006.053    -6227063.03549  -4833618.66949  23803004.8634   23803011.7904
  20511737.288   -16826994.25449 -12924924.33849  20511736.1514   20511741.2884
  23450425.560    -1262644.09649   -950070.87349  23450424.4394   23450429.4934
  20930043.328    -4552660.64949  -3544490.15249  20930042.5934   20930047.7804
  20636711.584   -17423169.113 9 -13562355.650 9  20636710.812    20636715.081
  24312800.638     2066595.11649   1617734.56049  24312801.0684   24312807.0694
 96  9 17 19 24 29.9980000  0  9  1 21  3  9 23 31 17 28 26
  22052405.902    -9551485.18549  -7427301.24249  22052405.6874   22052411.5804
  20444313.457   -21744364.05849 -15869104.28349  20444312.4974   20444317.8094
  20892865.205   -17198043.10249 -13094800.54349  20892864.4014   20892870.0074
  23791483.584    -6287615.21949  -4880802.13749  23791481.9504   23791487.5014
  20516589.885   -16801493.68349 -12905053.77449  20516589.1314   20516593.8624
  23432004.012    -1359448.87049  -1025503.13049  23432001.2934   23432009.4924
  20938886.896    -4506187.11149  -3508277.02949  20938885.4814   20938891.5154
  20647190.844   -17368100.071 9 -13519444.732 9  20647190.088    20647194.610
  24330154.252     2157786.40249   1688792.64449  24330154.5254   24330160.4704
 96  9 17 19 24 59.9980000  0  9  1 21  3  9 23 31 17 28 26
  22031730.236    -9660138.19649  -7511965.89649  22031729.9314   22031734.1274
  20436435.706   -21785762.43849 -15901362.76049  20436435.4504   20436439.9814
  20885453.544   -17236991.74849 -13125150.14049  20885452.6924   20885457.8314
  23780032.991    -6347789.03149  -4927690.79249  23780030.6874   23780037.6094
  20521498.641   -16775698.01249 -12884953.26549  20521497.6334   20521502.6814
  23413654.451    -1455874.83349  -1100640.19949  23413653.3054   23413659.9734
  20947799.144    -4459352.07749  -3471782.21749  20947797.9514   20947803.8064
  20657773.527   -17312487.561 9 -13476110.350 9  20657773.361    20657777.911
  24347551.278     2249207.60449   1760029.88149  24347551.0614   24347557.1304
 96  9 17 19 25 29.9980000  0  9  1 21  3  9 23 31 17 28 26
  22011127.348    -9768407.72149  -7596331.70849  22011126.0944   22011132.4734
  20428633.018   -21826766.69849 -15933314.11649  20428631.7634   20428637.3514
  20878180.350   -17275212.48849 -13154932.52949  20878179.0674   20878183.9114
  23768672.577    -6407487.64949  -4974209.12949  23768670.6224   23768678.5924
  20526478.334   -16749529.94749 -12864562.58649  20526477.2164   20526481.8574
  23395397.168    -1551817.82549  -1175400.94849  23395398.1934   23395402.2294
  20956799.528    -4412055.15249  -3434927.49449  20956798.4704   20956804.2274
  20668475.254   -17256249.960 9 -13432288.878 9  20668474.363    20668479.672
  24365006.483     2340936.66049   1831507.00049  24365006.3274   24365010.9204
 96  9 17 19 25 59.9980000  0  9  1 21  3  9 23 31 17 28 26
  21990547.657    -9876552.88849  -7680600.61749  21990547.4114   21990552.7834
  20420855.266   -21867638.83049 -15965162.53649  20420854.1874   20420859.4734
  20870995.617   -17312968.16549 -13184352.54649  20870995.1414   20870999.4594
  23757354.338    -6466965.08149  -5020555.11949  23757352.4974   23757359.0364
  20531479.602   -16723247.35249 -12844082.65449  20531478.5334   20531483.6194
  23377182.487    -1647538.81249  -1249988.68649  23377182.9234   23377188.1814
  20965838.135    -4364557.27549  -3397916.19149  20965837.1534   20965842.7564
  20679244.891   -17199655.073 9 -13388188.983 9  20679244.197    20679248.896
  24382469.101     2432702.10149   1903012.46549  24382468.7584   24382475.4574
 96  9 17 19 26 29.9980000  0  9  1 21  3  9 23 31 17 28 26
  21970001.593    -9984524.13249  -7764734.03849  21970000.2654   21970007.1134
  20413109.685   -21908341.92249 -15996879.24349  20413108.7494   20413113.6344
  20863907.781   -17350215.01449 -13213376.06349  20863906.5784   20863911.6644
  23746088.155    -6526170.23049  -5066688.96349  23746086.5364   23746093.4984
  20536505.480   -16696836.03749 -12823502.42349  20536504.7344   20536509.1894
  23359018.660    -1742990.60649  -1324366.72549  23359017.2094   23359023.6354
  20974920.865    -4316827.44549  -3360724.14049  20974920.1754   20974925.6144
  20690087.612   -17142676.133 9 -13343789.842 9  20690086.911    20690091.630
  24399944.311     2524534.02749   1974569.74249  24399944.6204   24399949.6734
 96  9 17 19 26 59.9980000  0  8  1 21  3  9 23 31 17 28
  21949495.325   -10092285.31449  -7848703.75449  21949493.9524   21949498.7914
  20405403.718   -21948837.07149 -16028433.89349  20405403.0934   20405408.1254
  20856921.958   -17386925.53449 -13241981.66549  20856921.2644   20856926.2004
  23734878.184    -6585077.33649  -5112590.57149  23734876.9974   23734883.0204
  20541557.119   -16670289.96749 -12802817.18449  20541556.3864   20541561.0824
  23340910.442    -1838148.17349  -1398515.44049  23340909.1754   23340914.5414
  20984052.184    -4268842.13449  -3323333.02049  20984050.9244   20984056.2634
  20701007.334   -17085292.468 9 -13299075.326 9  20701006.581    20701011.460
 96  9 17 19 27 29.9980000  0  8  1 21  3  9 23 31 17 28
  21929000.937   -10199983.43249  -7932624.34449  21928999.8694   21929006.0494
  20397712.696   -21989253.51549 -16059927.22449  20397711.9184   20397716.8824
  20850012.042   -17423236.95149 -13270276.28349  20850012.3074   20850016.6724
  23723699.428    -6643820.51249  -5158364.40649  23723698.4854   23723704.3704
  20546607.732   -16643749.16749 -12782136.05749  20546606.2404   20546611.5304
  23322835.039    -1933135.66449  -1472531.62149  23322835.3474   23322839.1824
  20993204.862    -4220744.39049  -3285854.27749  20993203.7374   20993209.4834
  20711979.152   -17027635.190 9 -13254147.621 9  20711979.015    20711983.061
 96  9 17 19 27 59.9980000  0  8  1 21  3  9 23 31 17 28
  21908556.758   -10307417.72349  -8016339.36249  21908555.0134   21908561.1454
  20390074.531   -22029392.42149 -16091204.30049  20390073.4464   20390078.7844
  20843216.453   -17458948.33449 -13298103.33849  20843215.7124   20843220.7284
  23712589.083    -6702205.01949  -5203858.81849  23712587.9974   23712594.6924
  20551696.698   -16617005.99149 -12761297.24349  20551696.0574   20551700.3924
  23304825.736    -2027776.00849  -1546277.37949  23304824.6864   23304830.8354
  21002415.314    -4172342.97549  -3248138.91249  21002414.7114   21002420.1464
  20723040.979   -16969506.041 9 -13208852.209 9  20723040.578    20723044.526
 96  9 17 19 28 29.9980000  0  8  1 21  3  9 23 31 17 28
  21888144.471   -10414684.74249  -8099924.02049  21888142.6544   21888150.2724
  20382468.745   -22069361.84949 -16122349.30649  20382467.5914   20382472.8854
  20836513.806   -17494170.73149 -13325549.37449  20836513.4324   20836518.6544
  23701525.425    -6760344.84649  -5249162.55349  23701524.0964   23701530.4844
  20556804.739   -16590162.66349 -12740380.37149  20556803.7414   20556808.7094
  23286861.381    -2122178.69749  -1619837.90949  23286860.3724   23286865.9614
  21011663.070    -4123745.61749  -3210270.86949  21011662.3494   21011667.6384
  20734171.567   -16911015.087 9 -13163274.878 9  20734170.852    20734175.414
 96  9 17 19 28 59.9980000  0  8  1 21  3  9 23 31 17 28
  21867756.216   -10521825.35949  -8183410.15649  21867755.4784   21867761.8444
  20374885.778   -22109210.53549 -16153400.22749  20374884.9714   20374889.7344
  20829892.400   -17528966.27349 -13352662.79049  20829891.9764   20829896.8334
  23690500.520    -6818281.39849  -5294307.90249  23690499.3794   23690506.1874
  20561926.669   -16563246.87749 -12719407.05049  20561925.6054   20561930.3074
  23268933.049    -2216392.56149  -1693251.28949  23268932.4834   23268936.9514
  21020937.343    -4075009.19349  -3172294.46749  21020936.3094   21020941.7564
  20745363.169   -16852203.071 9 -13117447.363 9  20745362.464    20745366.927
 96  9 17 19 29 29.9980000  0  8  1 21  3  9 23 31 17 28
  21847426.825   -10628657.34349  -8266655.83249  21847425.9224   21847431.7974
  20367357.164   -22148773.56749 -16184228.57549  20367356.4334   20367361.0794
  20823383.971   -17563168.44649 -13379313.84349  20823383.4524   20823388.0294
  23679549.409    -6875830.21449  -5339151.11149  23679548.1404   23679555.5444
  20567098.573   -16536068.24449 -12698228.90649  20567097.6254   20567102.7214
  23251076.588    -2310229.24449  -1766370.74549  23251075.3164   23251080.9854
  21030269.291    -4025968.87149  -3134081.24649  21030268.1284   21030274.0904
  20756649.400   -16792893.339 9 -13071232.016 9  20756648.781    20756653.784
 96  9 17 19 29 59.9980000  0  8  1 21  3  9 23 31 17 28
  21827171.063   -10735101.64049  -8349599.40649  21827170.1754   21827176.0074
  20359895.807   -22187983.28949 -16214781.59649  20359894.8384   20359899.9434
  20817000.274   -17596715.00949 -13405454.02049  20816999.8514   20817004.1774
  23668683.574    -6932930.44849  -5383644.76249  23668682.5224   23668689.3044
  20572330.573   -16508573.68349 -12676804.59049  20572329.3934   20572334.2884
  23233304.114    -2403624.17749  -1839145.98849  23233303.0494   23233308.0424
  21039671.608    -3976559.59549  -3095580.53649  21039670.9094   21039676.3694
  20768040.994   -16733030.747 9 -13024585.879 9  20768040.145    20768045.120
 96  9 17 19 30 29.9980000  0  8  1 21  3  9 23 31 17 28
  21806989.704   -10841155.51349  -8432238.73949  21806989.0164   21806993.0564
  20352502.522   -22226834.41649 -16245055.20449  20352501.4164   20352506.6344
  20810742.600   -17629598.75049 -13431077.72149  20810742.2534   20810746.3504
  23657907.150    -6989560.61649  -5427772.11149  23657906.5424   23657912.7914
  20577621.290   -16480770.59449 -12655139.85749  20577620.7004   20577625.3104
  23215622.355    -2496542.18949  -1911549.63049  23215621.5904   23215626.2324
  21049146.272    -3926770.52949  -3056783.88549  21049145.1904   21049151.1284
  20779539.008   -16672608.396 9 -12977503.560 9  20779538.625    20779543.021
 96  9 17 19 30 59.9980000  0  8  1 21  3  9 23 31 17 28
  21786886.249   -10946799.97149  -8514559.06849  21786885.3834   21786890.6034
  20345181.022   -22265309.01849 -16275035.41749  20345180.2454   20345185.0154
  20804616.590   -17661791.88449 -13456163.29449  20804616.0244   20804620.1814
  23647225.688    -7045691.83249  -5471510.66549  23647223.7084   23647231.6074
  20582971.033   -16452657.01649 -12633233.18249  20582970.5564   20582974.9104
  23198035.681    -2588960.89149  -1983564.19949  23198036.0044   23198038.2304
  21058699.082    -3876569.84349  -3017666.50149  21058698.4364   21058703.9884
  20791146.875   -16611608.657 9 -12929971.323 9  20791146.409    20791151.126
 96  9 17 19 31 29.9980000  0  8  1 21  3  9 23 31 17 28
  21766854.616   -11052066.99149  -8596585.29149  21766854.1804   21766859.5554
  20337926.581   -22303431.10449 -16304740.93649  20337925.7474   20337930.9374
  20798619.464   -17693306.91149 -13480720.46549  20798618.8864   20798623.6894
  23636635.313    -7101343.69649  -5514875.65649  23636634.5284   23636641.1124
  20588374.624   -16424262.29349 -12611107.43949  20588373.7154   20588378.1804
  23180536.376    -2680920.36549  -2055220.93749  23180536.0994   23180539.2054
  21068331.246    -3825953.29149  -2978225.06249  21068330.2284   21068335.9324
  20802858.296   -16550064.828 9 -12882015.124 9  20802857.411    20802862.105
 96  9 17 19 31 59.9980000  0  8  1 21  3  9 23 31 17 28
  21746900.862   -11156924.59349  -8678292.47149  21746901.0444   21746906.5414
  20330745.751   -22341167.10249 -16334145.59949  20330745.2684   20330749.9454
  20792759.175   -17724102.88649 -13504717.33349  20792758.5434   20792763.4724
  23626143.246    -7156480.07649  -5557838.98949  23626141.2834   23626149.0494
  20593834.360   -16395571.32249 -12588750.84149  20593833.6264   20593838.3464
  23163127.910    -2772403.31649  -2126506.29749  23163127.9004   23163131.9974
  21078052.575    -3774866.61549  -2938417.29649  21078051.5994   21078056.9784
  20814677.771   -16487953.281 9 -12833616.542 9  20814677.898    20814681.779
 96  9 17 19 32 29.9980000  0  8  1 21  3  9 23 31 17 28
  21727037.275   -11261308.38649  -8759630.47349  21727034.9374   21727041.4824
  20323648.566   -22378463.31249 -16363207.58049  20323647.6224   20323652.5804
  20787048.378   -17754113.43549 -13528102.18549  20787047.8264   20787052.5534
  23615763.440    -7211026.06149  -5600342.28649  23615762.3784   23615767.9854
  20599366.189   -16366502.45549 -12566099.79249  20599365.1864   20599369.6484
  23145822.072    -2863346.87649  -2197371.40749  23145821.6314   23145825.3364
  21087877.703    -3723235.72549  -2898185.45649  21087876.6074   21087882.7824
  20826618.076   -16425207.310 9 -12784723.620 9  20826617.493    20826621.547
 96  9 17 19 32 59.9980000  0  8  1 21  3  9 23 31 17 28
  21707269.487   -11365187.13649  -8840574.91349  21707269.0204   21707274.1504
  20316641.080   -22415287.85149 -16391902.03649  20316640.3034   20316645.0074
  20781493.199   -17783306.27549 -13550849.86549  20781492.2224   20781497.5544
  23605500.139    -7264959.98049  -5642368.60649  23605498.1144   23605505.2344
  20604979.077   -16337006.05349 -12543115.59149  20604978.1104   20604982.6384
  23128623.292    -2953726.67049  -2267797.22149  23128622.6584   23128625.7904
  21097811.708    -3671032.86349  -2857507.94449  21097810.3204   21097816.3284
  20838684.008   -16361800.886 9 -12735316.053 9  20838683.240    20838687.808
 96  9 17 19 33 29.9980000  0  8  1 21  3  9 23 31 17 28
  21687580.172   -11468655.73049  -8921199.77349  21687579.3714   21687585.9774
  20309707.686   -22451723.18049 -16420293.20149  20309706.5834   20309711.9634
  20776075.513   -17811776.29449 -13573034.30449  20776075.0634   20776079.8084
  23595332.943    -7318388.24149  -5684000.95749  23595332.4214   23595338.3634
  20610656.158   -16307172.88249 -12519868.97949  20610655.1604   20610659.9314
  23111516.073    -3043626.00549  -2337848.65049  23111515.9004   23111519.4754
  21107832.110    -3618376.08749  -2816476.71749  21107831.2134   21107837.1854
  20850856.186   -16297835.071 9 -12685472.588 9  20850855.353    20850860.226
 96  9 17 19 33 59.9980000  0  8  1 21  3  9 23 31 17 28
  21667959.321   -11571765.05849  -9001544.66349  21667957.9254   21667964.4584
  20302837.480   -22487826.21649 -16448425.43749  20302836.6594   20302841.5394
  20770784.776   -17839579.70349 -13594699.30649  20770784.8354   20770788.5084
  23585250.008    -7371374.35549  -5725288.76349  23585249.3224   23585255.7524
  20616383.252   -16277077.14849 -12496417.76349  20616382.3954   20616386.6204
  23094495.231    -3133071.35449  -2407546.29549  23094495.1844   23094497.1684
  21117922.023    -3565352.61549  -2775159.75949  21117920.9984   21117926.4874
  20863124.585   -16233364.163 9 -12635235.556 9  20863123.760    20863128.849
 96  9 17 19 34 29.9980000  0  8  1 21  3  9 23 31 17 28
  21648373.472   -11674689.57549  -9081745.56949  21648372.8134   21648378.0444
  20295998.515   -22523764.89049 -16476429.60049  20295997.6434   20296002.6194
  20765588.681   -17866886.49249 -13615977.34249  20765588.4424   20765592.8734
  23575217.975    -7424091.67349  -5766367.12249  23575217.4874   23575223.9364
  20622129.990   -16246877.73849 -12472885.76749  20622129.1774   20622133.7774
  23077530.840    -3222219.57049  -2477012.39149  23077529.3294   23077534.7164
  21128043.918    -3512161.73749  -2733712.36249  21128043.1004   21128049.1394
  20875456.954   -16168557.610 9 -12584736.988 9  20875456.322    20875460.763
 96  9 17 19 34 59.9980000  0  8  1 21  3  9 23 31 17 28
  21628804.311   -11777526.30449  -9161878.04749  21628803.4114   21628809.0974
  20289172.559   -22559635.25549 -16504380.52149  20289171.8194   20289176.9944
  20760467.964   -17893796.58049 -13636946.25549  20760467.2084   20760471.6224
  23565216.707    -7476650.12949  -5807321.68049  23565215.4214   23565221.6364
  20627872.855   -16216699.28649 -12449370.09949  20627872.1214   20627876.4874
  23060602.782    -3311175.59949  -2546328.77049  23060601.7584   23060605.1914
  21138173.763    -3458928.73149  -2692232.12949  21138173.1174   21138178.9764
  20887831.550   -16103528.684 9 -12534065.134 9  20887831.245    20887835.821
 96  9 17 19 35 29.9980000  0  8  1 21  3  9 23 31 17 28
  21609278.269   -11880136.41349  -9241833.94049  21609278.1084   21609281.3564
  20282382.566   -22595317.46449 -16532184.84249  20282381.5494   20282386.5834
  20755445.529   -17920189.17349 -13657511.92549  20755444.8154   20755449.4214
  23555271.601    -7528911.00449  -5848044.37649  23555270.2564   23555276.5544
  20633630.015   -16186446.14849 -12425796.23549  20633628.8264   20633633.5984
  23043733.360    -3399823.93449  -2615405.38449  23043731.7764   23043737.4344
  21148335.463    -3405530.11049  -2650622.85449  21148334.8224   21148340.0274
  20900271.528   -16038156.669 9 -12483125.934 9  20900270.864    20900275.104
 96  9 17 19 35 59.9980000  0  8  1 21  3  9 23 31 17 28
  21589815.728   -11982413.13949  -9321530.06949  21589815.5824   21589819.7484
  20275645.938   -22630718.70749 -16559770.22449  20275645.0334   20275650.2914
  20750542.357   -17945955.40549 -13677589.50649  20750541.5294   20750546.4504
  23545405.473    -7580756.96949  -5888443.76049  23545403.8764   23545411.3084
  20639420.855   -16156014.73049 -12402083.45949  20639419.5274   20639424.1514
  23026942.538    -3488060.74949  -2684161.33349  23026941.4804   23026946.2064
  21158553.179    -3351835.05749  -2608782.58049  21158551.9294   21158557.5824
  20912797.465   -15972332.164 9 -12431834.150 9  20912797.122    20912801.396
 96  9 17 19 36 29.9980000  0  8  1 21  3  9 23 31 17 28
  21570383.666   -12084528.63549  -9401100.54549  21570381.4764   21570388.3754
  20268927.932   -22666021.42149 -16587278.83449  20268927.0144   20268932.0554
  20745726.611   -17971261.78549 -13697308.77549  20745726.0534   20745730.6954
  23535586.203    -7632357.80349  -5928652.15549  23535586.7824   23535592.3044
  20645215.160   -16125565.01449 -12378356.42149  20645214.3364   20645218.8124
  23010192.565    -3576082.86549  -2752749.93549  23010189.5874   23010195.6634
  21168797.714    -3297999.55249  -2566832.87149  21168796.7374   21168802.8804
  20925375.418   -15906235.441 9 -12380330.260 9  20925374.705    20925379.741
 96  9 17 19 36 59.9980000  0  8  1 21  3  9 23 31 17 28
  21551002.022   -12186379.41149  -9480464.77749  21551001.6024   21551006.1864
  20262246.969   -22701129.86149 -16614636.05849  20262246.4394   20262251.3714
  20741018.529   -17996003.21649 -13716587.81949  20741018.4724   20741022.0064
  23525834.661    -7683603.21349  -5968583.58449  23525833.4544   23525839.6194
  20651028.948   -16095013.42249 -12354550.00049  20651027.6714   20651032.6294
  22993501.203    -3663795.80649  -2821097.74549  22993499.9614   22993504.4514
  21179092.853    -3243898.97649  -2524676.61549  21179091.7304   21179097.1054
  20938023.580   -15839768.951 9 -12328538.235 9  20938023.368    20938027.414
 96  9 17 19 37 29.9980000  0  8  1 21  3  9 23 31 17 28
  21531696.177   -12287832.62349  -9559519.19449  21531695.2984   21531700.8104
  20255629.578   -22735904.66149 -16641733.31049  20255629.0604   20255634.0124
  20736444.347   -18020041.11249 -13735318.66449  20736443.6094   20736448.0494
  23516178.151    -7734348.85449  -6008125.59249  23516177.6794   23516182.8224
  20656890.249   -16064211.88549 -12330548.81849  20656889.3334   20656894.1074
  22976896.771    -3751053.00249  -2889090.31049  22976896.1064   22976901.7634
  21189467.983    -3189377.09749  -2482192.07049  21189466.9474   21189472.1524
  20950769.277   -15772789.737 9 -12276346.679 9  20950768.325    20950772.865
 96  9 17 19 37 59.9980000  0  8  1 21  3  9 23 31 17 28
  21512460.121   -12388917.30549  -9638286.44349  21512459.2044   21512464.9304
  20249072.730   -22770361.76649 -16668583.00249  20249072.0294   20249076.6564
  20732000.224   -18043394.96449 -13753516.47549  20731999.5754   20732004.4164
  23506610.078    -7784627.42449  -6047303.61949  23506608.9034   23506615.7914
  20662800.911   -16033151.34849 -12306345.81849  20662799.8314   20662804.6094
  22960378.861    -3837855.99349  -2956728.98349  22960377.6314   22960382.1764
  21199920.714    -3134446.61549  -2439389.12649  21199919.9014   21199926.3664
  20963608.917   -15705315.995 9 -12223769.769 9  20963608.106    20963613.324
 96  9 17 19 38 29.9980000  0  8  1 21  3  9 23 31 17 28
  21493306.346   -12489571.32749  -9716718.11849  21493305.4344   21493311.0044
  20242588.544   -22804436.50849 -16695134.75049  20242587.9984   20242592.5984
  20727696.845   -18066009.03349 -13771137.83249  20727696.1754   20727701.0034
  23497144.265    -7834368.63049  -6086062.99649  23497143.9164   23497149.5644
  20668775.552   -16001754.22349 -12281880.53849  20668774.4854   20668779.0764
  22943960.497    -3924134.86349  -3023959.27749  22943959.8574   22943965.4654
  21210461.185    -3079056.51449  -2396228.04449  21210460.6044   21210466.1694
  20976554.159   -15637288.452 9 -12170761.347 9  20976552.845    20976558.813
 96  9 17 19 38 59.9980000  0  8  1 21  3  9 23 31 17 28
  21474253.759   -12589693.31249  -9794735.24849  21474252.8144   21474258.4524
  20236197.273   -22838023.34349 -16721306.31749  20236196.0034   20236201.3884
  20723549.208   -18087804.99049 -13788121.70649  20723548.5164   20723553.3034
  23487800.076    -7883472.48049  -6124325.70649  23487798.0964   23487806.0494
  20674832.603   -15969923.92249 -12257077.72249  20674831.7924   20674836.4014
  22927666.202    -4009762.21149  -3090681.86249  22927665.8374   22927669.0264
  21221104.861    -3023124.37449  -2352644.59049  21221103.7464   21221110.0794
  20989622.928   -15568611.562 9 -12117246.927 9  20989622.567    20989627.529
 96  9 17 19 39 29.9980000  0  8  1 21  3  9 23 31 17 28
  21455261.264   -12689499.55649  -9872506.33049  21455261.3524   21455265.5904
  20229856.112   -22871345.81049 -16747271.88049  20229855.3034   20229860.2774
  20719512.918   -18109015.59249 -13804649.45749  20719512.6504   20719516.9464
  23478533.053    -7932172.00949  -6162273.34049  23478531.9614   23478537.7324
  20680933.466   -15937864.07149 -12232096.04749  20680932.2094   20680937.0104
  22911456.131    -4094947.59249  -3157060.02349  22911454.9804   22911459.2284
  21231806.949    -2966884.19149  -2308821.10449  21231806.3664   21231812.0574
  21002772.105   -15499512.974 9 -12063403.903 9  21002771.554    21002776.157
 96  9 17 19 39 59.9980000  0  8  1 21  3  9 23 31 17 28
  21436339.828   -12788932.90749  -9949986.86449  21436338.1824   21436343.8524
  20223573.803   -22904359.83949 -16772997.11249  20223573.0024   20223578.1324
  20715598.101   -18129588.59549 -13820680.37449  20715597.8704   20715602.3984
  23469355.190    -7980402.47849  -6199855.44949  23469353.3954   23469360.1244
  20687088.448   -15905519.05749 -12206892.15549  20687087.6374   20687092.6024
  22895340.787    -4179634.03949  -3223049.47149  22895339.6064   22895345.5384
  21242575.809    -2910293.39249  -2264724.41449  21242575.1514   21242580.4974
  21016010.443   -15429945.325 9 -12009195.393 9  21016009.939    21016014.671
 96  9 17 19 40 29.9980000  0  8  1 21  3  9 23 31 17 28
  21417484.976   -12888015.15849 -10027193.76949  21417484.5344   21417489.8834
  20217341.866   -22937109.12749 -16798516.03649  20217340.9164   20217345.8944
  20711797.932   -18149559.27849 -13836241.95549  20711797.4314   20711801.9024
  23460261.258    -8028190.95349  -6237093.14149  23460260.4804   23460267.3274
  20693286.407   -15872948.70149 -12181512.66949  20693285.4574   20693290.1424
  22879311.504    -4263868.90949  -3288687.02449  22879311.4124   22879315.2484
  21253401.493    -2853404.71649  -2220395.61749  21253400.5974   21253405.9724
  21029329.494   -15359953.561 9 -11954656.390 9  21029328.099    21029333.490
 96  9 17 19 40 59.9980000  0  8  1 21  3  9 23 31 17 28
  21398691.943   -12986774.38349 -10104148.98049  21398690.7254   21398696.0474
  20211152.082   -22969637.06449 -16823862.49449  20211151.5514   20211155.8684
  20708103.495   -18168973.98349 -13851370.30349  20708102.8194   20708107.5584
  23451241.014    -8075592.81449  -6274029.63449  23451239.7554   23451247.2144
  20699514.847   -15840218.10149 -12156008.32649  20699513.7654   20699518.5814
  22863356.890    -4347711.11249  -3354018.61549  22863355.5584   22863360.3594
  21264274.777    -2796265.14449  -2175871.31949  21264273.6504   21264279.2064
  21042719.340   -15289589.168 9 -11899827.031 9  21042718.749    21042723.189
 96  9 17 19 41 29.9980000  0  8  1 21  3  9 23 31 17 28
  21379967.782   -13085170.14849 -10180820.99249  21379966.7674   21379972.0074
  20205012.263   -23001902.19449 -16849004.15849  20205011.2624   20205016.0654
  20704523.498   -18187786.47049 -13866029.39249  20704522.4274   20704527.9404
  23442302.056    -8122566.59749  -6310632.56849  23442301.9224   23442308.1214
  20705778.836   -15807300.30549 -12130358.10949  20705777.7484   20705782.1934
  22847481.020    -4431139.49049  -3419027.72849  22847480.1394   22847485.5284
  21275204.880    -2738826.80649  -2131114.20649  21275204.2334   21275209.2504
  21056187.520   -15218814.068 9 -11844677.639 9  21056187.285    21056191.941
 96  9 17 19 41 59.9980000  0  8  1 21  3  9 23 31 17 28
  21361296.815   -13183286.59549 -10257275.37149  21361295.8134   21361301.6874
  20198906.391   -23033988.35049 -16874006.35649  20198905.5994   20198910.2224
  20701042.440   -18206079.29549 -13880283.53649  20701041.9574   20701046.5164
  23433428.211    -8169198.87749  -6346969.36549  23433427.2564   23433433.3034
  20712057.762   -15774303.79149 -12104646.55749  20712056.8714   20712061.4994
  22831666.009    -4514246.53549  -3483786.47949  22831666.2064   22831671.2434
  21286174.049    -2681183.86749  -2086197.66749  21286173.0694   21286178.6494
  21069717.226   -15147715.820 9 -11789276.448 9  21069716.169    21069720.663
 96  9 17 19 42 29.9980000  0  8  1 21  3  9 23 31 17 28
  21342694.450   -13281042.80749 -10333449.02949  21342692.9414   21342699.2954
  20192851.546   -23065807.00549 -16898800.12649  20192850.6004   20192855.1694
  20697674.859   -18223775.67449 -13894072.95149  20697674.4784   20697679.3374
  23424632.129    -8215423.60449  -6382988.65149  23424630.7764   23424636.0144
  20718362.695   -15741170.95449 -12078828.77249  20718361.8374   20718366.4114
  22815927.301    -4596954.37849  -3548234.11049  22815926.7134   22815930.8604
  21297197.750    -2623254.35449  -2041057.83549  21297196.7674   21297202.3094
  21083322.119   -15076221.547 9 -11733566.666 9  21083321.380    21083325.809
 96  9 17 19 42 59.9980000  0  8  1 21  3  9 23 31 17 28
  21324157.443   -13378455.23849 -10409354.79649  21324156.9534   21324161.7364
  20186849.704   -23097347.15149 -16923376.87049  20186848.8754   20186853.2984
  20694421.299   -18240873.82649 -13907396.20549  20694420.9214   20694425.3724
  23415914.284    -8261235.54049  -6418686.24249  23415912.8414   23415918.4794
  20724694.218   -15707899.53449 -12052903.01649  20724693.1834   20724698.0394
  22800266.633    -4679252.17849  -3612362.28149  22800265.4954   22800271.2514
  21308276.235    -2565036.78249  -1995693.52949  21308275.2684   21308280.9204
  21097001.997   -15004333.464 9 -11677550.026 9  21097001.780    21097006.077
 96  9 17 19 43 29.9980000  0  8  1 21  3  9 23 31 17 28
  21305676.752   -13475572.42249 -10485030.51949  21305676.3374   21305681.2304
  20180894.553   -23128641.76949 -16947762.29549  20180893.7384   20180898.4834
  20691276.613   -18257399.21549 -13920273.14049  20691276.1584   20691280.2794
  23407272.565    -8306647.46449  -6454072.11649  23407271.3834   23407277.1754
  20731047.128   -15674514.26449 -12026888.52949  20731046.2354   20731050.8604
  22784681.160    -4761153.64349  -3676181.56749  22784679.4354   22784685.1144
  21319402.695    -2506566.48649  -1950132.28949  21319401.9154   21319407.1944
  21110750.512   -14932085.024 9 -11621252.578 9  21110750.292    21110754.211
 96  9 17 19 43 59.9980000  0  8  1 21  3  9 23 31 17 28
  21287268.702   -13572307.39949 -10560408.40249  21287267.7314   21287272.8444
  20174999.983   -23159618.09549 -16971899.69849  20174999.4594   20175003.8654
  20688257.720   -18273263.53449 -13932634.95749  20688256.8584   20688261.6404
  23398724.159    -8351570.49949  -6489077.05949  23398722.3524   23398727.1464
  20737438.958   -15640925.11349 -12000715.18349  20737437.8414   20737442.7054
  22769186.883    -4842576.41449  -3739627.90249  22769185.8614   22769191.3114
  21330594.305    -2447754.90649  -1904305.11749  21330593.4374   21330599.0224
  21124582.574   -14859396.960 9 -11564612.571 9  21124581.906    21124586.199
 96  9 17 19 44 29.9980000  0  8  1 21  3  9 23 31 17 28
  21268893.227   -13668870.58649 -10635652.42749  21268892.2524   21268897.7524
  20169126.913   -23190481.45349 -16995949.07949  20169126.2844   20169130.7134
  20685324.797   -18288675.90949 -13944644.61349  20685324.4384   20685328.9494
  23390232.063    -8396196.18849  -6523850.33249  23390230.5204   23390237.4464
  20743833.908   -15607319.68749 -11974529.15449  20743833.3434   20743837.6324
  22753745.149    -4923722.05949  -3802858.20049  22753745.9194   22753749.5994
  21341813.048    -2388799.56249  -1858365.92449  21341811.8814   21341817.4814
  21138458.439   -14786478.264 9 -11507792.854 9  21138457.980    21138462.993
 96  9 17 19 44 59.9980000  0  8  1 21  3  9 23 31 17 28
  21250561.996   -13765201.75549 -10710715.66249  21250560.7234   21250566.6594
  20163283.480   -23221188.65849 -17019876.77549  20163282.5804   20163287.6934
  20682488.427   -18303580.79049 -13956258.81049  20682487.8324   20682493.1054
  23381809.901    -8440453.46449  -6558336.51549  23381808.4814   23381814.4904
  20750247.892   -15573614.93649 -11948265.71849  20750247.1334   20750251.5094
  22738366.995    -5004535.58549  -3865829.81149  22738364.7984   22738369.8254
  21353070.071    -2329642.94649  -1812269.90649  21353069.6574   21353074.8924
  21152389.087   -14713272.138 9 -11450749.157 9  21152388.376    21152393.303
 96  9 17 19 45 29.9980000  0  8  1 21  3  9 23 31 17 28
  21232308.200   -13861125.99149 -10785461.80449  21232307.6494   21232313.1184
  20157498.261   -23251589.57749 -17043565.80649  20157497.5154   20157502.0764
  20679779.284   -18317817.94249 -13967352.72249  20679778.6074   20679783.5914
  23373486.116    -8484195.92949  -6592421.54249  23373485.5234   23373492.1494
  20756711.295   -15539649.80749 -11921799.40149  20756709.8494   20756714.9614
  22723080.248    -5084867.12649  -3928425.78549  22723078.8604   22723083.9404
  21364398.523    -2270111.70449  -1765881.98449  21364397.5854   21364403.9194
  21166404.038   -14639623.708 9 -11393360.809 9  21166403.284    21166408.122
 96  9 17 19 45 59.9980000  0  8  1 21  3  9 23 31 17 28
  21214133.883   -13956632.85549 -10859882.72149  21214132.4624   21214138.1474
  20151772.187   -23281680.70649 -17067013.45549  20151771.1494   20151776.0534
  20677196.384   -18331390.93049 -13977929.09149  20677196.1654   20677201.0284
  23365256.796    -8527442.23649  -6626119.96449  23365255.8004   23365260.8164
  20763224.374   -15505423.22349 -11895129.35649  20763223.5294   20763227.9074
  22707885.718    -5164715.04749  -3990644.96449  22707883.6394   22707890.3824
  21375800.776    -2210193.69549  -1719192.66449  21375799.5324   21375805.5574
  21180503.006   -14565532.167 9 -11335627.184 9  21180502.343    21180507.458
 96  9 17 19 46 29.9980000  0  8  1 21  3  9 23 31 17 28
  21196041.054   -14051710.28549 -10933969.01049  21196039.6574   21196045.2424
  20146107.327   -23311449.54049 -17090209.94449  20146106.7214   20146111.2914
  20674743.511   -18344281.23349 -13987973.49949  20674742.6344   20674747.8874
  23357124.613    -8570177.55449  -6659420.17449  23357122.8804   23357130.3334
  20769791.181   -15470914.56849 -11868239.50349  20769790.2434   20769794.6044
  22692790.476    -5244041.31649  -4052457.63149  22692788.9094   22692794.6814
  21387277.868    -2149880.60149  -1672195.49549  21387276.7564   21387283.1524
  21194688.978   -14490984.391 9 -11277538.027 9  21194688.702    21194693.755
 96  9 17 19 46 59.9980000  0  8  1 21  3  9 23 31 17 28
  21178019.162   -14146415.46049 -11007765.23149  21178018.4134   21178023.7914
  20140491.008   -23340963.86949 -17113208.12649  20140489.9894   20140495.0264
  20672410.131   -18356543.37749 -13997528.42749  20672408.9894   20672414.8124
  23349076.485    -8612470.91149  -6692376.01449  23349076.2714   23349082.4054
  20776397.680   -15436197.90649 -11841187.56349  20776396.5304   20776401.0294
  22677782.894    -5322906.21149  -4113910.77849  22677781.8684   22677786.8504
  21398818.742    -2089233.11049  -1624937.73249  21398817.6574   21398824.2604
  21208949.261   -14416046.441 9 -11219144.876 9  21208949.050    21208954.329
 96  9 17 19 47 29.9980000  0  8  1 21  3  9 23 31 17 28
  21160066.835   -14240755.40749 -11081276.84249  21160065.3724   21160071.5894
  20134924.975   -23370213.41649 -17135999.98449  20134923.8924   20134929.1074
  20670197.484   -18368170.85549 -14006588.82649  20670196.7914   20670202.1034
  23341111.699    -8654324.83949  -6724989.44049  23341110.3664   23341117.4564
  20783039.785   -15401292.83749 -11813988.81749  20783038.9124   20783043.3314
  22662865.328    -5401298.46449  -4174995.62249  22662863.9564   22662869.4584
  21410423.549    -2028249.11649  -1577417.77349  21410423.2224   21410428.9974
  21223283.771   -14340719.418 9 -11160448.529 9  21223283.596    21223287.231
 96  9 17 19 47 59.9980000  0  8  1 21  3  9 23 31 17 28
  21142171.594   -14334795.96949 -11154555.20249  21142170.4304   21142176.0344
  20129397.297   -23399261.39149 -17158634.78249  20129396.3494   20129401.4524
  20668093.070   -18379229.47349 -14015205.94449  20668092.2174   20668097.9114
  23333223.804    -8695774.60249  -6757287.92249  23333221.9874   23333229.2124
  20789707.232   -15366254.69549 -11786686.38949  20789705.9064   20789710.9024
  22648029.964    -5479258.57849  -4235743.74749  22648028.1264   22648034.5664
  21422078.185    -1967004.67749  -1529694.87349  21422077.3244   21422083.0794
  21237681.277   -14265060.930 9 -11101493.914 9  21237680.800    21237684.529
 96  9 17 19 48 29.9980000  0  8  1 21  3  9 23 31 17 28
  21124345.770   -14428471.43549 -11227549.05149  21124344.2914   21124350.1064
  20123918.298   -23428053.16549 -17181069.92749  20123917.1624   20123922.3724
  20666109.996   -18389650.37249 -14023326.13449  20666109.0904   20666114.1694
  23325428.778    -8736738.11549  -6789207.49349  23325426.9034   23325434.1954
  20796409.683   -15331032.41949 -11759240.47549  20796408.2164   20796413.6404
  22633284.196    -5556746.36549  -4296123.80449  22633282.4154   22633288.9114
  21433790.255    -1905458.26349  -1481736.66749  21433789.3164   21433795.2254
  21252151.798   -14189017.817 9 -11042239.589 9  21252151.332    21252155.848
 96  9 17 19 48 59.9980000  0  8  1 21  3  9 23 31 17 28
  21106601.629   -14521716.97749 -11300207.89549  21106601.1044   21106606.1434
  20118501.363   -23456518.90649 -17203251.03649  20118500.4224   20118505.6674
  20664258.080   -18399382.31549 -14030909.48049  20664258.1424   20664262.5994
  23317736.840    -8777160.04849  -6820705.07349  23317735.9074   23317741.2004
  20803153.804   -15295591.45549 -11731624.15849  20803152.9174   20803157.8074
  22618635.297    -5633726.92449  -4356108.66549  22618634.7054   22618638.7754
  21445569.004    -1843559.98949  -1433504.27549  21445568.3424   21445574.1524
  21266704.965   -14112540.454 9 -10982646.862 9  21266704.697    21266709.333
 96  9 17 19 49 29.9980000  0  8  1 21  3  9 23 31 17 28
  21088953.829   -14614456.44249 -11372472.38849  21088952.7124   21088958.1444
  20113159.522   -23484590.34849 -17225124.88249  20113158.8404   20113163.7434
  20662548.507   -18408366.58249 -14037910.21849  20662548.3654   20662552.3394
  23310162.478    -8816961.68449  -6851719.30049  23310162.5504   23310166.9014
  20809950.783   -15259873.08749 -11703791.67049  20809950.0214   20809955.0244
  22604096.285    -5710130.98649  -4415644.29149  22604095.3104   22604100.4314
  21457425.952    -1781251.18149  -1384952.00549  21457424.8644   21457430.2514
  21281353.176   -14035562.989 9 -10922664.460 9  21281352.496    21281358.400
 96  9 17 19 49 59.9980000  0  8  1 21  3  9 23 31 17 28
  21071347.506   -14706978.22049 -11444567.26949  21071345.9314   21071352.0334
  20107834.482   -23512573.65049 -17246930.06249  20107833.8064   20107838.4064
  20660922.005   -18416914.15849 -14044570.68449  20660921.9914   20660926.5744
  23302647.032    -8856456.22249  -6882494.22849  23302645.5844   23302653.1974
  20816742.600   -15224181.52949 -11675980.08349  20816741.9394   20816746.6624
  22589607.524    -5786270.79849  -4474974.01149  22589606.5214   22589611.4154
  21469301.799    -1718843.79849  -1336322.91849  21469301.2324   21469306.8814
  21296037.857   -13958394.723 9 -10862533.395 9  21296037.260    21296042.389
 96  9 17 19 50 29.9980000  0  8  1 21  3  9 23 31 17 28
  21053804.263   -14799168.58349 -11516403.89049  21053803.7554   21053808.5694
  20102547.810   -23540355.10749 -17268577.94649  20102546.8764   20102552.2354
  20659398.386   -18424921.17949 -14050809.92649  20659397.7274   20659402.5474
  23295204.797    -8895564.81049  -6912968.39749  23295204.1064   23295210.1254
  20823545.522   -15188432.28849 -11648123.55249  20823544.8004   20823549.9104
  22575186.203    -5862055.07649  -4534026.68949  22575185.9044   22575189.8144
  21481216.162    -1656233.32749  -1287535.56749  21481214.9844   21481220.5224
  21310776.436   -13880943.382 9 -10802181.758 9  21310775.567    21310780.509
 96  9 17 19 50 59.9980000  0  8  1 21  3  9 23 31 17 28
  21036353.862   -14890871.62449 -11587860.79549  21036352.4764   21036358.2604
  20097329.797   -23567776.08949 -17289944.94849  20097328.7494   20097333.9374
  20658005.053   -18432243.46349 -14056515.61649  20658004.6514   20658009.4834
  23287863.474    -8934145.02849  -6943030.85849  23287862.9084   23287869.1264
  20830390.082   -15152463.91349 -11620096.26849  20830389.6614   20830394.1024
  22560869.848    -5937287.60449  -4592649.42449  22560868.7164   22560875.1124
  21493201.210    -1593251.20249  -1238458.62649  21493200.7774   21493207.1934
  21325599.116   -13803049.849 9 -10741485.534 9  21325598.745    21325602.706
 96  9 17 19 51 29.9980000  0  8  1 21  3  9 23 31 17 28
  21018991.018   -14982113.68949 -11658958.48449  21018989.8464   21018995.1194
  20092175.296   -23594863.49249 -17311052.02349  20092174.4774   20092179.6484
  20656737.659   -18438904.15449 -14061705.77449  20656736.7094   20656741.4824
  23280617.780    -8972220.85949  -6972700.30249  23280617.1644   23280623.3794
  20837276.017   -15116278.76549 -11591900.06249  20837275.4144   20837280.0334
  22546656.931    -6011975.93549  -4650848.09949  22546655.6754   22546660.6754
  21505253.392    -1529917.12649  -1189107.45449  21505252.7034   21505258.2734
  21340501.002   -13724739.859 9 -10680464.818 9  21340501.069    21340504.397
 96  9 17 19 51 59.9980000  0  8  1 21  3  9 23 31 17 28
  21001703.859   -15072958.24149 -11729746.43949  21001702.7044   21001708.3144
  20087074.327   -23621669.36749 -17331939.71849  20087073.2394   20087078.7594
  20655586.326   -18444954.51649 -14066420.36449  20655585.9554   20655590.5714
  23273454.192    -9009865.29049  -7002033.58449  23273452.8744   23273460.0454
  20844195.167   -15079919.40949 -11563568.11249  20844194.4444   20844198.9114
  22532536.306    -6086179.94749  -4708669.39549  22532535.7204   22532540.9494
  21517362.842    -1466281.79249  -1139521.51949  21517361.8304   21517368.2834
  21355469.986   -13646078.327 9 -10619170.162 9  21355468.867    21355473.997
 96  9 17 19 52 29.9980000  0  8  1 21  3  9 23 31 17 28
  20984486.154   -15163436.97549 -11800249.32249  20984485.2934   20984490.4894
  20082020.818   -23648225.35149 -17352632.70549  20082019.7874   20082025.0654
  20654545.994   -18450421.16549 -14070680.10449  20654545.6764   20654550.1844
  23266372.183    -9047081.16449  -7031032.94649  23266371.8664   23266377.3734
  20851143.550   -15043405.47049 -11535115.71249  20851142.3154   20851147.4194
  22518504.461    -6159918.13649  -4766127.70949  22518503.7244   22518508.5704
  21529525.941    -1402365.11949  -1089716.36449  21529525.2504   21529531.1904
  21370500.781   -13567091.855 9 -10557622.329 9  21370500.131    21370504.751
 96  9 17 19 52 59.9980000  0  8  1 21  3  9 23 31 17 28
  20967330.517   -15253590.87649 -11870499.11549  20967329.6404   20967334.2524
  20077007.219   -23674571.58549 -17373162.23649  20077006.3284   20077011.6534
  20653610.655   -18455336.31449 -14074510.10249  20653610.0834   20653615.3044
  23259369.317    -9083881.14249  -7059708.22649  23259368.1154   23259375.2524
  20858117.170   -15006758.00549 -11506559.26749  20858116.2674   20858121.3024
  22504554.340    -6233226.39249  -4823251.03849  22504553.5124   22504557.2934
  21541737.103    -1338195.18149  -1039713.86749  21541736.2764   21541742.4964
  21385587.031   -13487812.999 9 -10495846.627 9  21385586.137    21385591.112
 96  9 17 19 53 29.9980000  0  8  1 21  3  9 23 31 17 28
  20950240.407   -15343399.67149 -11940479.96249  20950239.6114   20950244.6664
  20072036.394   -23700693.45349 -17393516.93849  20072035.4094   20072040.3734
  20652783.299   -18459684.44349 -14077898.26949  20652783.1064   20652787.5674
  23252448.777    -9120248.32349  -7088046.27149  23252447.6754   23252454.7624
  20865119.167   -14969963.14849 -11477887.97149  20865118.5194   20865123.0024
  22490683.373    -6306119.47449  -4880050.79949  22490683.1044   22490687.2744
  21553999.083    -1273757.93049   -989503.04849  21553998.2084   21554004.1024
  21400730.158   -13408235.224 9 -10433838.014 9  21400730.153    21400734.874
 96  9 17 19 53 59.9980000  0  8  1 21  3  9 23 31 17 28
  20933243.620   -15432719.22049 -12010079.58949  20933242.7584   20933248.0044
  20067133.616   -23726458.31749 -17413593.46049  20067132.5434   20067137.7644
  20652089.897   -18463328.46749 -14080737.78549  20652089.6264   20652093.9164
  23245640.022    -9156029.01049  -7115927.31249  23245639.6594   23245646.0664
  20872175.012   -14932884.47849 -11448995.51149  20872174.1054   20872178.6874
  22476919.544    -6378449.45049  -4936411.79949  22476919.4824   22476923.7354
  21566338.828    -1208912.80549   -938974.41549  21566337.6054   21566344.0654
  21415958.048   -13328213.398 9 -10371483.401 9  21415957.181    21415962.273
 96  9 17 19 54 29.9980000  0  8  1 21  3  9 23 31 17 28
  20916323.515   -15521634.93149 -12079364.55249  20916322.0824   20916327.7484
  20062279.961   -23751964.17649 -17433468.16149  20062279.1734   20062284.0994
  20651513.485   -18466357.83949 -14083098.34449  20651513.2154   20651517.7294
  23238928.577    -9191297.79349  -7143409.45049  23238927.6054   23238933.1104
  20879266.837   -14895616.70349 -11419955.71349  20879265.8454   20879270.6724
  22463247.107    -6450298.58849  -4992398.15449  22463246.4584   22463251.1194
  21578738.659    -1143751.11249   -888199.11449  21578738.1904   21578743.1694
  21431253.169   -13247836.802 9 -10308852.359 9  21431251.783    21431257.979
 96  9 17 19 54 59.9980000  0  8  1 21  3  9 23 31 17 28
  20899480.017   -15610147.91349 -12148335.69449  20899478.9924   20899483.9204
  20057475.868   -23777209.97749 -17453140.22049  20057475.2094   20057480.0504
  20651055.132   -18468766.69549 -14084975.39949  20651055.0724   20651059.1984
  23232310.048    -9226076.50449  -7170509.73949  23232309.3574   23232315.5964
  20886394.683   -14858159.10849 -11390767.99749  20886393.5014   20886398.3774
  22449667.478    -6521660.71349  -5048005.01449  22449666.9394   22449670.7244
  21591197.929    -1078276.75149   -837180.17149  21591197.3854   21591201.8914
  21446614.244   -13167113.092 9 -10245950.794 9  21446613.568    21446618.602
 96  9 17 19 55 29.9980000  0  8  1 21  3  9 23 31 17 28
  20882716.455   -15698240.56449 -12216979.30349  20882715.8574   20882720.6534
  20052721.597   -23802193.96149 -17472608.26449  20052720.7104   20052726.0004
  20650718.768   -18470534.45249 -14086352.87549  20650717.9554   20650723.1004
  23225787.598    -9260351.97349  -7197217.88849  23225787.7924   23225792.8854
  20893562.166   -14820493.86549 -11361418.48449  20893561.4184   20893565.9164
  22436186.482    -6592503.72149  -5103207.32649  22436184.7034   22436189.5744
  21603718.446    -1012481.30049   -785911.04349  21603717.3784   21603723.3314
  21462043.718   -13086030.869 9 -10182769.875 9  21462043.377    21462048.457
